<?xml version="1.0" encoding="UTF-8" standalone="no" ?>
<gpx xmlns="http://www.topografix.com/GPX/1/1" xmlns:xsi="http://www.w3.org/2001/XMLSchema-instance" xsi:schemaLocation="http://www.topografix.com/GPX/1/1 http://www.topografix.com/GPX/1/1/gpx.xsd" version="1.1" creator="VisuGPX - https://www.visugpx.com">
  <metadata>
    <name>Bourg de Sirod,Les Commères.....</name>
  </metadata>
  <trk>
    <name><![CDATA[Bourg de Sirod,Les Commères....._1]]></name>
    <extensions>
      <line xmlns="http://www.topografix.com/GPX/gpx_style/0/2">
        <color>0000FF</color>
        <width>4</width>
      </line>
    </extensions>
    <trkseg>
      <trkpt lat="46.72824" lon="5.9601">
        <ele>584.3</ele>
        <time>2021-04-08T11:32:23Z</time>
      </trkpt>
      <trkpt lat="46.72822" lon="5.96016">
        <ele>581.4</ele>
        <time>2021-04-08T11:34:30Z</time>
      </trkpt>
      <trkpt lat="46.72827" lon="5.96018">
        <ele>579.2</ele>
        <time>2021-04-08T11:34:44Z</time>
      </trkpt>
      <trkpt lat="46.72824" lon="5.96013">
        <ele>578.9</ele>
        <time>2021-04-08T11:35:19Z</time>
      </trkpt>
      <trkpt lat="46.72819" lon="5.96009">
        <ele>580.3</ele>
        <time>2021-04-08T11:35:47Z</time>
      </trkpt>
      <trkpt lat="46.72815" lon="5.96009">
        <ele>581</ele>
        <time>2021-04-08T11:35:52Z</time>
      </trkpt>
      <trkpt lat="46.7281" lon="5.96008">
        <ele>581.5</ele>
        <time>2021-04-08T11:35:58Z</time>
      </trkpt>
      <trkpt lat="46.72805" lon="5.96005">
        <ele>582.1</ele>
        <time>2021-04-08T11:36:04Z</time>
      </trkpt>
      <trkpt lat="46.72801" lon="5.96003">
        <ele>582.4</ele>
        <time>2021-04-08T11:36:08Z</time>
      </trkpt>
      <trkpt lat="46.72796" lon="5.96001">
        <ele>582.7</ele>
        <time>2021-04-08T11:36:13Z</time>
      </trkpt>
      <trkpt lat="46.72792" lon="5.95998">
        <ele>581.4</ele>
        <time>2021-04-08T11:36:21Z</time>
      </trkpt>
      <trkpt lat="46.72788" lon="5.95995">
        <ele>580.4</ele>
        <time>2021-04-08T11:36:26Z</time>
      </trkpt>
      <trkpt lat="46.72783" lon="5.95994">
        <ele>579.3</ele>
        <time>2021-04-08T11:36:33Z</time>
      </trkpt>
      <trkpt lat="46.72778" lon="5.95995">
        <ele>578.5</ele>
        <time>2021-04-08T11:36:39Z</time>
      </trkpt>
      <trkpt lat="46.72773" lon="5.95997">
        <ele>577.8</ele>
        <time>2021-04-08T11:36:44Z</time>
      </trkpt>
      <trkpt lat="46.72769" lon="5.96">
        <ele>577.1</ele>
        <time>2021-04-08T11:36:52Z</time>
      </trkpt>
      <trkpt lat="46.72765" lon="5.96002">
        <ele>577.2</ele>
        <time>2021-04-08T11:36:59Z</time>
      </trkpt>
      <trkpt lat="46.7276" lon="5.96003">
        <ele>576.9</ele>
        <time>2021-04-08T11:37:04Z</time>
      </trkpt>
      <trkpt lat="46.72755" lon="5.96004">
        <ele>575.7</ele>
        <time>2021-04-08T11:37:09Z</time>
      </trkpt>
      <trkpt lat="46.7275" lon="5.96005">
        <ele>574.1</ele>
        <time>2021-04-08T11:37:14Z</time>
      </trkpt>
      <trkpt lat="46.72745" lon="5.96008">
        <ele>572</ele>
        <time>2021-04-08T11:37:20Z</time>
      </trkpt>
      <trkpt lat="46.7274" lon="5.96005">
        <ele>569.2</ele>
        <time>2021-04-08T11:37:28Z</time>
      </trkpt>
      <trkpt lat="46.72736" lon="5.96004">
        <ele>564.6</ele>
        <time>2021-04-08T11:37:36Z</time>
      </trkpt>
      <trkpt lat="46.72729" lon="5.96003">
        <ele>562</ele>
        <time>2021-04-08T11:37:51Z</time>
      </trkpt>
      <trkpt lat="46.72725" lon="5.96004">
        <ele>562.5</ele>
        <time>2021-04-08T11:37:55Z</time>
      </trkpt>
      <trkpt lat="46.72719" lon="5.96004">
        <ele>563.5</ele>
        <time>2021-04-08T11:38:02Z</time>
      </trkpt>
      <trkpt lat="46.72714" lon="5.96004">
        <ele>565</ele>
        <time>2021-04-08T11:38:12Z</time>
      </trkpt>
      <trkpt lat="46.7271" lon="5.96003">
        <ele>566.1</ele>
        <time>2021-04-08T11:38:19Z</time>
      </trkpt>
      <trkpt lat="46.72705" lon="5.96003">
        <ele>567.4</ele>
        <time>2021-04-08T11:38:26Z</time>
      </trkpt>
      <trkpt lat="46.727" lon="5.96003">
        <ele>569.4</ele>
        <time>2021-04-08T11:38:34Z</time>
      </trkpt>
      <trkpt lat="46.72695" lon="5.96003">
        <ele>571.8</ele>
        <time>2021-04-08T11:38:41Z</time>
      </trkpt>
      <trkpt lat="46.72687" lon="5.95995">
        <ele>584.4</ele>
        <time>2021-04-08T11:38:45Z</time>
      </trkpt>
      <trkpt lat="46.72682" lon="5.95997">
        <ele>595.8</ele>
        <time>2021-04-08T11:38:55Z</time>
      </trkpt>
      <trkpt lat="46.72678" lon="5.95992">
        <ele>600.8</ele>
        <time>2021-04-08T11:39:02Z</time>
      </trkpt>
      <trkpt lat="46.72673" lon="5.95991">
        <ele>603</ele>
        <time>2021-04-08T11:39:09Z</time>
      </trkpt>
      <trkpt lat="46.72669" lon="5.9599">
        <ele>603.7</ele>
        <time>2021-04-08T11:39:18Z</time>
      </trkpt>
      <trkpt lat="46.72664" lon="5.9599">
        <ele>604.1</ele>
        <time>2021-04-08T11:39:24Z</time>
      </trkpt>
      <trkpt lat="46.72659" lon="5.95989">
        <ele>604.5</ele>
        <time>2021-04-08T11:39:29Z</time>
      </trkpt>
      <trkpt lat="46.72654" lon="5.95987">
        <ele>605.4</ele>
        <time>2021-04-08T11:39:34Z</time>
      </trkpt>
      <trkpt lat="46.72649" lon="5.95986">
        <ele>606</ele>
        <time>2021-04-08T11:39:40Z</time>
      </trkpt>
      <trkpt lat="46.72644" lon="5.95987">
        <ele>606.4</ele>
        <time>2021-04-08T11:39:45Z</time>
      </trkpt>
      <trkpt lat="46.7264" lon="5.95989">
        <ele>606.9</ele>
        <time>2021-04-08T11:39:51Z</time>
      </trkpt>
      <trkpt lat="46.72636" lon="5.95993">
        <ele>606.9</ele>
        <time>2021-04-08T11:39:57Z</time>
      </trkpt>
      <trkpt lat="46.72631" lon="5.95995">
        <ele>606.8</ele>
        <time>2021-04-08T11:40:02Z</time>
      </trkpt>
      <trkpt lat="46.72626" lon="5.95996">
        <ele>607.7</ele>
        <time>2021-04-08T11:40:06Z</time>
      </trkpt>
      <trkpt lat="46.72621" lon="5.95995">
        <ele>609</ele>
        <time>2021-04-08T11:40:14Z</time>
      </trkpt>
      <trkpt lat="46.72616" lon="5.95993">
        <ele>609.6</ele>
        <time>2021-04-08T11:40:22Z</time>
      </trkpt>
      <trkpt lat="46.72611" lon="5.95992">
        <ele>610.3</ele>
        <time>2021-04-08T11:40:30Z</time>
      </trkpt>
      <trkpt lat="46.72607" lon="5.95994">
        <ele>611.1</ele>
        <time>2021-04-08T11:40:37Z</time>
      </trkpt>
      <trkpt lat="46.72603" lon="5.95998">
        <ele>611.7</ele>
        <time>2021-04-08T11:40:43Z</time>
      </trkpt>
      <trkpt lat="46.72598" lon="5.95999">
        <ele>612.2</ele>
        <time>2021-04-08T11:40:50Z</time>
      </trkpt>
      <trkpt lat="46.72594" lon="5.96001">
        <ele>612.2</ele>
        <time>2021-04-08T11:40:59Z</time>
      </trkpt>
      <trkpt lat="46.72589" lon="5.96004">
        <ele>611.9</ele>
        <time>2021-04-08T11:41:07Z</time>
      </trkpt>
      <trkpt lat="46.72584" lon="5.96004">
        <ele>611.3</ele>
        <time>2021-04-08T11:41:15Z</time>
      </trkpt>
      <trkpt lat="46.72578" lon="5.96004">
        <ele>610.6</ele>
        <time>2021-04-08T11:41:21Z</time>
      </trkpt>
      <trkpt lat="46.72574" lon="5.96004">
        <ele>611.5</ele>
        <time>2021-04-08T11:41:26Z</time>
      </trkpt>
      <trkpt lat="46.72569" lon="5.96003">
        <ele>615.6</ele>
        <time>2021-04-08T11:41:40Z</time>
      </trkpt>
      <trkpt lat="46.72563" lon="5.96009">
        <ele>615.5</ele>
        <time>2021-04-08T11:41:44Z</time>
      </trkpt>
      <trkpt lat="46.72561" lon="5.96015">
        <ele>614.7</ele>
        <time>2021-04-08T11:41:48Z</time>
      </trkpt>
      <trkpt lat="46.72561" lon="5.96022">
        <ele>614.8</ele>
        <time>2021-04-08T11:41:53Z</time>
      </trkpt>
      <trkpt lat="46.72558" lon="5.96028">
        <ele>615.4</ele>
        <time>2021-04-08T11:41:59Z</time>
      </trkpt>
      <trkpt lat="46.72556" lon="5.96034">
        <ele>615.9</ele>
        <time>2021-04-08T11:42:04Z</time>
      </trkpt>
      <trkpt lat="46.72555" lon="5.96041">
        <ele>616.8</ele>
        <time>2021-04-08T11:42:11Z</time>
      </trkpt>
      <trkpt lat="46.72557" lon="5.96048">
        <ele>617.7</ele>
        <time>2021-04-08T11:42:16Z</time>
      </trkpt>
      <trkpt lat="46.72559" lon="5.96054">
        <ele>618.2</ele>
        <time>2021-04-08T11:42:21Z</time>
      </trkpt>
      <trkpt lat="46.72562" lon="5.9606">
        <ele>618.7</ele>
        <time>2021-04-08T11:42:27Z</time>
      </trkpt>
      <trkpt lat="46.72564" lon="5.96067">
        <ele>619.1</ele>
        <time>2021-04-08T11:42:34Z</time>
      </trkpt>
      <trkpt lat="46.72566" lon="5.96073">
        <ele>619.4</ele>
        <time>2021-04-08T11:42:41Z</time>
      </trkpt>
      <trkpt lat="46.72569" lon="5.96079">
        <ele>619.5</ele>
        <time>2021-04-08T11:42:49Z</time>
      </trkpt>
      <trkpt lat="46.72571" lon="5.96086">
        <ele>619.4</ele>
        <time>2021-04-08T11:42:55Z</time>
      </trkpt>
      <trkpt lat="46.72574" lon="5.96091">
        <ele>619.3</ele>
        <time>2021-04-08T11:43:02Z</time>
      </trkpt>
      <trkpt lat="46.72573" lon="5.96099">
        <ele>619</ele>
        <time>2021-04-08T11:43:07Z</time>
      </trkpt>
      <trkpt lat="46.72574" lon="5.96106">
        <ele>618.5</ele>
        <time>2021-04-08T11:43:15Z</time>
      </trkpt>
      <trkpt lat="46.72577" lon="5.96112">
        <ele>618</ele>
        <time>2021-04-08T11:43:20Z</time>
      </trkpt>
      <trkpt lat="46.72579" lon="5.96118">
        <ele>617.5</ele>
        <time>2021-04-08T11:43:26Z</time>
      </trkpt>
      <trkpt lat="46.72581" lon="5.96124">
        <ele>617.2</ele>
        <time>2021-04-08T11:43:31Z</time>
      </trkpt>
      <trkpt lat="46.72585" lon="5.9613">
        <ele>617.1</ele>
        <time>2021-04-08T11:43:35Z</time>
      </trkpt>
      <trkpt lat="46.72587" lon="5.96136">
        <ele>617.2</ele>
        <time>2021-04-08T11:43:40Z</time>
      </trkpt>
      <trkpt lat="46.72591" lon="5.96141">
        <ele>617.1</ele>
        <time>2021-04-08T11:43:45Z</time>
      </trkpt>
      <trkpt lat="46.72595" lon="5.96146">
        <ele>617</ele>
        <time>2021-04-08T11:43:50Z</time>
      </trkpt>
      <trkpt lat="46.72597" lon="5.96153">
        <ele>616.9</ele>
        <time>2021-04-08T11:43:55Z</time>
      </trkpt>
      <trkpt lat="46.72599" lon="5.9616">
        <ele>617</ele>
        <time>2021-04-08T11:44:00Z</time>
      </trkpt>
      <trkpt lat="46.72601" lon="5.96166">
        <ele>616.9</ele>
        <time>2021-04-08T11:44:05Z</time>
      </trkpt>
      <trkpt lat="46.72604" lon="5.96171">
        <ele>616.5</ele>
        <time>2021-04-08T11:44:12Z</time>
      </trkpt>
      <trkpt lat="46.72606" lon="5.96177">
        <ele>616.5</ele>
        <time>2021-04-08T11:44:19Z</time>
      </trkpt>
      <trkpt lat="46.7261" lon="5.96182">
        <ele>616.6</ele>
        <time>2021-04-08T11:44:23Z</time>
      </trkpt>
      <trkpt lat="46.72613" lon="5.96189">
        <ele>616.6</ele>
        <time>2021-04-08T11:44:28Z</time>
      </trkpt>
      <trkpt lat="46.72614" lon="5.96195">
        <ele>616.3</ele>
        <time>2021-04-08T11:44:33Z</time>
      </trkpt>
      <trkpt lat="46.72616" lon="5.96202">
        <ele>615.7</ele>
        <time>2021-04-08T11:44:39Z</time>
      </trkpt>
      <trkpt lat="46.72619" lon="5.96208">
        <ele>615.6</ele>
        <time>2021-04-08T11:44:44Z</time>
      </trkpt>
      <trkpt lat="46.72622" lon="5.96212">
        <ele>615.3</ele>
        <time>2021-04-08T11:44:49Z</time>
      </trkpt>
      <trkpt lat="46.72625" lon="5.96218">
        <ele>615.1</ele>
        <time>2021-04-08T11:44:55Z</time>
      </trkpt>
      <trkpt lat="46.72629" lon="5.96222">
        <ele>614.9</ele>
        <time>2021-04-08T11:44:59Z</time>
      </trkpt>
      <trkpt lat="46.72643" lon="5.96228">
        <ele>617.4</ele>
        <time>2021-04-08T11:45:03Z</time>
      </trkpt>
      <trkpt lat="46.72647" lon="5.96232">
        <ele>618.6</ele>
        <time>2021-04-08T11:45:08Z</time>
      </trkpt>
      <trkpt lat="46.7265" lon="5.96236">
        <ele>619.2</ele>
        <time>2021-04-08T11:45:15Z</time>
      </trkpt>
      <trkpt lat="46.72653" lon="5.96241">
        <ele>619.2</ele>
        <time>2021-04-08T11:45:20Z</time>
      </trkpt>
      <trkpt lat="46.72657" lon="5.96247">
        <ele>619.2</ele>
        <time>2021-04-08T11:45:25Z</time>
      </trkpt>
      <trkpt lat="46.72661" lon="5.96251">
        <ele>619.2</ele>
        <time>2021-04-08T11:45:29Z</time>
      </trkpt>
      <trkpt lat="46.72664" lon="5.96255">
        <ele>619</ele>
        <time>2021-04-08T11:45:35Z</time>
      </trkpt>
      <trkpt lat="46.72669" lon="5.96259">
        <ele>618.7</ele>
        <time>2021-04-08T11:45:41Z</time>
      </trkpt>
      <trkpt lat="46.72672" lon="5.96263">
        <ele>618.5</ele>
        <time>2021-04-08T11:45:46Z</time>
      </trkpt>
      <trkpt lat="46.72674" lon="5.9627">
        <ele>618.3</ele>
        <time>2021-04-08T11:45:52Z</time>
      </trkpt>
      <trkpt lat="46.72676" lon="5.96276">
        <ele>618.3</ele>
        <time>2021-04-08T11:45:57Z</time>
      </trkpt>
      <trkpt lat="46.72678" lon="5.96283">
        <ele>619.5</ele>
        <time>2021-04-08T11:46:03Z</time>
      </trkpt>
      <trkpt lat="46.7268" lon="5.9629">
        <ele>619.7</ele>
        <time>2021-04-08T11:46:09Z</time>
      </trkpt>
      <trkpt lat="46.72681" lon="5.96297">
        <ele>619.8</ele>
        <time>2021-04-08T11:46:15Z</time>
      </trkpt>
      <trkpt lat="46.72685" lon="5.96303">
        <ele>619.7</ele>
        <time>2021-04-08T11:46:21Z</time>
      </trkpt>
      <trkpt lat="46.72691" lon="5.96307">
        <ele>621</ele>
        <time>2021-04-08T11:46:25Z</time>
      </trkpt>
      <trkpt lat="46.72697" lon="5.9631">
        <ele>622.2</ele>
        <time>2021-04-08T11:46:29Z</time>
      </trkpt>
      <trkpt lat="46.72701" lon="5.96314">
        <ele>623.4</ele>
        <time>2021-04-08T11:46:36Z</time>
      </trkpt>
      <trkpt lat="46.72704" lon="5.96319">
        <ele>623.6</ele>
        <time>2021-04-08T11:46:44Z</time>
      </trkpt>
      <trkpt lat="46.72708" lon="5.96322">
        <ele>623.4</ele>
        <time>2021-04-08T11:46:50Z</time>
      </trkpt>
      <trkpt lat="46.7271" lon="5.96328">
        <ele>622.8</ele>
        <time>2021-04-08T11:46:58Z</time>
      </trkpt>
      <trkpt lat="46.72715" lon="5.96332">
        <ele>622.4</ele>
        <time>2021-04-08T11:47:05Z</time>
      </trkpt>
      <trkpt lat="46.7272" lon="5.96333">
        <ele>622.2</ele>
        <time>2021-04-08T11:47:09Z</time>
      </trkpt>
      <trkpt lat="46.72726" lon="5.96333">
        <ele>622.1</ele>
        <time>2021-04-08T11:47:13Z</time>
      </trkpt>
      <trkpt lat="46.72732" lon="5.96333">
        <ele>621.9</ele>
        <time>2021-04-08T11:47:17Z</time>
      </trkpt>
      <trkpt lat="46.72736" lon="5.96337">
        <ele>621.7</ele>
        <time>2021-04-08T11:47:22Z</time>
      </trkpt>
      <trkpt lat="46.7274" lon="5.96342">
        <ele>622.1</ele>
        <time>2021-04-08T11:47:30Z</time>
      </trkpt>
      <trkpt lat="46.72743" lon="5.96347">
        <ele>622.3</ele>
        <time>2021-04-08T11:47:35Z</time>
      </trkpt>
      <trkpt lat="46.72747" lon="5.96353">
        <ele>623.9</ele>
        <time>2021-04-08T11:47:39Z</time>
      </trkpt>
      <trkpt lat="46.72751" lon="5.96359">
        <ele>625.4</ele>
        <time>2021-04-08T11:47:44Z</time>
      </trkpt>
      <trkpt lat="46.72754" lon="5.96364">
        <ele>626.9</ele>
        <time>2021-04-08T11:47:50Z</time>
      </trkpt>
      <trkpt lat="46.72758" lon="5.96368">
        <ele>627.9</ele>
        <time>2021-04-08T11:47:57Z</time>
      </trkpt>
      <trkpt lat="46.72763" lon="5.96368">
        <ele>628.6</ele>
        <time>2021-04-08T11:48:05Z</time>
      </trkpt>
      <trkpt lat="46.72768" lon="5.96368">
        <ele>629</ele>
        <time>2021-04-08T11:48:14Z</time>
      </trkpt>
      <trkpt lat="46.72773" lon="5.96367">
        <ele>628.9</ele>
        <time>2021-04-08T11:48:19Z</time>
      </trkpt>
      <trkpt lat="46.72778" lon="5.96365">
        <ele>628.7</ele>
        <time>2021-04-08T11:48:23Z</time>
      </trkpt>
      <trkpt lat="46.72783" lon="5.96365">
        <ele>628.5</ele>
        <time>2021-04-08T11:48:27Z</time>
      </trkpt>
      <trkpt lat="46.72788" lon="5.96366">
        <ele>628.4</ele>
        <time>2021-04-08T11:48:33Z</time>
      </trkpt>
      <trkpt lat="46.72793" lon="5.96367">
        <ele>628.6</ele>
        <time>2021-04-08T11:48:39Z</time>
      </trkpt>
      <trkpt lat="46.72798" lon="5.96369">
        <ele>629.2</ele>
        <time>2021-04-08T11:48:46Z</time>
      </trkpt>
      <trkpt lat="46.72803" lon="5.96373">
        <ele>629.7</ele>
        <time>2021-04-08T11:48:51Z</time>
      </trkpt>
      <trkpt lat="46.72807" lon="5.96377">
        <ele>629.9</ele>
        <time>2021-04-08T11:48:55Z</time>
      </trkpt>
      <trkpt lat="46.72813" lon="5.96382">
        <ele>631.2</ele>
        <time>2021-04-08T11:48:59Z</time>
      </trkpt>
      <trkpt lat="46.72816" lon="5.96389">
        <ele>632.2</ele>
        <time>2021-04-08T11:49:04Z</time>
      </trkpt>
      <trkpt lat="46.72819" lon="5.96395">
        <ele>633</ele>
        <time>2021-04-08T11:49:09Z</time>
      </trkpt>
      <trkpt lat="46.72821" lon="5.96401">
        <ele>633.4</ele>
        <time>2021-04-08T11:49:14Z</time>
      </trkpt>
      <trkpt lat="46.72825" lon="5.96406">
        <ele>633.7</ele>
        <time>2021-04-08T11:49:19Z</time>
      </trkpt>
      <trkpt lat="46.72827" lon="5.96413">
        <ele>633.7</ele>
        <time>2021-04-08T11:49:26Z</time>
      </trkpt>
      <trkpt lat="46.72828" lon="5.96419">
        <ele>633.7</ele>
        <time>2021-04-08T11:49:33Z</time>
      </trkpt>
      <trkpt lat="46.7283" lon="5.96426">
        <ele>633.8</ele>
        <time>2021-04-08T11:49:40Z</time>
      </trkpt>
      <trkpt lat="46.72848" lon="5.96433">
        <ele>638.2</ele>
        <time>2021-04-08T11:49:44Z</time>
      </trkpt>
      <trkpt lat="46.72852" lon="5.96438">
        <ele>640.4</ele>
        <time>2021-04-08T11:49:48Z</time>
      </trkpt>
      <trkpt lat="46.72853" lon="5.96444">
        <ele>642.4</ele>
        <time>2021-04-08T11:49:53Z</time>
      </trkpt>
      <trkpt lat="46.72855" lon="5.9645">
        <ele>643.6</ele>
        <time>2021-04-08T11:49:58Z</time>
      </trkpt>
      <trkpt lat="46.72857" lon="5.96456">
        <ele>643.9</ele>
        <time>2021-04-08T11:50:03Z</time>
      </trkpt>
      <trkpt lat="46.7286" lon="5.96461">
        <ele>643.9</ele>
        <time>2021-04-08T11:50:08Z</time>
      </trkpt>
      <trkpt lat="46.72864" lon="5.96466">
        <ele>643.3</ele>
        <time>2021-04-08T11:50:13Z</time>
      </trkpt>
      <trkpt lat="46.72868" lon="5.96469">
        <ele>642.9</ele>
        <time>2021-04-08T11:50:18Z</time>
      </trkpt>
      <trkpt lat="46.72873" lon="5.96472">
        <ele>642.8</ele>
        <time>2021-04-08T11:50:22Z</time>
      </trkpt>
      <trkpt lat="46.72877" lon="5.96476">
        <ele>642.3</ele>
        <time>2021-04-08T11:50:28Z</time>
      </trkpt>
      <trkpt lat="46.72881" lon="5.96479">
        <ele>641.2</ele>
        <time>2021-04-08T11:50:34Z</time>
      </trkpt>
      <trkpt lat="46.72886" lon="5.9648">
        <ele>640.1</ele>
        <time>2021-04-08T11:50:39Z</time>
      </trkpt>
      <trkpt lat="46.7289" lon="5.96484">
        <ele>639.3</ele>
        <time>2021-04-08T11:50:44Z</time>
      </trkpt>
      <trkpt lat="46.72895" lon="5.96488">
        <ele>639</ele>
        <time>2021-04-08T11:50:49Z</time>
      </trkpt>
      <trkpt lat="46.72897" lon="5.96493">
        <ele>638.6</ele>
        <time>2021-04-08T11:50:54Z</time>
      </trkpt>
      <trkpt lat="46.72901" lon="5.96498">
        <ele>637.9</ele>
        <time>2021-04-08T11:51:00Z</time>
      </trkpt>
      <trkpt lat="46.72905" lon="5.96501">
        <ele>637.4</ele>
        <time>2021-04-08T11:51:06Z</time>
      </trkpt>
      <trkpt lat="46.7291" lon="5.96501">
        <ele>636.4</ele>
        <time>2021-04-08T11:51:12Z</time>
      </trkpt>
      <trkpt lat="46.72915" lon="5.96501">
        <ele>635.3</ele>
        <time>2021-04-08T11:51:17Z</time>
      </trkpt>
      <trkpt lat="46.72919" lon="5.96504">
        <ele>633.8</ele>
        <time>2021-04-08T11:51:22Z</time>
      </trkpt>
      <trkpt lat="46.72924" lon="5.96507">
        <ele>632.7</ele>
        <time>2021-04-08T11:51:27Z</time>
      </trkpt>
      <trkpt lat="46.72928" lon="5.96511">
        <ele>632.1</ele>
        <time>2021-04-08T11:51:32Z</time>
      </trkpt>
      <trkpt lat="46.72932" lon="5.96513">
        <ele>631.6</ele>
        <time>2021-04-08T11:51:37Z</time>
      </trkpt>
      <trkpt lat="46.72937" lon="5.96515">
        <ele>630.7</ele>
        <time>2021-04-08T11:51:43Z</time>
      </trkpt>
      <trkpt lat="46.72942" lon="5.96516">
        <ele>630.1</ele>
        <time>2021-04-08T11:51:48Z</time>
      </trkpt>
      <trkpt lat="46.72946" lon="5.96517">
        <ele>629.5</ele>
        <time>2021-04-08T11:51:53Z</time>
      </trkpt>
      <trkpt lat="46.72951" lon="5.96518">
        <ele>628.9</ele>
        <time>2021-04-08T11:51:58Z</time>
      </trkpt>
      <trkpt lat="46.72956" lon="5.9652">
        <ele>628.4</ele>
        <time>2021-04-08T11:52:03Z</time>
      </trkpt>
      <trkpt lat="46.7296" lon="5.96525">
        <ele>628</ele>
        <time>2021-04-08T11:52:08Z</time>
      </trkpt>
      <trkpt lat="46.72965" lon="5.96527">
        <ele>628.2</ele>
        <time>2021-04-08T11:52:14Z</time>
      </trkpt>
      <trkpt lat="46.72969" lon="5.9653">
        <ele>628.4</ele>
        <time>2021-04-08T11:52:20Z</time>
      </trkpt>
      <trkpt lat="46.72974" lon="5.96532">
        <ele>628.5</ele>
        <time>2021-04-08T11:52:26Z</time>
      </trkpt>
      <trkpt lat="46.72979" lon="5.96534">
        <ele>628</ele>
        <time>2021-04-08T11:52:32Z</time>
      </trkpt>
      <trkpt lat="46.72984" lon="5.96536">
        <ele>627.6</ele>
        <time>2021-04-08T11:52:37Z</time>
      </trkpt>
      <trkpt lat="46.72988" lon="5.96535">
        <ele>627.3</ele>
        <time>2021-04-08T11:52:42Z</time>
      </trkpt>
      <trkpt lat="46.72993" lon="5.96535">
        <ele>627.3</ele>
        <time>2021-04-08T11:52:47Z</time>
      </trkpt>
      <trkpt lat="46.72998" lon="5.96538">
        <ele>627</ele>
        <time>2021-04-08T11:52:53Z</time>
      </trkpt>
      <trkpt lat="46.73002" lon="5.96542">
        <ele>626.2</ele>
        <time>2021-04-08T11:53:02Z</time>
      </trkpt>
      <trkpt lat="46.73007" lon="5.96541">
        <ele>626</ele>
        <time>2021-04-08T11:53:07Z</time>
      </trkpt>
      <trkpt lat="46.73013" lon="5.96537">
        <ele>625.5</ele>
        <time>2021-04-08T11:53:11Z</time>
      </trkpt>
      <trkpt lat="46.73018" lon="5.96537">
        <ele>625</ele>
        <time>2021-04-08T11:53:15Z</time>
      </trkpt>
      <trkpt lat="46.73024" lon="5.96538">
        <ele>624.6</ele>
        <time>2021-04-08T11:53:19Z</time>
      </trkpt>
      <trkpt lat="46.73028" lon="5.96539">
        <ele>624.5</ele>
        <time>2021-04-08T11:53:23Z</time>
      </trkpt>
      <trkpt lat="46.73032" lon="5.96542">
        <ele>624.7</ele>
        <time>2021-04-08T11:53:28Z</time>
      </trkpt>
      <trkpt lat="46.73036" lon="5.96546">
        <ele>624.8</ele>
        <time>2021-04-08T11:53:33Z</time>
      </trkpt>
      <trkpt lat="46.73041" lon="5.96547">
        <ele>624.2</ele>
        <time>2021-04-08T11:53:41Z</time>
      </trkpt>
      <trkpt lat="46.73045" lon="5.96546">
        <ele>623.3</ele>
        <time>2021-04-08T11:53:45Z</time>
      </trkpt>
      <trkpt lat="46.73051" lon="5.96547">
        <ele>622.5</ele>
        <time>2021-04-08T11:53:50Z</time>
      </trkpt>
      <trkpt lat="46.73054" lon="5.96552">
        <ele>621.8</ele>
        <time>2021-04-08T11:53:55Z</time>
      </trkpt>
      <trkpt lat="46.73058" lon="5.96555">
        <ele>620.7</ele>
        <time>2021-04-08T11:54:02Z</time>
      </trkpt>
      <trkpt lat="46.73063" lon="5.96558">
        <ele>620</ele>
        <time>2021-04-08T11:54:08Z</time>
      </trkpt>
      <trkpt lat="46.73068" lon="5.96559">
        <ele>618.5</ele>
        <time>2021-04-08T11:54:14Z</time>
      </trkpt>
      <trkpt lat="46.73073" lon="5.9656">
        <ele>617.5</ele>
        <time>2021-04-08T11:54:20Z</time>
      </trkpt>
      <trkpt lat="46.73078" lon="5.9656">
        <ele>617.4</ele>
        <time>2021-04-08T11:54:26Z</time>
      </trkpt>
      <trkpt lat="46.73083" lon="5.96558">
        <ele>617</ele>
        <time>2021-04-08T11:54:31Z</time>
      </trkpt>
      <trkpt lat="46.73088" lon="5.96561">
        <ele>616.4</ele>
        <time>2021-04-08T11:54:37Z</time>
      </trkpt>
      <trkpt lat="46.73093" lon="5.96563">
        <ele>615.5</ele>
        <time>2021-04-08T11:54:41Z</time>
      </trkpt>
      <trkpt lat="46.73097" lon="5.96567">
        <ele>615</ele>
        <time>2021-04-08T11:54:45Z</time>
      </trkpt>
      <trkpt lat="46.73101" lon="5.96567">
        <ele>613.5</ele>
        <time>2021-04-08T11:54:54Z</time>
      </trkpt>
      <trkpt lat="46.73106" lon="5.96567">
        <ele>612.5</ele>
        <time>2021-04-08T11:55:00Z</time>
      </trkpt>
      <trkpt lat="46.73111" lon="5.96569">
        <ele>610.7</ele>
        <time>2021-04-08T11:55:07Z</time>
      </trkpt>
      <trkpt lat="46.73114" lon="5.96574">
        <ele>608.3</ele>
        <time>2021-04-08T11:55:16Z</time>
      </trkpt>
      <trkpt lat="46.73118" lon="5.96578">
        <ele>606.5</ele>
        <time>2021-04-08T11:55:28Z</time>
      </trkpt>
      <trkpt lat="46.73123" lon="5.96579">
        <ele>603.9</ele>
        <time>2021-04-08T11:55:33Z</time>
      </trkpt>
      <trkpt lat="46.73127" lon="5.96584">
        <ele>603.5</ele>
        <time>2021-04-08T11:55:38Z</time>
      </trkpt>
      <trkpt lat="46.73129" lon="5.96589">
        <ele>605.5</ele>
        <time>2021-04-08T11:55:51Z</time>
      </trkpt>
      <trkpt lat="46.73135" lon="5.96587">
        <ele>606.9</ele>
        <time>2021-04-08T11:55:59Z</time>
      </trkpt>
      <trkpt lat="46.73139" lon="5.9659">
        <ele>607.6</ele>
        <time>2021-04-08T11:56:05Z</time>
      </trkpt>
      <trkpt lat="46.73143" lon="5.96594">
        <ele>608.4</ele>
        <time>2021-04-08T11:56:11Z</time>
      </trkpt>
      <trkpt lat="46.73147" lon="5.96597">
        <ele>607.7</ele>
        <time>2021-04-08T11:56:17Z</time>
      </trkpt>
      <trkpt lat="46.73153" lon="5.96599">
        <ele>606.2</ele>
        <time>2021-04-08T11:56:23Z</time>
      </trkpt>
      <trkpt lat="46.73158" lon="5.966">
        <ele>605.7</ele>
        <time>2021-04-08T11:56:27Z</time>
      </trkpt>
      <trkpt lat="46.73164" lon="5.96605">
        <ele>605.5</ele>
        <time>2021-04-08T11:56:31Z</time>
      </trkpt>
      <trkpt lat="46.73168" lon="5.96608">
        <ele>604.7</ele>
        <time>2021-04-08T11:56:35Z</time>
      </trkpt>
      <trkpt lat="46.73174" lon="5.96611">
        <ele>604.6</ele>
        <time>2021-04-08T11:56:41Z</time>
      </trkpt>
      <trkpt lat="46.73177" lon="5.96616">
        <ele>604.9</ele>
        <time>2021-04-08T11:56:45Z</time>
      </trkpt>
      <trkpt lat="46.73182" lon="5.96619">
        <ele>604.2</ele>
        <time>2021-04-08T11:56:50Z</time>
      </trkpt>
      <trkpt lat="46.73187" lon="5.96621">
        <ele>603.7</ele>
        <time>2021-04-08T11:56:55Z</time>
      </trkpt>
      <trkpt lat="46.7319" lon="5.96624">
        <ele>603.4</ele>
        <time>2021-04-08T11:56:59Z</time>
      </trkpt>
      <trkpt lat="46.73194" lon="5.96628">
        <ele>604.2</ele>
        <time>2021-04-08T11:57:03Z</time>
      </trkpt>
      <trkpt lat="46.73199" lon="5.96629">
        <ele>606</ele>
        <time>2021-04-08T11:57:09Z</time>
      </trkpt>
      <trkpt lat="46.73204" lon="5.96633">
        <ele>608.5</ele>
        <time>2021-04-08T11:57:16Z</time>
      </trkpt>
      <trkpt lat="46.73208" lon="5.96637">
        <ele>609.8</ele>
        <time>2021-04-08T11:57:21Z</time>
      </trkpt>
      <trkpt lat="46.73212" lon="5.9664">
        <ele>610.8</ele>
        <time>2021-04-08T11:57:25Z</time>
      </trkpt>
      <trkpt lat="46.73217" lon="5.96643">
        <ele>611.6</ele>
        <time>2021-04-08T11:57:30Z</time>
      </trkpt>
      <trkpt lat="46.73223" lon="5.96645">
        <ele>611.7</ele>
        <time>2021-04-08T11:57:34Z</time>
      </trkpt>
      <trkpt lat="46.73228" lon="5.96647">
        <ele>611</ele>
        <time>2021-04-08T11:57:39Z</time>
      </trkpt>
      <trkpt lat="46.73233" lon="5.96648">
        <ele>610.1</ele>
        <time>2021-04-08T11:57:43Z</time>
      </trkpt>
      <trkpt lat="46.73238" lon="5.96648">
        <ele>609.5</ele>
        <time>2021-04-08T11:57:48Z</time>
      </trkpt>
      <trkpt lat="46.73243" lon="5.96648">
        <ele>609.6</ele>
        <time>2021-04-08T11:57:53Z</time>
      </trkpt>
      <trkpt lat="46.73248" lon="5.96652">
        <ele>609.2</ele>
        <time>2021-04-08T11:57:58Z</time>
      </trkpt>
      <trkpt lat="46.73252" lon="5.96653">
        <ele>609</ele>
        <time>2021-04-08T11:58:03Z</time>
      </trkpt>
      <trkpt lat="46.73255" lon="5.9666">
        <ele>609.1</ele>
        <time>2021-04-08T11:58:10Z</time>
      </trkpt>
      <trkpt lat="46.73258" lon="5.96665">
        <ele>609.1</ele>
        <time>2021-04-08T11:58:15Z</time>
      </trkpt>
      <trkpt lat="46.7326" lon="5.96673">
        <ele>609.2</ele>
        <time>2021-04-08T11:58:21Z</time>
      </trkpt>
      <trkpt lat="46.73262" lon="5.9668">
        <ele>609</ele>
        <time>2021-04-08T11:58:25Z</time>
      </trkpt>
      <trkpt lat="46.73264" lon="5.96686">
        <ele>609</ele>
        <time>2021-04-08T11:58:30Z</time>
      </trkpt>
      <trkpt lat="46.73266" lon="5.96693">
        <ele>609.7</ele>
        <time>2021-04-08T11:58:34Z</time>
      </trkpt>
      <trkpt lat="46.73268" lon="5.96702">
        <ele>610.5</ele>
        <time>2021-04-08T11:58:38Z</time>
      </trkpt>
      <trkpt lat="46.7327" lon="5.96711">
        <ele>611</ele>
        <time>2021-04-08T11:58:42Z</time>
      </trkpt>
      <trkpt lat="46.73271" lon="5.96717">
        <ele>611.2</ele>
        <time>2021-04-08T11:58:46Z</time>
      </trkpt>
      <trkpt lat="46.73273" lon="5.96724">
        <ele>611.3</ele>
        <time>2021-04-08T11:58:51Z</time>
      </trkpt>
      <trkpt lat="46.73277" lon="5.9673">
        <ele>611.4</ele>
        <time>2021-04-08T11:58:56Z</time>
      </trkpt>
      <trkpt lat="46.73278" lon="5.96736">
        <ele>611.5</ele>
        <time>2021-04-08T11:59:01Z</time>
      </trkpt>
      <trkpt lat="46.7328" lon="5.96743">
        <ele>611.7</ele>
        <time>2021-04-08T11:59:06Z</time>
      </trkpt>
      <trkpt lat="46.73282" lon="5.9675">
        <ele>612.2</ele>
        <time>2021-04-08T11:59:11Z</time>
      </trkpt>
      <trkpt lat="46.73283" lon="5.96756">
        <ele>612.5</ele>
        <time>2021-04-08T11:59:15Z</time>
      </trkpt>
      <trkpt lat="46.73286" lon="5.96763">
        <ele>612.7</ele>
        <time>2021-04-08T11:59:19Z</time>
      </trkpt>
      <trkpt lat="46.73289" lon="5.96768">
        <ele>612.9</ele>
        <time>2021-04-08T11:59:23Z</time>
      </trkpt>
      <trkpt lat="46.73293" lon="5.96771">
        <ele>613.2</ele>
        <time>2021-04-08T11:59:27Z</time>
      </trkpt>
      <trkpt lat="46.73296" lon="5.96778">
        <ele>613.3</ele>
        <time>2021-04-08T11:59:34Z</time>
      </trkpt>
      <trkpt lat="46.73297" lon="5.96785">
        <ele>612.6</ele>
        <time>2021-04-08T11:59:40Z</time>
      </trkpt>
      <trkpt lat="46.73299" lon="5.96792">
        <ele>612.2</ele>
        <time>2021-04-08T11:59:46Z</time>
      </trkpt>
      <trkpt lat="46.733" lon="5.96799">
        <ele>612.1</ele>
        <time>2021-04-08T11:59:50Z</time>
      </trkpt>
      <trkpt lat="46.73301" lon="5.96806">
        <ele>612</ele>
        <time>2021-04-08T11:59:55Z</time>
      </trkpt>
      <trkpt lat="46.73303" lon="5.96813">
        <ele>612</ele>
        <time>2021-04-08T12:00:00Z</time>
      </trkpt>
      <trkpt lat="46.73305" lon="5.9682">
        <ele>611.5</ele>
        <time>2021-04-08T12:00:06Z</time>
      </trkpt>
      <trkpt lat="46.73305" lon="5.96828">
        <ele>610.8</ele>
        <time>2021-04-08T12:00:11Z</time>
      </trkpt>
      <trkpt lat="46.73306" lon="5.96835">
        <ele>610.2</ele>
        <time>2021-04-08T12:00:15Z</time>
      </trkpt>
      <trkpt lat="46.73305" lon="5.96844">
        <ele>608.9</ele>
        <time>2021-04-08T12:00:19Z</time>
      </trkpt>
      <trkpt lat="46.73306" lon="5.96852">
        <ele>607.9</ele>
        <time>2021-04-08T12:00:23Z</time>
      </trkpt>
      <trkpt lat="46.73309" lon="5.96857">
        <ele>607.1</ele>
        <time>2021-04-08T12:00:27Z</time>
      </trkpt>
      <trkpt lat="46.73312" lon="5.96863">
        <ele>606.5</ele>
        <time>2021-04-08T12:00:31Z</time>
      </trkpt>
      <trkpt lat="46.73317" lon="5.96864">
        <ele>605.6</ele>
        <time>2021-04-08T12:00:39Z</time>
      </trkpt>
      <trkpt lat="46.73321" lon="5.9686">
        <ele>603.5</ele>
        <time>2021-04-08T12:01:18Z</time>
      </trkpt>
      <trkpt lat="46.73326" lon="5.96857">
        <ele>603.7</ele>
        <time>2021-04-08T12:01:25Z</time>
      </trkpt>
      <trkpt lat="46.7333" lon="5.96853">
        <ele>604</ele>
        <time>2021-04-08T12:01:31Z</time>
      </trkpt>
      <trkpt lat="46.73335" lon="5.9685">
        <ele>604.2</ele>
        <time>2021-04-08T12:01:36Z</time>
      </trkpt>
      <trkpt lat="46.73339" lon="5.96845">
        <ele>604.4</ele>
        <time>2021-04-08T12:01:40Z</time>
      </trkpt>
      <trkpt lat="46.73344" lon="5.9684">
        <ele>604.8</ele>
        <time>2021-04-08T12:01:44Z</time>
      </trkpt>
      <trkpt lat="46.73348" lon="5.96836">
        <ele>605.5</ele>
        <time>2021-04-08T12:01:49Z</time>
      </trkpt>
      <trkpt lat="46.73353" lon="5.96832">
        <ele>606.1</ele>
        <time>2021-04-08T12:01:55Z</time>
      </trkpt>
      <trkpt lat="46.73356" lon="5.96828">
        <ele>607.1</ele>
        <time>2021-04-08T12:02:00Z</time>
      </trkpt>
      <trkpt lat="46.73361" lon="5.96824">
        <ele>608.5</ele>
        <time>2021-04-08T12:02:06Z</time>
      </trkpt>
      <trkpt lat="46.73365" lon="5.9682">
        <ele>610.2</ele>
        <time>2021-04-08T12:02:12Z</time>
      </trkpt>
      <trkpt lat="46.73369" lon="5.96815">
        <ele>611.4</ele>
        <time>2021-04-08T12:02:17Z</time>
      </trkpt>
      <trkpt lat="46.73373" lon="5.96811">
        <ele>612.3</ele>
        <time>2021-04-08T12:02:22Z</time>
      </trkpt>
      <trkpt lat="46.73378" lon="5.96807">
        <ele>613</ele>
        <time>2021-04-08T12:02:27Z</time>
      </trkpt>
      <trkpt lat="46.73382" lon="5.96802">
        <ele>613.7</ele>
        <time>2021-04-08T12:02:32Z</time>
      </trkpt>
      <trkpt lat="46.73385" lon="5.96797">
        <ele>614.3</ele>
        <time>2021-04-08T12:02:38Z</time>
      </trkpt>
      <trkpt lat="46.73387" lon="5.9679">
        <ele>614.6</ele>
        <time>2021-04-08T12:02:48Z</time>
      </trkpt>
      <trkpt lat="46.7339" lon="5.96785">
        <ele>614.6</ele>
        <time>2021-04-08T12:02:53Z</time>
      </trkpt>
      <trkpt lat="46.73394" lon="5.9678">
        <ele>614.3</ele>
        <time>2021-04-08T12:02:58Z</time>
      </trkpt>
      <trkpt lat="46.73396" lon="5.96774">
        <ele>614.2</ele>
        <time>2021-04-08T12:03:03Z</time>
      </trkpt>
      <trkpt lat="46.73397" lon="5.96767">
        <ele>615.1</ele>
        <time>2021-04-08T12:03:08Z</time>
      </trkpt>
      <trkpt lat="46.73398" lon="5.96758">
        <ele>616</ele>
        <time>2021-04-08T12:03:12Z</time>
      </trkpt>
      <trkpt lat="46.73396" lon="5.96751">
        <ele>616.9</ele>
        <time>2021-04-08T12:03:17Z</time>
      </trkpt>
      <trkpt lat="46.73393" lon="5.96755">
        <ele>621.2</ele>
        <time>2021-04-08T12:03:42Z</time>
      </trkpt>
      <trkpt lat="46.73395" lon="5.96761">
        <ele>621.3</ele>
        <time>2021-04-08T12:03:53Z</time>
      </trkpt>
      <trkpt lat="46.73398" lon="5.96767">
        <ele>619.7</ele>
        <time>2021-04-08T12:04:07Z</time>
      </trkpt>
      <trkpt lat="46.73397" lon="5.96774">
        <ele>618.3</ele>
        <time>2021-04-08T12:04:12Z</time>
      </trkpt>
      <trkpt lat="46.73397" lon="5.96781">
        <ele>616.4</ele>
        <time>2021-04-08T12:04:18Z</time>
      </trkpt>
      <trkpt lat="46.73401" lon="5.96787">
        <ele>615.1</ele>
        <time>2021-04-08T12:04:25Z</time>
      </trkpt>
      <trkpt lat="46.73404" lon="5.96791">
        <ele>614.3</ele>
        <time>2021-04-08T12:04:31Z</time>
      </trkpt>
      <trkpt lat="46.73408" lon="5.96787">
        <ele>613.6</ele>
        <time>2021-04-08T12:04:36Z</time>
      </trkpt>
      <trkpt lat="46.73412" lon="5.96783">
        <ele>611.7</ele>
        <time>2021-04-08T12:04:45Z</time>
      </trkpt>
      <trkpt lat="46.73418" lon="5.96785">
        <ele>611.4</ele>
        <time>2021-04-08T12:04:59Z</time>
      </trkpt>
      <trkpt lat="46.73423" lon="5.96788">
        <ele>612.2</ele>
        <time>2021-04-08T12:05:05Z</time>
      </trkpt>
      <trkpt lat="46.73427" lon="5.96791">
        <ele>612.7</ele>
        <time>2021-04-08T12:05:09Z</time>
      </trkpt>
      <trkpt lat="46.7343" lon="5.96797">
        <ele>613.3</ele>
        <time>2021-04-08T12:05:14Z</time>
      </trkpt>
      <trkpt lat="46.73432" lon="5.96804">
        <ele>614.2</ele>
        <time>2021-04-08T12:05:19Z</time>
      </trkpt>
      <trkpt lat="46.73433" lon="5.9681">
        <ele>615.2</ele>
        <time>2021-04-08T12:05:24Z</time>
      </trkpt>
      <trkpt lat="46.73435" lon="5.96817">
        <ele>616.7</ele>
        <time>2021-04-08T12:05:33Z</time>
      </trkpt>
      <trkpt lat="46.73437" lon="5.96823">
        <ele>617.6</ele>
        <time>2021-04-08T12:05:39Z</time>
      </trkpt>
      <trkpt lat="46.73441" lon="5.96826">
        <ele>621.3</ele>
        <time>2021-04-08T12:06:13Z</time>
      </trkpt>
      <trkpt lat="46.73445" lon="5.96828">
        <ele>623.3</ele>
        <time>2021-04-08T12:06:28Z</time>
      </trkpt>
      <trkpt lat="46.73448" lon="5.96834">
        <ele>623</ele>
        <time>2021-04-08T12:06:34Z</time>
      </trkpt>
      <trkpt lat="46.73453" lon="5.96837">
        <ele>622.3</ele>
        <time>2021-04-08T12:06:41Z</time>
      </trkpt>
      <trkpt lat="46.73457" lon="5.9684">
        <ele>620.9</ele>
        <time>2021-04-08T12:06:49Z</time>
      </trkpt>
      <trkpt lat="46.73462" lon="5.96842">
        <ele>619.1</ele>
        <time>2021-04-08T12:06:57Z</time>
      </trkpt>
      <trkpt lat="46.73466" lon="5.96842">
        <ele>618.8</ele>
        <time>2021-04-08T12:07:41Z</time>
      </trkpt>
      <trkpt lat="46.73469" lon="5.96848">
        <ele>620.3</ele>
        <time>2021-04-08T12:07:53Z</time>
      </trkpt>
      <trkpt lat="46.73473" lon="5.96849">
        <ele>620.5</ele>
        <time>2021-04-08T12:08:01Z</time>
      </trkpt>
      <trkpt lat="46.73479" lon="5.9685">
        <ele>620.5</ele>
        <time>2021-04-08T12:08:07Z</time>
      </trkpt>
      <trkpt lat="46.73484" lon="5.96849">
        <ele>620.8</ele>
        <time>2021-04-08T12:08:13Z</time>
      </trkpt>
      <trkpt lat="46.73488" lon="5.96847">
        <ele>620.7</ele>
        <time>2021-04-08T12:08:20Z</time>
      </trkpt>
      <trkpt lat="46.73493" lon="5.96847">
        <ele>620.4</ele>
        <time>2021-04-08T12:08:35Z</time>
      </trkpt>
      <trkpt lat="46.73498" lon="5.96848">
        <ele>619.9</ele>
        <time>2021-04-08T12:08:43Z</time>
      </trkpt>
      <trkpt lat="46.73503" lon="5.9685">
        <ele>619.5</ele>
        <time>2021-04-08T12:08:53Z</time>
      </trkpt>
      <trkpt lat="46.73508" lon="5.96853">
        <ele>619.3</ele>
        <time>2021-04-08T12:09:02Z</time>
      </trkpt>
      <trkpt lat="46.73513" lon="5.96855">
        <ele>619.1</ele>
        <time>2021-04-08T12:09:08Z</time>
      </trkpt>
      <trkpt lat="46.73518" lon="5.96857">
        <ele>618.8</ele>
        <time>2021-04-08T12:09:13Z</time>
      </trkpt>
      <trkpt lat="46.73523" lon="5.96857">
        <ele>618.4</ele>
        <time>2021-04-08T12:09:19Z</time>
      </trkpt>
      <trkpt lat="46.73528" lon="5.96857">
        <ele>618.3</ele>
        <time>2021-04-08T12:09:26Z</time>
      </trkpt>
      <trkpt lat="46.73531" lon="5.96863">
        <ele>618.7</ele>
        <time>2021-04-08T12:09:36Z</time>
      </trkpt>
      <trkpt lat="46.73535" lon="5.96866">
        <ele>620.6</ele>
        <time>2021-04-08T12:10:31Z</time>
      </trkpt>
      <trkpt lat="46.73539" lon="5.96868">
        <ele>620.9</ele>
        <time>2021-04-08T12:10:41Z</time>
      </trkpt>
      <trkpt lat="46.73544" lon="5.96867">
        <ele>620.9</ele>
        <time>2021-04-08T12:10:50Z</time>
      </trkpt>
      <trkpt lat="46.73548" lon="5.96863">
        <ele>620.8</ele>
        <time>2021-04-08T12:10:55Z</time>
      </trkpt>
      <trkpt lat="46.73552" lon="5.96862">
        <ele>622.9</ele>
        <time>2021-04-08T12:11:09Z</time>
      </trkpt>
      <trkpt lat="46.73556" lon="5.96867">
        <ele>621.5</ele>
        <time>2021-04-08T12:12:31Z</time>
      </trkpt>
      <trkpt lat="46.73561" lon="5.96866">
        <ele>622.3</ele>
        <time>2021-04-08T12:12:40Z</time>
      </trkpt>
      <trkpt lat="46.73566" lon="5.96864">
        <ele>623</ele>
        <time>2021-04-08T12:12:45Z</time>
      </trkpt>
      <trkpt lat="46.7357" lon="5.96862">
        <ele>623.9</ele>
        <time>2021-04-08T12:12:49Z</time>
      </trkpt>
      <trkpt lat="46.73575" lon="5.96865">
        <ele>626.2</ele>
        <time>2021-04-08T12:12:54Z</time>
      </trkpt>
      <trkpt lat="46.73578" lon="5.9687">
        <ele>629.9</ele>
        <time>2021-04-08T12:13:04Z</time>
      </trkpt>
      <trkpt lat="46.73582" lon="5.96873">
        <ele>631.6</ele>
        <time>2021-04-08T12:13:19Z</time>
      </trkpt>
      <trkpt lat="46.73585" lon="5.96878">
        <ele>632</ele>
        <time>2021-04-08T12:13:26Z</time>
      </trkpt>
      <trkpt lat="46.73587" lon="5.96884">
        <ele>632.2</ele>
        <time>2021-04-08T12:13:32Z</time>
      </trkpt>
      <trkpt lat="46.7359" lon="5.96889">
        <ele>632.9</ele>
        <time>2021-04-08T12:13:41Z</time>
      </trkpt>
      <trkpt lat="46.73595" lon="5.96891">
        <ele>634.1</ele>
        <time>2021-04-08T12:13:48Z</time>
      </trkpt>
      <trkpt lat="46.73599" lon="5.96893">
        <ele>635.7</ele>
        <time>2021-04-08T12:13:55Z</time>
      </trkpt>
      <trkpt lat="46.73605" lon="5.96895">
        <ele>637.3</ele>
        <time>2021-04-08T12:14:12Z</time>
      </trkpt>
      <trkpt lat="46.73609" lon="5.96898">
        <ele>636.3</ele>
        <time>2021-04-08T12:14:20Z</time>
      </trkpt>
      <trkpt lat="46.73611" lon="5.96905">
        <ele>636.4</ele>
        <time>2021-04-08T12:14:27Z</time>
      </trkpt>
      <trkpt lat="46.73616" lon="5.96907">
        <ele>636.4</ele>
        <time>2021-04-08T12:14:33Z</time>
      </trkpt>
      <trkpt lat="46.73621" lon="5.96904">
        <ele>636.8</ele>
        <time>2021-04-08T12:14:40Z</time>
      </trkpt>
      <trkpt lat="46.73626" lon="5.96904">
        <ele>637.6</ele>
        <time>2021-04-08T12:14:52Z</time>
      </trkpt>
      <trkpt lat="46.7363" lon="5.96903">
        <ele>638.3</ele>
        <time>2021-04-08T12:15:00Z</time>
      </trkpt>
      <trkpt lat="46.73636" lon="5.96906">
        <ele>641.1</ele>
        <time>2021-04-08T12:15:30Z</time>
      </trkpt>
      <trkpt lat="46.73636" lon="5.96913">
        <ele>644.5</ele>
        <time>2021-04-08T12:15:36Z</time>
      </trkpt>
      <trkpt lat="46.73633" lon="5.96918">
        <ele>649.5</ele>
        <time>2021-04-08T12:15:54Z</time>
      </trkpt>
      <trkpt lat="46.73638" lon="5.96918">
        <ele>652.5</ele>
        <time>2021-04-08T12:16:17Z</time>
      </trkpt>
      <trkpt lat="46.73643" lon="5.96917">
        <ele>653.9</ele>
        <time>2021-04-08T12:16:21Z</time>
      </trkpt>
      <trkpt lat="46.73647" lon="5.96913">
        <ele>655.4</ele>
        <time>2021-04-08T12:16:32Z</time>
      </trkpt>
      <trkpt lat="46.7365" lon="5.9692">
        <ele>656.3</ele>
        <time>2021-04-08T12:17:01Z</time>
      </trkpt>
      <trkpt lat="46.73651" lon="5.96926">
        <ele>657.7</ele>
        <time>2021-04-08T12:17:06Z</time>
      </trkpt>
      <trkpt lat="46.7365" lon="5.96934">
        <ele>659.4</ele>
        <time>2021-04-08T12:17:13Z</time>
      </trkpt>
      <trkpt lat="46.73649" lon="5.9694">
        <ele>660.7</ele>
        <time>2021-04-08T12:17:19Z</time>
      </trkpt>
      <trkpt lat="46.73652" lon="5.96946">
        <ele>662.5</ele>
        <time>2021-04-08T12:17:30Z</time>
      </trkpt>
      <trkpt lat="46.73657" lon="5.96947">
        <ele>665.4</ele>
        <time>2021-04-08T12:17:59Z</time>
      </trkpt>
      <trkpt lat="46.7366" lon="5.96952">
        <ele>666.3</ele>
        <time>2021-04-08T12:18:08Z</time>
      </trkpt>
      <trkpt lat="46.73663" lon="5.96957">
        <ele>666.6</ele>
        <time>2021-04-08T12:18:15Z</time>
      </trkpt>
      <trkpt lat="46.73666" lon="5.96963">
        <ele>666.7</ele>
        <time>2021-04-08T12:18:21Z</time>
      </trkpt>
      <trkpt lat="46.73669" lon="5.96969">
        <ele>666.8</ele>
        <time>2021-04-08T12:18:29Z</time>
      </trkpt>
      <trkpt lat="46.73674" lon="5.96966">
        <ele>666.7</ele>
        <time>2021-04-08T12:18:36Z</time>
      </trkpt>
      <trkpt lat="46.73678" lon="5.96968">
        <ele>668.5</ele>
        <time>2021-04-08T12:18:59Z</time>
      </trkpt>
      <trkpt lat="46.73679" lon="5.96976">
        <ele>669.1</ele>
        <time>2021-04-08T12:19:46Z</time>
      </trkpt>
      <trkpt lat="46.73679" lon="5.96983">
        <ele>670.3</ele>
        <time>2021-04-08T12:19:54Z</time>
      </trkpt>
      <trkpt lat="46.73684" lon="5.96987">
        <ele>671.1</ele>
        <time>2021-04-08T12:20:02Z</time>
      </trkpt>
      <trkpt lat="46.73688" lon="5.96989">
        <ele>671.8</ele>
        <time>2021-04-08T12:20:06Z</time>
      </trkpt>
      <trkpt lat="46.73692" lon="5.96994">
        <ele>673.6</ele>
        <time>2021-04-08T12:20:10Z</time>
      </trkpt>
      <trkpt lat="46.73697" lon="5.97">
        <ele>676.2</ele>
        <time>2021-04-08T12:20:14Z</time>
      </trkpt>
      <trkpt lat="46.73702" lon="5.97005">
        <ele>678.7</ele>
        <time>2021-04-08T12:20:18Z</time>
      </trkpt>
      <trkpt lat="46.73706" lon="5.97006">
        <ele>681.1</ele>
        <time>2021-04-08T12:20:22Z</time>
      </trkpt>
      <trkpt lat="46.73711" lon="5.97007">
        <ele>682.9</ele>
        <time>2021-04-08T12:20:27Z</time>
      </trkpt>
      <trkpt lat="46.73716" lon="5.97008">
        <ele>683.9</ele>
        <time>2021-04-08T12:20:31Z</time>
      </trkpt>
      <trkpt lat="46.73721" lon="5.9701">
        <ele>684.7</ele>
        <time>2021-04-08T12:20:36Z</time>
      </trkpt>
      <trkpt lat="46.73725" lon="5.97009">
        <ele>684.5</ele>
        <time>2021-04-08T12:20:50Z</time>
      </trkpt>
      <trkpt lat="46.7373" lon="5.9701">
        <ele>683.5</ele>
        <time>2021-04-08T12:20:59Z</time>
      </trkpt>
      <trkpt lat="46.73735" lon="5.97011">
        <ele>681.9</ele>
        <time>2021-04-08T12:21:08Z</time>
      </trkpt>
      <trkpt lat="46.7374" lon="5.97012">
        <ele>681.4</ele>
        <time>2021-04-08T12:21:13Z</time>
      </trkpt>
      <trkpt lat="46.73737" lon="5.97006">
        <ele>675.4</ele>
        <time>2021-04-08T12:22:01Z</time>
      </trkpt>
      <trkpt lat="46.73732" lon="5.97007">
        <ele>675.1</ele>
        <time>2021-04-08T12:23:02Z</time>
      </trkpt>
      <trkpt lat="46.73728" lon="5.97005">
        <ele>675.4</ele>
        <time>2021-04-08T12:23:24Z</time>
      </trkpt>
      <trkpt lat="46.7373" lon="5.97012">
        <ele>676.2</ele>
        <time>2021-04-08T12:23:57Z</time>
      </trkpt>
      <trkpt lat="46.73729" lon="5.97019">
        <ele>677</ele>
        <time>2021-04-08T12:24:02Z</time>
      </trkpt>
      <trkpt lat="46.73726" lon="5.97025">
        <ele>677.9</ele>
        <time>2021-04-08T12:24:07Z</time>
      </trkpt>
      <trkpt lat="46.73725" lon="5.97031">
        <ele>680.5</ele>
        <time>2021-04-08T12:24:16Z</time>
      </trkpt>
      <trkpt lat="46.73724" lon="5.97039">
        <ele>681.6</ele>
        <time>2021-04-08T12:24:30Z</time>
      </trkpt>
      <trkpt lat="46.73721" lon="5.97046">
        <ele>682.9</ele>
        <time>2021-04-08T12:24:34Z</time>
      </trkpt>
      <trkpt lat="46.73718" lon="5.97052">
        <ele>684.6</ele>
        <time>2021-04-08T12:24:41Z</time>
      </trkpt>
      <trkpt lat="46.73716" lon="5.97059">
        <ele>685.6</ele>
        <time>2021-04-08T12:24:45Z</time>
      </trkpt>
      <trkpt lat="46.73713" lon="5.97065">
        <ele>687.9</ele>
        <time>2021-04-08T12:24:52Z</time>
      </trkpt>
      <trkpt lat="46.73709" lon="5.97069">
        <ele>688.3</ele>
        <time>2021-04-08T12:24:57Z</time>
      </trkpt>
      <trkpt lat="46.73705" lon="5.97071">
        <ele>685.4</ele>
        <time>2021-04-08T12:25:06Z</time>
      </trkpt>
      <trkpt lat="46.737" lon="5.97072">
        <ele>681.4</ele>
        <time>2021-04-08T12:25:16Z</time>
      </trkpt>
      <trkpt lat="46.73696" lon="5.97076">
        <ele>679.2</ele>
        <time>2021-04-08T12:25:22Z</time>
      </trkpt>
      <trkpt lat="46.73691" lon="5.97079">
        <ele>678.5</ele>
        <time>2021-04-08T12:25:28Z</time>
      </trkpt>
      <trkpt lat="46.73686" lon="5.97083">
        <ele>678.6</ele>
        <time>2021-04-08T12:25:33Z</time>
      </trkpt>
      <trkpt lat="46.73682" lon="5.97085">
        <ele>678.7</ele>
        <time>2021-04-08T12:25:39Z</time>
      </trkpt>
      <trkpt lat="46.73677" lon="5.97086">
        <ele>677.3</ele>
        <time>2021-04-08T12:25:44Z</time>
      </trkpt>
      <trkpt lat="46.73672" lon="5.97085">
        <ele>674.6</ele>
        <time>2021-04-08T12:25:49Z</time>
      </trkpt>
      <trkpt lat="46.73667" lon="5.97085">
        <ele>671</ele>
        <time>2021-04-08T12:25:55Z</time>
      </trkpt>
      <trkpt lat="46.73663" lon="5.97085">
        <ele>668.8</ele>
        <time>2021-04-08T12:26:00Z</time>
      </trkpt>
      <trkpt lat="46.73658" lon="5.97085">
        <ele>667.2</ele>
        <time>2021-04-08T12:26:06Z</time>
      </trkpt>
      <trkpt lat="46.73653" lon="5.97083">
        <ele>666.5</ele>
        <time>2021-04-08T12:26:13Z</time>
      </trkpt>
      <trkpt lat="46.73648" lon="5.97082">
        <ele>666.1</ele>
        <time>2021-04-08T12:26:19Z</time>
      </trkpt>
      <trkpt lat="46.73643" lon="5.9708">
        <ele>666.3</ele>
        <time>2021-04-08T12:26:25Z</time>
      </trkpt>
      <trkpt lat="46.73639" lon="5.9708">
        <ele>666.6</ele>
        <time>2021-04-08T12:26:32Z</time>
      </trkpt>
      <trkpt lat="46.73635" lon="5.97084">
        <ele>667.2</ele>
        <time>2021-04-08T12:26:42Z</time>
      </trkpt>
      <trkpt lat="46.7363" lon="5.97087">
        <ele>667.4</ele>
        <time>2021-04-08T12:26:48Z</time>
      </trkpt>
      <trkpt lat="46.73625" lon="5.9709">
        <ele>667.4</ele>
        <time>2021-04-08T12:26:52Z</time>
      </trkpt>
      <trkpt lat="46.73621" lon="5.97095">
        <ele>667.1</ele>
        <time>2021-04-08T12:26:56Z</time>
      </trkpt>
      <trkpt lat="46.73617" lon="5.97095">
        <ele>666.5</ele>
        <time>2021-04-08T12:27:08Z</time>
      </trkpt>
      <trkpt lat="46.73612" lon="5.97098">
        <ele>666</ele>
        <time>2021-04-08T12:27:12Z</time>
      </trkpt>
      <trkpt lat="46.73607" lon="5.97102">
        <ele>665.5</ele>
        <time>2021-04-08T12:27:16Z</time>
      </trkpt>
      <trkpt lat="46.73603" lon="5.97106">
        <ele>665.3</ele>
        <time>2021-04-08T12:27:20Z</time>
      </trkpt>
      <trkpt lat="46.73598" lon="5.97108">
        <ele>664.8</ele>
        <time>2021-04-08T12:27:27Z</time>
      </trkpt>
      <trkpt lat="46.73594" lon="5.97111">
        <ele>663.5</ele>
        <time>2021-04-08T12:27:32Z</time>
      </trkpt>
      <trkpt lat="46.7359" lon="5.97115">
        <ele>662.8</ele>
        <time>2021-04-08T12:27:36Z</time>
      </trkpt>
      <trkpt lat="46.73585" lon="5.97119">
        <ele>662.2</ele>
        <time>2021-04-08T12:27:41Z</time>
      </trkpt>
      <trkpt lat="46.7358" lon="5.97117">
        <ele>661.4</ele>
        <time>2021-04-08T12:27:46Z</time>
      </trkpt>
      <trkpt lat="46.73576" lon="5.97113">
        <ele>659.4</ele>
        <time>2021-04-08T12:27:53Z</time>
      </trkpt>
      <trkpt lat="46.73572" lon="5.97111">
        <ele>659</ele>
        <time>2021-04-08T12:28:02Z</time>
      </trkpt>
      <trkpt lat="46.73567" lon="5.97109">
        <ele>658.7</ele>
        <time>2021-04-08T12:28:08Z</time>
      </trkpt>
      <trkpt lat="46.73564" lon="5.97114">
        <ele>656.7</ele>
        <time>2021-04-08T12:28:29Z</time>
      </trkpt>
      <trkpt lat="46.73562" lon="5.9712">
        <ele>657</ele>
        <time>2021-04-08T12:28:38Z</time>
      </trkpt>
      <trkpt lat="46.7356" lon="5.97114">
        <ele>655.3</ele>
        <time>2021-04-08T12:28:58Z</time>
      </trkpt>
      <trkpt lat="46.73555" lon="5.97114">
        <ele>654.4</ele>
        <time>2021-04-08T12:29:11Z</time>
      </trkpt>
      <trkpt lat="46.7356" lon="5.97114">
        <ele>651.6</ele>
        <time>2021-04-08T12:29:38Z</time>
      </trkpt>
      <trkpt lat="46.73565" lon="5.97114">
        <ele>650.7</ele>
        <time>2021-04-08T12:29:42Z</time>
      </trkpt>
      <trkpt lat="46.73568" lon="5.9712">
        <ele>649.9</ele>
        <time>2021-04-08T12:29:46Z</time>
      </trkpt>
      <trkpt lat="46.73564" lon="5.97117">
        <ele>650.3</ele>
        <time>2021-04-08T12:30:04Z</time>
      </trkpt>
      <trkpt lat="46.73562" lon="5.97123">
        <ele>651.9</ele>
        <time>2021-04-08T12:30:13Z</time>
      </trkpt>
      <trkpt lat="46.73559" lon="5.97129">
        <ele>652.9</ele>
        <time>2021-04-08T12:30:20Z</time>
      </trkpt>
      <trkpt lat="46.73555" lon="5.97131">
        <ele>653.5</ele>
        <time>2021-04-08T12:30:31Z</time>
      </trkpt>
      <trkpt lat="46.7355" lon="5.97134">
        <ele>653.3</ele>
        <time>2021-04-08T12:30:35Z</time>
      </trkpt>
      <trkpt lat="46.73547" lon="5.9714">
        <ele>652.7</ele>
        <time>2021-04-08T12:30:42Z</time>
      </trkpt>
      <trkpt lat="46.73551" lon="5.97144">
        <ele>651</ele>
        <time>2021-04-08T12:30:55Z</time>
      </trkpt>
      <trkpt lat="46.73552" lon="5.97151">
        <ele>649.5</ele>
        <time>2021-04-08T12:31:04Z</time>
      </trkpt>
      <trkpt lat="46.7355" lon="5.97158">
        <ele>648.8</ele>
        <time>2021-04-08T12:31:10Z</time>
      </trkpt>
      <trkpt lat="46.73548" lon="5.97164">
        <ele>648</ele>
        <time>2021-04-08T12:31:14Z</time>
      </trkpt>
      <trkpt lat="46.73545" lon="5.9717">
        <ele>645.2</ele>
        <time>2021-04-08T12:31:21Z</time>
      </trkpt>
      <trkpt lat="46.73549" lon="5.97175">
        <ele>643</ele>
        <time>2021-04-08T12:31:27Z</time>
      </trkpt>
      <trkpt lat="46.73549" lon="5.97182">
        <ele>640.5</ele>
        <time>2021-04-08T12:31:37Z</time>
      </trkpt>
      <trkpt lat="46.73547" lon="5.97189">
        <ele>639.9</ele>
        <time>2021-04-08T12:31:42Z</time>
      </trkpt>
      <trkpt lat="46.73546" lon="5.97196">
        <ele>639.4</ele>
        <time>2021-04-08T12:31:46Z</time>
      </trkpt>
      <trkpt lat="46.73548" lon="5.97205">
        <ele>640.4</ele>
        <time>2021-04-08T12:31:50Z</time>
      </trkpt>
      <trkpt lat="46.7355" lon="5.97215">
        <ele>642.7</ele>
        <time>2021-04-08T12:31:54Z</time>
      </trkpt>
      <trkpt lat="46.73548" lon="5.97221">
        <ele>644.5</ele>
        <time>2021-04-08T12:32:00Z</time>
      </trkpt>
      <trkpt lat="46.73545" lon="5.97227">
        <ele>645.6</ele>
        <time>2021-04-08T12:32:07Z</time>
      </trkpt>
      <trkpt lat="46.73541" lon="5.97233">
        <ele>645.8</ele>
        <time>2021-04-08T12:32:12Z</time>
      </trkpt>
      <trkpt lat="46.73538" lon="5.97238">
        <ele>645.8</ele>
        <time>2021-04-08T12:32:17Z</time>
      </trkpt>
      <trkpt lat="46.73537" lon="5.97245">
        <ele>645.9</ele>
        <time>2021-04-08T12:32:22Z</time>
      </trkpt>
      <trkpt lat="46.73538" lon="5.97251">
        <ele>645.8</ele>
        <time>2021-04-08T12:32:29Z</time>
      </trkpt>
      <trkpt lat="46.73537" lon="5.97258">
        <ele>645.8</ele>
        <time>2021-04-08T12:32:36Z</time>
      </trkpt>
      <trkpt lat="46.73536" lon="5.97265">
        <ele>646.2</ele>
        <time>2021-04-08T12:32:42Z</time>
      </trkpt>
      <trkpt lat="46.73537" lon="5.97272">
        <ele>647</ele>
        <time>2021-04-08T12:32:50Z</time>
      </trkpt>
      <trkpt lat="46.73537" lon="5.97279">
        <ele>647.8</ele>
        <time>2021-04-08T12:33:01Z</time>
      </trkpt>
      <trkpt lat="46.7354" lon="5.97285">
        <ele>648</ele>
        <time>2021-04-08T12:33:12Z</time>
      </trkpt>
      <trkpt lat="46.73542" lon="5.97291">
        <ele>647.9</ele>
        <time>2021-04-08T12:33:21Z</time>
      </trkpt>
      <trkpt lat="46.73544" lon="5.97297">
        <ele>647.9</ele>
        <time>2021-04-08T12:33:33Z</time>
      </trkpt>
      <trkpt lat="46.73549" lon="5.97299">
        <ele>648</ele>
        <time>2021-04-08T12:33:40Z</time>
      </trkpt>
      <trkpt lat="46.73554" lon="5.97298">
        <ele>647.9</ele>
        <time>2021-04-08T12:33:46Z</time>
      </trkpt>
      <trkpt lat="46.73556" lon="5.97304">
        <ele>647.5</ele>
        <time>2021-04-08T12:33:55Z</time>
      </trkpt>
      <trkpt lat="46.73557" lon="5.97312">
        <ele>647.3</ele>
        <time>2021-04-08T12:34:00Z</time>
      </trkpt>
      <trkpt lat="46.7356" lon="5.97317">
        <ele>646.9</ele>
        <time>2021-04-08T12:34:09Z</time>
      </trkpt>
      <trkpt lat="46.73562" lon="5.97324">
        <ele>646.3</ele>
        <time>2021-04-08T12:34:17Z</time>
      </trkpt>
      <trkpt lat="46.73563" lon="5.97331">
        <ele>645.8</ele>
        <time>2021-04-08T12:34:22Z</time>
      </trkpt>
      <trkpt lat="46.73563" lon="5.97338">
        <ele>645.6</ele>
        <time>2021-04-08T12:34:27Z</time>
      </trkpt>
      <trkpt lat="46.73561" lon="5.97345">
        <ele>645.4</ele>
        <time>2021-04-08T12:34:32Z</time>
      </trkpt>
      <trkpt lat="46.73559" lon="5.97351">
        <ele>645.1</ele>
        <time>2021-04-08T12:34:37Z</time>
      </trkpt>
      <trkpt lat="46.73558" lon="5.97357">
        <ele>644.6</ele>
        <time>2021-04-08T12:34:44Z</time>
      </trkpt>
      <trkpt lat="46.73557" lon="5.97364">
        <ele>644.3</ele>
        <time>2021-04-08T12:34:54Z</time>
      </trkpt>
      <trkpt lat="46.73559" lon="5.97372">
        <ele>643.8</ele>
        <time>2021-04-08T12:35:00Z</time>
      </trkpt>
      <trkpt lat="46.73562" lon="5.97377">
        <ele>643.4</ele>
        <time>2021-04-08T12:35:05Z</time>
      </trkpt>
      <trkpt lat="46.73567" lon="5.97378">
        <ele>642.6</ele>
        <time>2021-04-08T12:35:13Z</time>
      </trkpt>
      <trkpt lat="46.73564" lon="5.97384">
        <ele>641.9</ele>
        <time>2021-04-08T12:35:32Z</time>
      </trkpt>
      <trkpt lat="46.73561" lon="5.97389">
        <ele>642.2</ele>
        <time>2021-04-08T12:35:40Z</time>
      </trkpt>
      <trkpt lat="46.7356" lon="5.97396">
        <ele>641.6</ele>
        <time>2021-04-08T12:35:46Z</time>
      </trkpt>
      <trkpt lat="46.73563" lon="5.97401">
        <ele>640.1</ele>
        <time>2021-04-08T12:35:53Z</time>
      </trkpt>
      <trkpt lat="46.73566" lon="5.97407">
        <ele>638.3</ele>
        <time>2021-04-08T12:36:00Z</time>
      </trkpt>
      <trkpt lat="46.73568" lon="5.97414">
        <ele>636.9</ele>
        <time>2021-04-08T12:36:04Z</time>
      </trkpt>
      <trkpt lat="46.73571" lon="5.9742">
        <ele>635.8</ele>
        <time>2021-04-08T12:36:09Z</time>
      </trkpt>
      <trkpt lat="46.73573" lon="5.97425">
        <ele>635.1</ele>
        <time>2021-04-08T12:36:16Z</time>
      </trkpt>
      <trkpt lat="46.73576" lon="5.97432">
        <ele>635.4</ele>
        <time>2021-04-08T12:36:23Z</time>
      </trkpt>
      <trkpt lat="46.73578" lon="5.97438">
        <ele>636.6</ele>
        <time>2021-04-08T12:36:29Z</time>
      </trkpt>
      <trkpt lat="46.73581" lon="5.97443">
        <ele>637.9</ele>
        <time>2021-04-08T12:36:54Z</time>
      </trkpt>
      <trkpt lat="46.73586" lon="5.97443">
        <ele>638.1</ele>
        <time>2021-04-08T12:37:00Z</time>
      </trkpt>
      <trkpt lat="46.73591" lon="5.97445">
        <ele>637.8</ele>
        <time>2021-04-08T12:37:07Z</time>
      </trkpt>
      <trkpt lat="46.73596" lon="5.97447">
        <ele>637.3</ele>
        <time>2021-04-08T12:37:13Z</time>
      </trkpt>
      <trkpt lat="46.73602" lon="5.97448">
        <ele>637.2</ele>
        <time>2021-04-08T12:37:18Z</time>
      </trkpt>
      <trkpt lat="46.73605" lon="5.97453">
        <ele>637.3</ele>
        <time>2021-04-08T12:37:26Z</time>
      </trkpt>
      <trkpt lat="46.73607" lon="5.9746">
        <ele>637.8</ele>
        <time>2021-04-08T12:37:34Z</time>
      </trkpt>
      <trkpt lat="46.73611" lon="5.97457">
        <ele>640</ele>
        <time>2021-04-08T12:37:45Z</time>
      </trkpt>
      <trkpt lat="46.73616" lon="5.97451">
        <ele>642.7</ele>
        <time>2021-04-08T12:38:04Z</time>
      </trkpt>
      <trkpt lat="46.73612" lon="5.97449">
        <ele>647.6</ele>
        <time>2021-04-08T12:38:21Z</time>
      </trkpt>
      <trkpt lat="46.73613" lon="5.97455">
        <ele>646</ele>
        <time>2021-04-08T12:38:52Z</time>
      </trkpt>
      <trkpt lat="46.73618" lon="5.97457">
        <ele>645.4</ele>
        <time>2021-04-08T12:38:58Z</time>
      </trkpt>
      <trkpt lat="46.73623" lon="5.97457">
        <ele>645</ele>
        <time>2021-04-08T12:39:07Z</time>
      </trkpt>
      <trkpt lat="46.73628" lon="5.97454">
        <ele>645.6</ele>
        <time>2021-04-08T12:39:19Z</time>
      </trkpt>
      <trkpt lat="46.73633" lon="5.97455">
        <ele>646</ele>
        <time>2021-04-08T12:39:27Z</time>
      </trkpt>
      <trkpt lat="46.73638" lon="5.97455">
        <ele>645.7</ele>
        <time>2021-04-08T12:39:33Z</time>
      </trkpt>
      <trkpt lat="46.73639" lon="5.97449">
        <ele>646.6</ele>
        <time>2021-04-08T12:39:46Z</time>
      </trkpt>
      <trkpt lat="46.73644" lon="5.97449">
        <ele>647.2</ele>
        <time>2021-04-08T12:40:50Z</time>
      </trkpt>
      <trkpt lat="46.73649" lon="5.97445">
        <ele>648.8</ele>
        <time>2021-04-08T12:40:58Z</time>
      </trkpt>
      <trkpt lat="46.73652" lon="5.97439">
        <ele>650.2</ele>
        <time>2021-04-08T12:41:14Z</time>
      </trkpt>
      <trkpt lat="46.73655" lon="5.97433">
        <ele>649.9</ele>
        <time>2021-04-08T12:41:20Z</time>
      </trkpt>
      <trkpt lat="46.73655" lon="5.97426">
        <ele>654</ele>
        <time>2021-04-08T12:41:43Z</time>
      </trkpt>
      <trkpt lat="46.73657" lon="5.9742">
        <ele>654.9</ele>
        <time>2021-04-08T12:41:51Z</time>
      </trkpt>
      <trkpt lat="46.7366" lon="5.97425">
        <ele>660</ele>
        <time>2021-04-08T12:43:20Z</time>
      </trkpt>
      <trkpt lat="46.7366" lon="5.97419">
        <ele>661.8</ele>
        <time>2021-04-08T12:43:34Z</time>
      </trkpt>
      <trkpt lat="46.73665" lon="5.97418">
        <ele>661.3</ele>
        <time>2021-04-08T12:43:49Z</time>
      </trkpt>
      <trkpt lat="46.7367" lon="5.97415">
        <ele>661.4</ele>
        <time>2021-04-08T12:43:57Z</time>
      </trkpt>
      <trkpt lat="46.73673" lon="5.9741">
        <ele>661.6</ele>
        <time>2021-04-08T12:44:04Z</time>
      </trkpt>
      <trkpt lat="46.73677" lon="5.97406">
        <ele>668.8</ele>
        <time>2021-04-08T12:46:28Z</time>
      </trkpt>
      <trkpt lat="46.73681" lon="5.97403">
        <ele>669.9</ele>
        <time>2021-04-08T12:46:33Z</time>
      </trkpt>
      <trkpt lat="46.73684" lon="5.97398">
        <ele>670.6</ele>
        <time>2021-04-08T12:46:45Z</time>
      </trkpt>
      <trkpt lat="46.7369" lon="5.97398">
        <ele>672</ele>
        <time>2021-04-08T12:47:05Z</time>
      </trkpt>
      <trkpt lat="46.73696" lon="5.97395">
        <ele>672.3</ele>
        <time>2021-04-08T12:47:09Z</time>
      </trkpt>
      <trkpt lat="46.737" lon="5.97393">
        <ele>672.5</ele>
        <time>2021-04-08T12:47:17Z</time>
      </trkpt>
      <trkpt lat="46.73704" lon="5.97387">
        <ele>674.3</ele>
        <time>2021-04-08T12:47:47Z</time>
      </trkpt>
      <trkpt lat="46.73706" lon="5.97381">
        <ele>674.9</ele>
        <time>2021-04-08T12:48:00Z</time>
      </trkpt>
      <trkpt lat="46.73708" lon="5.97375">
        <ele>675.2</ele>
        <time>2021-04-08T12:48:08Z</time>
      </trkpt>
      <trkpt lat="46.73713" lon="5.97378">
        <ele>674.8</ele>
        <time>2021-04-08T12:48:21Z</time>
      </trkpt>
      <trkpt lat="46.73717" lon="5.97377">
        <ele>674.3</ele>
        <time>2021-04-08T12:48:27Z</time>
      </trkpt>
      <trkpt lat="46.7372" lon="5.97371">
        <ele>673.7</ele>
        <time>2021-04-08T12:48:33Z</time>
      </trkpt>
      <trkpt lat="46.73723" lon="5.97365">
        <ele>673.1</ele>
        <time>2021-04-08T12:48:39Z</time>
      </trkpt>
      <trkpt lat="46.73725" lon="5.97359">
        <ele>672.4</ele>
        <time>2021-04-08T12:48:45Z</time>
      </trkpt>
      <trkpt lat="46.73729" lon="5.97353">
        <ele>671.6</ele>
        <time>2021-04-08T12:48:51Z</time>
      </trkpt>
      <trkpt lat="46.73734" lon="5.97351">
        <ele>670.4</ele>
        <time>2021-04-08T12:49:12Z</time>
      </trkpt>
      <trkpt lat="46.73738" lon="5.9735">
        <ele>670.7</ele>
        <time>2021-04-08T12:49:18Z</time>
      </trkpt>
      <trkpt lat="46.73742" lon="5.97347">
        <ele>671.5</ele>
        <time>2021-04-08T12:49:27Z</time>
      </trkpt>
      <trkpt lat="46.73744" lon="5.97341">
        <ele>673.1</ele>
        <time>2021-04-08T12:49:37Z</time>
      </trkpt>
      <trkpt lat="46.73745" lon="5.97334">
        <ele>674.4</ele>
        <time>2021-04-08T12:49:48Z</time>
      </trkpt>
      <trkpt lat="46.73749" lon="5.97329">
        <ele>675.3</ele>
        <time>2021-04-08T12:49:55Z</time>
      </trkpt>
      <trkpt lat="46.73753" lon="5.97329">
        <ele>677.3</ele>
        <time>2021-04-08T12:50:05Z</time>
      </trkpt>
      <trkpt lat="46.73755" lon="5.97323">
        <ele>678.9</ele>
        <time>2021-04-08T12:50:23Z</time>
      </trkpt>
      <trkpt lat="46.7376" lon="5.97322">
        <ele>677.8</ele>
        <time>2021-04-08T12:50:33Z</time>
      </trkpt>
      <trkpt lat="46.73764" lon="5.97325">
        <ele>676</ele>
        <time>2021-04-08T12:50:44Z</time>
      </trkpt>
      <trkpt lat="46.73768" lon="5.97328">
        <ele>675.9</ele>
        <time>2021-04-08T12:50:54Z</time>
      </trkpt>
      <trkpt lat="46.73773" lon="5.97326">
        <ele>676.8</ele>
        <time>2021-04-08T12:50:59Z</time>
      </trkpt>
      <trkpt lat="46.73777" lon="5.9733">
        <ele>679.8</ele>
        <time>2021-04-08T12:51:11Z</time>
      </trkpt>
      <trkpt lat="46.73782" lon="5.97329">
        <ele>680.9</ele>
        <time>2021-04-08T12:51:17Z</time>
      </trkpt>
      <trkpt lat="46.73786" lon="5.97329">
        <ele>689.8</ele>
        <time>2021-04-08T12:53:47Z</time>
      </trkpt>
      <trkpt lat="46.7379" lon="5.97325">
        <ele>688.6</ele>
        <time>2021-04-08T12:53:58Z</time>
      </trkpt>
      <trkpt lat="46.73794" lon="5.97323">
        <ele>687.7</ele>
        <time>2021-04-08T12:54:07Z</time>
      </trkpt>
      <trkpt lat="46.73799" lon="5.97322">
        <ele>687.1</ele>
        <time>2021-04-08T12:54:15Z</time>
      </trkpt>
      <trkpt lat="46.73804" lon="5.97322">
        <ele>686.5</ele>
        <time>2021-04-08T12:54:23Z</time>
      </trkpt>
      <trkpt lat="46.73807" lon="5.97316">
        <ele>685.9</ele>
        <time>2021-04-08T12:54:32Z</time>
      </trkpt>
      <trkpt lat="46.73808" lon="5.9731">
        <ele>685.5</ele>
        <time>2021-04-08T12:54:39Z</time>
      </trkpt>
      <trkpt lat="46.73809" lon="5.97303">
        <ele>685.5</ele>
        <time>2021-04-08T12:54:50Z</time>
      </trkpt>
      <trkpt lat="46.73813" lon="5.97298">
        <ele>685.7</ele>
        <time>2021-04-08T12:55:03Z</time>
      </trkpt>
      <trkpt lat="46.73815" lon="5.97292">
        <ele>685.9</ele>
        <time>2021-04-08T12:55:10Z</time>
      </trkpt>
      <trkpt lat="46.73819" lon="5.97288">
        <ele>683.8</ele>
        <time>2021-04-08T12:55:34Z</time>
      </trkpt>
      <trkpt lat="46.73816" lon="5.97283">
        <ele>681</ele>
        <time>2021-04-08T12:55:52Z</time>
      </trkpt>
      <trkpt lat="46.73811" lon="5.97283">
        <ele>687.2</ele>
        <time>2021-04-08T12:56:00Z</time>
      </trkpt>
      <trkpt lat="46.73807" lon="5.97283">
        <ele>695.3</ele>
        <time>2021-04-08T12:56:10Z</time>
      </trkpt>
      <trkpt lat="46.73803" lon="5.97279">
        <ele>704.5</ele>
        <time>2021-04-08T12:56:23Z</time>
      </trkpt>
      <trkpt lat="46.73808" lon="5.97279">
        <ele>707</ele>
        <time>2021-04-08T12:56:49Z</time>
      </trkpt>
      <trkpt lat="46.73813" lon="5.97278">
        <ele>707.2</ele>
        <time>2021-04-08T12:56:55Z</time>
      </trkpt>
      <trkpt lat="46.73817" lon="5.97275">
        <ele>706.7</ele>
        <time>2021-04-08T12:57:12Z</time>
      </trkpt>
      <trkpt lat="46.73822" lon="5.97278">
        <ele>705.6</ele>
        <time>2021-04-08T12:57:47Z</time>
      </trkpt>
      <trkpt lat="46.73825" lon="5.97271">
        <ele>705.3</ele>
        <time>2021-04-08T12:59:05Z</time>
      </trkpt>
      <trkpt lat="46.73827" lon="5.97264">
        <ele>704.3</ele>
        <time>2021-04-08T12:59:22Z</time>
      </trkpt>
      <trkpt lat="46.73829" lon="5.97258">
        <ele>704.1</ele>
        <time>2021-04-08T12:59:30Z</time>
      </trkpt>
      <trkpt lat="46.73828" lon="5.97251">
        <ele>704.1</ele>
        <time>2021-04-08T12:59:41Z</time>
      </trkpt>
      <trkpt lat="46.73826" lon="5.97244">
        <ele>704.6</ele>
        <time>2021-04-08T12:59:51Z</time>
      </trkpt>
      <trkpt lat="46.73824" lon="5.97238">
        <ele>705</ele>
        <time>2021-04-08T13:00:03Z</time>
      </trkpt>
      <trkpt lat="46.73825" lon="5.97232">
        <ele>705</ele>
        <time>2021-04-08T13:00:09Z</time>
      </trkpt>
      <trkpt lat="46.73826" lon="5.97224">
        <ele>704</ele>
        <time>2021-04-08T13:00:18Z</time>
      </trkpt>
      <trkpt lat="46.73824" lon="5.97218">
        <ele>703.4</ele>
        <time>2021-04-08T13:00:28Z</time>
      </trkpt>
      <trkpt lat="46.73823" lon="5.97208">
        <ele>702</ele>
        <time>2021-04-08T13:02:17Z</time>
      </trkpt>
      <trkpt lat="46.73823" lon="5.97201">
        <ele>702.2</ele>
        <time>2021-04-08T13:02:22Z</time>
      </trkpt>
      <trkpt lat="46.73827" lon="5.97198">
        <ele>702.6</ele>
        <time>2021-04-08T13:02:36Z</time>
      </trkpt>
      <trkpt lat="46.73832" lon="5.97192">
        <ele>703.8</ele>
        <time>2021-04-08T13:03:31Z</time>
      </trkpt>
      <trkpt lat="46.73835" lon="5.97187">
        <ele>704.3</ele>
        <time>2021-04-08T13:04:01Z</time>
      </trkpt>
      <trkpt lat="46.73838" lon="5.97182">
        <ele>701.5</ele>
        <time>2021-04-08T13:04:08Z</time>
      </trkpt>
      <trkpt lat="46.73834" lon="5.97184">
        <ele>699.2</ele>
        <time>2021-04-08T13:04:28Z</time>
      </trkpt>
      <trkpt lat="46.7384" lon="5.97183">
        <ele>699.1</ele>
        <time>2021-04-08T13:04:41Z</time>
      </trkpt>
      <trkpt lat="46.73844" lon="5.97183">
        <ele>698.4</ele>
        <time>2021-04-08T13:04:45Z</time>
      </trkpt>
      <trkpt lat="46.7384" lon="5.97181">
        <ele>697.3</ele>
        <time>2021-04-08T13:04:53Z</time>
      </trkpt>
      <trkpt lat="46.73843" lon="5.97177">
        <ele>694.9</ele>
        <time>2021-04-08T13:05:06Z</time>
      </trkpt>
      <trkpt lat="46.7385" lon="5.97177">
        <ele>695</ele>
        <time>2021-04-08T13:05:10Z</time>
      </trkpt>
      <trkpt lat="46.73858" lon="5.97174">
        <ele>695</ele>
        <time>2021-04-08T13:05:19Z</time>
      </trkpt>
      <trkpt lat="46.73863" lon="5.97171">
        <ele>694.2</ele>
        <time>2021-04-08T13:05:23Z</time>
      </trkpt>
      <trkpt lat="46.73869" lon="5.97168">
        <ele>693.3</ele>
        <time>2021-04-08T13:05:27Z</time>
      </trkpt>
      <trkpt lat="46.73869" lon="5.97175">
        <ele>691.9</ele>
        <time>2021-04-08T13:05:49Z</time>
      </trkpt>
      <trkpt lat="46.73865" lon="5.97172">
        <ele>692</ele>
        <time>2021-04-08T13:06:08Z</time>
      </trkpt>
      <trkpt lat="46.73861" lon="5.97168">
        <ele>692.9</ele>
        <time>2021-04-08T13:06:15Z</time>
      </trkpt>
      <trkpt lat="46.73851" lon="5.97165">
        <ele>693.4</ele>
        <time>2021-04-08T13:06:19Z</time>
      </trkpt>
      <trkpt lat="46.73846" lon="5.97164">
        <ele>693.6</ele>
        <time>2021-04-08T13:06:23Z</time>
      </trkpt>
      <trkpt lat="46.73851" lon="5.97164">
        <ele>693.5</ele>
        <time>2021-04-08T13:06:30Z</time>
      </trkpt>
      <trkpt lat="46.73856" lon="5.97161">
        <ele>693</ele>
        <time>2021-04-08T13:06:34Z</time>
      </trkpt>
      <trkpt lat="46.7386" lon="5.97157">
        <ele>692.4</ele>
        <time>2021-04-08T13:06:42Z</time>
      </trkpt>
      <trkpt lat="46.73865" lon="5.97156">
        <ele>691.3</ele>
        <time>2021-04-08T13:06:48Z</time>
      </trkpt>
      <trkpt lat="46.7386" lon="5.97154">
        <ele>689.5</ele>
        <time>2021-04-08T13:06:57Z</time>
      </trkpt>
      <trkpt lat="46.73869" lon="5.97153">
        <ele>687.8</ele>
        <time>2021-04-08T13:07:01Z</time>
      </trkpt>
      <trkpt lat="46.73864" lon="5.9715">
        <ele>683.8</ele>
        <time>2021-04-08T13:07:15Z</time>
      </trkpt>
      <trkpt lat="46.73859" lon="5.97152">
        <ele>682.3</ele>
        <time>2021-04-08T13:07:21Z</time>
      </trkpt>
      <trkpt lat="46.73854" lon="5.97153">
        <ele>681.6</ele>
        <time>2021-04-08T13:07:26Z</time>
      </trkpt>
      <trkpt lat="46.7385" lon="5.97155">
        <ele>681.3</ele>
        <time>2021-04-08T13:07:34Z</time>
      </trkpt>
      <trkpt lat="46.73854" lon="5.97153">
        <ele>682</ele>
        <time>2021-04-08T13:07:43Z</time>
      </trkpt>
      <trkpt lat="46.73859" lon="5.97152">
        <ele>684</ele>
        <time>2021-04-08T13:07:55Z</time>
      </trkpt>
      <trkpt lat="46.73853" lon="5.97153">
        <ele>684.2</ele>
        <time>2021-04-08T13:08:20Z</time>
      </trkpt>
      <trkpt lat="46.73854" lon="5.97146">
        <ele>683.4</ele>
        <time>2021-04-08T13:08:33Z</time>
      </trkpt>
      <trkpt lat="46.73858" lon="5.97143">
        <ele>682.7</ele>
        <time>2021-04-08T13:08:37Z</time>
      </trkpt>
      <trkpt lat="46.73854" lon="5.97141">
        <ele>686</ele>
        <time>2021-04-08T13:09:19Z</time>
      </trkpt>
      <trkpt lat="46.73853" lon="5.97135">
        <ele>689.7</ele>
        <time>2021-04-08T13:09:38Z</time>
      </trkpt>
      <trkpt lat="46.73856" lon="5.97129">
        <ele>690.2</ele>
        <time>2021-04-08T13:09:49Z</time>
      </trkpt>
      <trkpt lat="46.73857" lon="5.97122">
        <ele>690.1</ele>
        <time>2021-04-08T13:09:57Z</time>
      </trkpt>
      <trkpt lat="46.73858" lon="5.97114">
        <ele>691.4</ele>
        <time>2021-04-08T13:10:08Z</time>
      </trkpt>
      <trkpt lat="46.73859" lon="5.97107">
        <ele>692.2</ele>
        <time>2021-04-08T13:10:12Z</time>
      </trkpt>
      <trkpt lat="46.73857" lon="5.971">
        <ele>693</ele>
        <time>2021-04-08T13:10:54Z</time>
      </trkpt>
      <trkpt lat="46.73859" lon="5.97094">
        <ele>689.8</ele>
        <time>2021-04-08T13:11:10Z</time>
      </trkpt>
      <trkpt lat="46.73864" lon="5.97093">
        <ele>692.2</ele>
        <time>2021-04-08T13:11:40Z</time>
      </trkpt>
      <trkpt lat="46.73865" lon="5.97086">
        <ele>693.6</ele>
        <time>2021-04-08T13:11:48Z</time>
      </trkpt>
      <trkpt lat="46.73861" lon="5.97083">
        <ele>689.2</ele>
        <time>2021-04-08T13:12:11Z</time>
      </trkpt>
      <trkpt lat="46.73856" lon="5.97086">
        <ele>687.7</ele>
        <time>2021-04-08T13:12:26Z</time>
      </trkpt>
      <trkpt lat="46.7386" lon="5.97083">
        <ele>689.1</ele>
        <time>2021-04-08T13:12:38Z</time>
      </trkpt>
      <trkpt lat="46.73864" lon="5.97083">
        <ele>691.5</ele>
        <time>2021-04-08T13:12:51Z</time>
      </trkpt>
      <trkpt lat="46.73863" lon="5.97089">
        <ele>693.3</ele>
        <time>2021-04-08T13:13:09Z</time>
      </trkpt>
      <trkpt lat="46.73859" lon="5.97091">
        <ele>694.3</ele>
        <time>2021-04-08T13:13:22Z</time>
      </trkpt>
      <trkpt lat="46.73854" lon="5.97088">
        <ele>695.5</ele>
        <time>2021-04-08T13:14:13Z</time>
      </trkpt>
      <trkpt lat="46.73859" lon="5.97091">
        <ele>712.7</ele>
        <time>2021-04-08T13:15:09Z</time>
      </trkpt>
      <trkpt lat="46.73864" lon="5.97092">
        <ele>712.8</ele>
        <time>2021-04-08T13:15:16Z</time>
      </trkpt>
      <trkpt lat="46.73863" lon="5.97086">
        <ele>712.7</ele>
        <time>2021-04-08T13:15:27Z</time>
      </trkpt>
      <trkpt lat="46.73864" lon="5.97079">
        <ele>712.9</ele>
        <time>2021-04-08T13:15:40Z</time>
      </trkpt>
      <trkpt lat="46.73869" lon="5.97078">
        <ele>713.3</ele>
        <time>2021-04-08T13:16:03Z</time>
      </trkpt>
      <trkpt lat="46.73873" lon="5.97082">
        <ele>716.4</ele>
        <time>2021-04-08T13:16:17Z</time>
      </trkpt>
      <trkpt lat="46.73875" lon="5.97088">
        <ele>723.9</ele>
        <time>2021-04-08T13:16:44Z</time>
      </trkpt>
      <trkpt lat="46.73879" lon="5.97091">
        <ele>724.9</ele>
        <time>2021-04-08T13:17:10Z</time>
      </trkpt>
      <trkpt lat="46.73883" lon="5.97096">
        <ele>725.9</ele>
        <time>2021-04-08T13:17:21Z</time>
      </trkpt>
      <trkpt lat="46.73887" lon="5.97096">
        <ele>725.5</ele>
        <time>2021-04-08T13:17:48Z</time>
      </trkpt>
      <trkpt lat="46.73892" lon="5.97098">
        <ele>725.6</ele>
        <time>2021-04-08T13:17:55Z</time>
      </trkpt>
      <trkpt lat="46.73896" lon="5.97094">
        <ele>727.7</ele>
        <time>2021-04-08T13:18:10Z</time>
      </trkpt>
      <trkpt lat="46.73895" lon="5.97102">
        <ele>737.2</ele>
        <time>2021-04-08T13:18:23Z</time>
      </trkpt>
      <trkpt lat="46.73896" lon="5.97109">
        <ele>743.7</ele>
        <time>2021-04-08T13:18:28Z</time>
      </trkpt>
      <trkpt lat="46.739" lon="5.97109">
        <ele>749.5</ele>
        <time>2021-04-08T13:18:34Z</time>
      </trkpt>
      <trkpt lat="46.73905" lon="5.97105">
        <ele>752.3</ele>
        <time>2021-04-08T13:18:39Z</time>
      </trkpt>
      <trkpt lat="46.7391" lon="5.97104">
        <ele>754.1</ele>
        <time>2021-04-08T13:18:45Z</time>
      </trkpt>
      <trkpt lat="46.73908" lon="5.9711">
        <ele>755.3</ele>
        <time>2021-04-08T13:18:53Z</time>
      </trkpt>
      <trkpt lat="46.73905" lon="5.97115">
        <ele>757.1</ele>
        <time>2021-04-08T13:19:02Z</time>
      </trkpt>
      <trkpt lat="46.73901" lon="5.9712">
        <ele>757.9</ele>
        <time>2021-04-08T13:19:07Z</time>
      </trkpt>
      <trkpt lat="46.73898" lon="5.97128">
        <ele>758.4</ele>
        <time>2021-04-08T13:19:12Z</time>
      </trkpt>
      <trkpt lat="46.73894" lon="5.97134">
        <ele>758.4</ele>
        <time>2021-04-08T13:19:16Z</time>
      </trkpt>
      <trkpt lat="46.7389" lon="5.97135">
        <ele>758.6</ele>
        <time>2021-04-08T13:19:22Z</time>
      </trkpt>
      <trkpt lat="46.73885" lon="5.97134">
        <ele>759.3</ele>
        <time>2021-04-08T13:19:35Z</time>
      </trkpt>
      <trkpt lat="46.73881" lon="5.97139">
        <ele>759.7</ele>
        <time>2021-04-08T13:19:43Z</time>
      </trkpt>
      <trkpt lat="46.73881" lon="5.97146">
        <ele>759.4</ele>
        <time>2021-04-08T13:19:48Z</time>
      </trkpt>
      <trkpt lat="46.73876" lon="5.97146">
        <ele>760</ele>
        <time>2021-04-08T13:20:16Z</time>
      </trkpt>
      <trkpt lat="46.73874" lon="5.97152">
        <ele>762.3</ele>
        <time>2021-04-08T13:20:56Z</time>
      </trkpt>
      <trkpt lat="46.73876" lon="5.97159">
        <ele>762.9</ele>
        <time>2021-04-08T13:21:00Z</time>
      </trkpt>
      <trkpt lat="46.73873" lon="5.97163">
        <ele>763.7</ele>
        <time>2021-04-08T13:21:11Z</time>
      </trkpt>
      <trkpt lat="46.7387" lon="5.97168">
        <ele>764</ele>
        <time>2021-04-08T13:21:18Z</time>
      </trkpt>
      <trkpt lat="46.73868" lon="5.97175">
        <ele>764.4</ele>
        <time>2021-04-08T13:21:26Z</time>
      </trkpt>
      <trkpt lat="46.73863" lon="5.97172">
        <ele>764.5</ele>
        <time>2021-04-08T13:21:42Z</time>
      </trkpt>
      <trkpt lat="46.73859" lon="5.9717">
        <ele>764.1</ele>
        <time>2021-04-08T13:21:49Z</time>
      </trkpt>
      <trkpt lat="46.73856" lon="5.97165">
        <ele>762.1</ele>
        <time>2021-04-08T13:22:12Z</time>
      </trkpt>
      <trkpt lat="46.73858" lon="5.97172">
        <ele>761.3</ele>
        <time>2021-04-08T13:24:16Z</time>
      </trkpt>
      <trkpt lat="46.73863" lon="5.97173">
        <ele>761.6</ele>
        <time>2021-04-08T13:24:25Z</time>
      </trkpt>
      <trkpt lat="46.73868" lon="5.97172">
        <ele>761.9</ele>
        <time>2021-04-08T13:24:33Z</time>
      </trkpt>
      <trkpt lat="46.73872" lon="5.97169">
        <ele>762.6</ele>
        <time>2021-04-08T13:24:40Z</time>
      </trkpt>
      <trkpt lat="46.73875" lon="5.97175">
        <ele>763.2</ele>
        <time>2021-04-08T13:25:05Z</time>
      </trkpt>
      <trkpt lat="46.73878" lon="5.9718">
        <ele>763</ele>
        <time>2021-04-08T13:25:11Z</time>
      </trkpt>
      <trkpt lat="46.73881" lon="5.97187">
        <ele>765</ele>
        <time>2021-04-08T13:25:44Z</time>
      </trkpt>
      <trkpt lat="46.73884" lon="5.97192">
        <ele>765.2</ele>
        <time>2021-04-08T13:25:48Z</time>
      </trkpt>
      <trkpt lat="46.73887" lon="5.97197">
        <ele>768.9</ele>
        <time>2021-04-08T13:26:36Z</time>
      </trkpt>
      <trkpt lat="46.73892" lon="5.972">
        <ele>770.1</ele>
        <time>2021-04-08T13:28:30Z</time>
      </trkpt>
      <trkpt lat="46.73897" lon="5.97202">
        <ele>769.9</ele>
        <time>2021-04-08T13:28:35Z</time>
      </trkpt>
      <trkpt lat="46.73901" lon="5.97205">
        <ele>769.3</ele>
        <time>2021-04-08T13:28:41Z</time>
      </trkpt>
      <trkpt lat="46.73906" lon="5.97206">
        <ele>768.3</ele>
        <time>2021-04-08T13:28:47Z</time>
      </trkpt>
      <trkpt lat="46.73911" lon="5.97208">
        <ele>767.1</ele>
        <time>2021-04-08T13:28:53Z</time>
      </trkpt>
      <trkpt lat="46.73915" lon="5.97209">
        <ele>766.4</ele>
        <time>2021-04-08T13:28:58Z</time>
      </trkpt>
      <trkpt lat="46.7392" lon="5.97211">
        <ele>765.6</ele>
        <time>2021-04-08T13:29:03Z</time>
      </trkpt>
      <trkpt lat="46.73925" lon="5.97212">
        <ele>764.8</ele>
        <time>2021-04-08T13:29:08Z</time>
      </trkpt>
      <trkpt lat="46.7393" lon="5.97214">
        <ele>764</ele>
        <time>2021-04-08T13:29:13Z</time>
      </trkpt>
      <trkpt lat="46.73935" lon="5.97215">
        <ele>763.2</ele>
        <time>2021-04-08T13:29:18Z</time>
      </trkpt>
      <trkpt lat="46.7394" lon="5.97216">
        <ele>762.8</ele>
        <time>2021-04-08T13:29:23Z</time>
      </trkpt>
      <trkpt lat="46.73945" lon="5.97218">
        <ele>762.7</ele>
        <time>2021-04-08T13:29:28Z</time>
      </trkpt>
      <trkpt lat="46.7395" lon="5.97218">
        <ele>762.7</ele>
        <time>2021-04-08T13:29:32Z</time>
      </trkpt>
      <trkpt lat="46.73955" lon="5.97217">
        <ele>762.8</ele>
        <time>2021-04-08T13:29:36Z</time>
      </trkpt>
      <trkpt lat="46.7396" lon="5.97217">
        <ele>763.1</ele>
        <time>2021-04-08T13:29:41Z</time>
      </trkpt>
      <trkpt lat="46.73964" lon="5.9722">
        <ele>763.5</ele>
        <time>2021-04-08T13:29:45Z</time>
      </trkpt>
      <trkpt lat="46.7397" lon="5.97221">
        <ele>763.9</ele>
        <time>2021-04-08T13:29:49Z</time>
      </trkpt>
      <trkpt lat="46.73975" lon="5.9722">
        <ele>764.4</ele>
        <time>2021-04-08T13:29:54Z</time>
      </trkpt>
      <trkpt lat="46.7398" lon="5.97221">
        <ele>764.5</ele>
        <time>2021-04-08T13:29:58Z</time>
      </trkpt>
      <trkpt lat="46.73985" lon="5.97222">
        <ele>764.4</ele>
        <time>2021-04-08T13:30:03Z</time>
      </trkpt>
      <trkpt lat="46.73991" lon="5.97222">
        <ele>764.5</ele>
        <time>2021-04-08T13:30:08Z</time>
      </trkpt>
      <trkpt lat="46.73996" lon="5.97223">
        <ele>764.9</ele>
        <time>2021-04-08T13:30:13Z</time>
      </trkpt>
      <trkpt lat="46.74001" lon="5.97224">
        <ele>765.6</ele>
        <time>2021-04-08T13:30:19Z</time>
      </trkpt>
      <trkpt lat="46.74006" lon="5.97225">
        <ele>766</ele>
        <time>2021-04-08T13:30:23Z</time>
      </trkpt>
      <trkpt lat="46.74011" lon="5.97226">
        <ele>766.4</ele>
        <time>2021-04-08T13:30:28Z</time>
      </trkpt>
      <trkpt lat="46.74016" lon="5.97226">
        <ele>766.6</ele>
        <time>2021-04-08T13:30:33Z</time>
      </trkpt>
      <trkpt lat="46.74022" lon="5.97228">
        <ele>767</ele>
        <time>2021-04-08T13:30:39Z</time>
      </trkpt>
      <trkpt lat="46.74027" lon="5.97229">
        <ele>767.3</ele>
        <time>2021-04-08T13:30:44Z</time>
      </trkpt>
      <trkpt lat="46.74032" lon="5.97232">
        <ele>767.3</ele>
        <time>2021-04-08T13:30:49Z</time>
      </trkpt>
      <trkpt lat="46.74037" lon="5.97232">
        <ele>767.3</ele>
        <time>2021-04-08T13:30:54Z</time>
      </trkpt>
      <trkpt lat="46.74042" lon="5.97233">
        <ele>767.2</ele>
        <time>2021-04-08T13:30:59Z</time>
      </trkpt>
      <trkpt lat="46.74046" lon="5.97236">
        <ele>767.2</ele>
        <time>2021-04-08T13:31:04Z</time>
      </trkpt>
      <trkpt lat="46.74051" lon="5.97236">
        <ele>767.6</ele>
        <time>2021-04-08T13:31:09Z</time>
      </trkpt>
      <trkpt lat="46.74056" lon="5.97238">
        <ele>768.2</ele>
        <time>2021-04-08T13:31:13Z</time>
      </trkpt>
      <trkpt lat="46.74061" lon="5.9724">
        <ele>769</ele>
        <time>2021-04-08T13:31:17Z</time>
      </trkpt>
      <trkpt lat="46.74066" lon="5.97242">
        <ele>769.9</ele>
        <time>2021-04-08T13:31:22Z</time>
      </trkpt>
      <trkpt lat="46.74071" lon="5.97244">
        <ele>770.6</ele>
        <time>2021-04-08T13:31:27Z</time>
      </trkpt>
      <trkpt lat="46.74076" lon="5.97246">
        <ele>770.9</ele>
        <time>2021-04-08T13:31:33Z</time>
      </trkpt>
      <trkpt lat="46.74081" lon="5.97246">
        <ele>770.9</ele>
        <time>2021-04-08T13:31:38Z</time>
      </trkpt>
      <trkpt lat="46.74086" lon="5.97247">
        <ele>770.8</ele>
        <time>2021-04-08T13:31:43Z</time>
      </trkpt>
      <trkpt lat="46.74091" lon="5.9725">
        <ele>770.3</ele>
        <time>2021-04-08T13:31:48Z</time>
      </trkpt>
      <trkpt lat="46.74096" lon="5.97252">
        <ele>769.5</ele>
        <time>2021-04-08T13:31:53Z</time>
      </trkpt>
      <trkpt lat="46.741" lon="5.97256">
        <ele>768.6</ele>
        <time>2021-04-08T13:31:59Z</time>
      </trkpt>
      <trkpt lat="46.74104" lon="5.97258">
        <ele>767.6</ele>
        <time>2021-04-08T13:32:05Z</time>
      </trkpt>
      <trkpt lat="46.7411" lon="5.97259">
        <ele>767.1</ele>
        <time>2021-04-08T13:32:11Z</time>
      </trkpt>
      <trkpt lat="46.74115" lon="5.97259">
        <ele>766.8</ele>
        <time>2021-04-08T13:32:16Z</time>
      </trkpt>
      <trkpt lat="46.7412" lon="5.97261">
        <ele>766.7</ele>
        <time>2021-04-08T13:32:21Z</time>
      </trkpt>
      <trkpt lat="46.74125" lon="5.97262">
        <ele>766.5</ele>
        <time>2021-04-08T13:32:26Z</time>
      </trkpt>
      <trkpt lat="46.7413" lon="5.97262">
        <ele>767.1</ele>
        <time>2021-04-08T13:32:31Z</time>
      </trkpt>
      <trkpt lat="46.74135" lon="5.97262">
        <ele>767.8</ele>
        <time>2021-04-08T13:32:37Z</time>
      </trkpt>
      <trkpt lat="46.74139" lon="5.97265">
        <ele>768.7</ele>
        <time>2021-04-08T13:32:42Z</time>
      </trkpt>
      <trkpt lat="46.74144" lon="5.97267">
        <ele>769.3</ele>
        <time>2021-04-08T13:32:46Z</time>
      </trkpt>
      <trkpt lat="46.74149" lon="5.97268">
        <ele>766.7</ele>
        <time>2021-04-08T13:33:07Z</time>
      </trkpt>
      <trkpt lat="46.74153" lon="5.9727">
        <ele>766.2</ele>
        <time>2021-04-08T13:33:11Z</time>
      </trkpt>
      <trkpt lat="46.74158" lon="5.97272">
        <ele>766.6</ele>
        <time>2021-04-08T13:33:16Z</time>
      </trkpt>
      <trkpt lat="46.74162" lon="5.97271">
        <ele>767.1</ele>
        <time>2021-04-08T13:33:21Z</time>
      </trkpt>
      <trkpt lat="46.74167" lon="5.97272">
        <ele>767.7</ele>
        <time>2021-04-08T13:33:26Z</time>
      </trkpt>
      <trkpt lat="46.74172" lon="5.97272">
        <ele>768.5</ele>
        <time>2021-04-08T13:33:30Z</time>
      </trkpt>
      <trkpt lat="46.74177" lon="5.97272">
        <ele>769.2</ele>
        <time>2021-04-08T13:33:34Z</time>
      </trkpt>
      <trkpt lat="46.74183" lon="5.97272">
        <ele>770.2</ele>
        <time>2021-04-08T13:33:38Z</time>
      </trkpt>
      <trkpt lat="46.74188" lon="5.97272">
        <ele>771</ele>
        <time>2021-04-08T13:33:42Z</time>
      </trkpt>
      <trkpt lat="46.74192" lon="5.97274">
        <ele>772</ele>
        <time>2021-04-08T13:33:47Z</time>
      </trkpt>
      <trkpt lat="46.74197" lon="5.97276">
        <ele>773.3</ele>
        <time>2021-04-08T13:33:52Z</time>
      </trkpt>
      <trkpt lat="46.74201" lon="5.97273">
        <ele>774.9</ele>
        <time>2021-04-08T13:34:00Z</time>
      </trkpt>
      <trkpt lat="46.74201" lon="5.97264">
        <ele>775.7</ele>
        <time>2021-04-08T13:34:40Z</time>
      </trkpt>
      <trkpt lat="46.74205" lon="5.97261">
        <ele>775.3</ele>
        <time>2021-04-08T13:34:53Z</time>
      </trkpt>
      <trkpt lat="46.7421" lon="5.97262">
        <ele>775.5</ele>
        <time>2021-04-08T13:34:59Z</time>
      </trkpt>
      <trkpt lat="46.74215" lon="5.97262">
        <ele>775.9</ele>
        <time>2021-04-08T13:35:04Z</time>
      </trkpt>
      <trkpt lat="46.74219" lon="5.97259">
        <ele>775.9</ele>
        <time>2021-04-08T13:35:17Z</time>
      </trkpt>
      <trkpt lat="46.74224" lon="5.97257">
        <ele>776.1</ele>
        <time>2021-04-08T13:35:35Z</time>
      </trkpt>
      <trkpt lat="46.74228" lon="5.9726">
        <ele>777.5</ele>
        <time>2021-04-08T13:35:59Z</time>
      </trkpt>
      <trkpt lat="46.74234" lon="5.97261">
        <ele>777.6</ele>
        <time>2021-04-08T13:36:05Z</time>
      </trkpt>
      <trkpt lat="46.74239" lon="5.97262">
        <ele>777.8</ele>
        <time>2021-04-08T13:36:10Z</time>
      </trkpt>
      <trkpt lat="46.74243" lon="5.97263">
        <ele>778.2</ele>
        <time>2021-04-08T13:36:15Z</time>
      </trkpt>
      <trkpt lat="46.74248" lon="5.97266">
        <ele>778.8</ele>
        <time>2021-04-08T13:36:20Z</time>
      </trkpt>
      <trkpt lat="46.74252" lon="5.97269">
        <ele>779.3</ele>
        <time>2021-04-08T13:36:25Z</time>
      </trkpt>
      <trkpt lat="46.74257" lon="5.97271">
        <ele>779.6</ele>
        <time>2021-04-08T13:36:29Z</time>
      </trkpt>
      <trkpt lat="46.74261" lon="5.97274">
        <ele>779.9</ele>
        <time>2021-04-08T13:36:33Z</time>
      </trkpt>
      <trkpt lat="46.74265" lon="5.97278">
        <ele>780.2</ele>
        <time>2021-04-08T13:36:37Z</time>
      </trkpt>
      <trkpt lat="46.74269" lon="5.97281">
        <ele>780.7</ele>
        <time>2021-04-08T13:36:43Z</time>
      </trkpt>
      <trkpt lat="46.74274" lon="5.97282">
        <ele>780.8</ele>
        <time>2021-04-08T13:36:51Z</time>
      </trkpt>
      <trkpt lat="46.74279" lon="5.97283">
        <ele>780.8</ele>
        <time>2021-04-08T13:36:57Z</time>
      </trkpt>
      <trkpt lat="46.74284" lon="5.97282">
        <ele>780.7</ele>
        <time>2021-04-08T13:37:02Z</time>
      </trkpt>
      <trkpt lat="46.74289" lon="5.9728">
        <ele>780.7</ele>
        <time>2021-04-08T13:37:07Z</time>
      </trkpt>
      <trkpt lat="46.74294" lon="5.97279">
        <ele>780.7</ele>
        <time>2021-04-08T13:37:11Z</time>
      </trkpt>
      <trkpt lat="46.74299" lon="5.97277">
        <ele>780.7</ele>
        <time>2021-04-08T13:37:15Z</time>
      </trkpt>
      <trkpt lat="46.74304" lon="5.97276">
        <ele>780.5</ele>
        <time>2021-04-08T13:37:25Z</time>
      </trkpt>
      <trkpt lat="46.74308" lon="5.97272">
        <ele>780.2</ele>
        <time>2021-04-08T13:37:36Z</time>
      </trkpt>
      <trkpt lat="46.74311" lon="5.97266">
        <ele>780</ele>
        <time>2021-04-08T13:37:40Z</time>
      </trkpt>
      <trkpt lat="46.74314" lon="5.97261">
        <ele>779.9</ele>
        <time>2021-04-08T13:37:44Z</time>
      </trkpt>
      <trkpt lat="46.74318" lon="5.97256">
        <ele>779.7</ele>
        <time>2021-04-08T13:37:48Z</time>
      </trkpt>
      <trkpt lat="46.74321" lon="5.97249">
        <ele>779.3</ele>
        <time>2021-04-08T13:37:53Z</time>
      </trkpt>
      <trkpt lat="46.74322" lon="5.97242">
        <ele>778.5</ele>
        <time>2021-04-08T13:38:00Z</time>
      </trkpt>
      <trkpt lat="46.74325" lon="5.97235">
        <ele>778</ele>
        <time>2021-04-08T13:38:06Z</time>
      </trkpt>
      <trkpt lat="46.74324" lon="5.97229">
        <ele>779.5</ele>
        <time>2021-04-08T13:38:22Z</time>
      </trkpt>
      <trkpt lat="46.74325" lon="5.97222">
        <ele>780</ele>
        <time>2021-04-08T13:38:27Z</time>
      </trkpt>
      <trkpt lat="46.74326" lon="5.97213">
        <ele>780.3</ele>
        <time>2021-04-08T13:38:31Z</time>
      </trkpt>
      <trkpt lat="46.74327" lon="5.97206">
        <ele>780.7</ele>
        <time>2021-04-08T13:38:35Z</time>
      </trkpt>
      <trkpt lat="46.74328" lon="5.97197">
        <ele>781.1</ele>
        <time>2021-04-08T13:38:39Z</time>
      </trkpt>
      <trkpt lat="46.74329" lon="5.9719">
        <ele>781.7</ele>
        <time>2021-04-08T13:38:43Z</time>
      </trkpt>
      <trkpt lat="46.74329" lon="5.97183">
        <ele>782.3</ele>
        <time>2021-04-08T13:38:47Z</time>
      </trkpt>
      <trkpt lat="46.74326" lon="5.97177">
        <ele>783.1</ele>
        <time>2021-04-08T13:38:52Z</time>
      </trkpt>
      <trkpt lat="46.74323" lon="5.97171">
        <ele>784</ele>
        <time>2021-04-08T13:38:58Z</time>
      </trkpt>
      <trkpt lat="46.74322" lon="5.97164">
        <ele>785.2</ele>
        <time>2021-04-08T13:39:04Z</time>
      </trkpt>
      <trkpt lat="46.74321" lon="5.97157">
        <ele>786.3</ele>
        <time>2021-04-08T13:39:11Z</time>
      </trkpt>
      <trkpt lat="46.7432" lon="5.97149">
        <ele>787</ele>
        <time>2021-04-08T13:39:17Z</time>
      </trkpt>
      <trkpt lat="46.74321" lon="5.97142">
        <ele>787.4</ele>
        <time>2021-04-08T13:39:22Z</time>
      </trkpt>
      <trkpt lat="46.74322" lon="5.97134">
        <ele>788.1</ele>
        <time>2021-04-08T13:39:28Z</time>
      </trkpt>
      <trkpt lat="46.74322" lon="5.97127">
        <ele>788.4</ele>
        <time>2021-04-08T13:39:32Z</time>
      </trkpt>
      <trkpt lat="46.74323" lon="5.9712">
        <ele>788.9</ele>
        <time>2021-04-08T13:39:36Z</time>
      </trkpt>
      <trkpt lat="46.74323" lon="5.97114">
        <ele>789.3</ele>
        <time>2021-04-08T13:39:40Z</time>
      </trkpt>
      <trkpt lat="46.74324" lon="5.97107">
        <ele>789</ele>
        <time>2021-04-08T13:39:44Z</time>
      </trkpt>
      <trkpt lat="46.74323" lon="5.971">
        <ele>788.7</ele>
        <time>2021-04-08T13:39:48Z</time>
      </trkpt>
      <trkpt lat="46.74322" lon="5.97091">
        <ele>788.2</ele>
        <time>2021-04-08T13:39:52Z</time>
      </trkpt>
      <trkpt lat="46.74319" lon="5.97083">
        <ele>787.7</ele>
        <time>2021-04-08T13:39:56Z</time>
      </trkpt>
      <trkpt lat="46.74317" lon="5.97077">
        <ele>787.4</ele>
        <time>2021-04-08T13:40:01Z</time>
      </trkpt>
      <trkpt lat="46.74313" lon="5.97072">
        <ele>786.3</ele>
        <time>2021-04-08T13:40:05Z</time>
      </trkpt>
      <trkpt lat="46.74311" lon="5.97066">
        <ele>784.5</ele>
        <time>2021-04-08T13:40:10Z</time>
      </trkpt>
      <trkpt lat="46.74309" lon="5.97059">
        <ele>782.3</ele>
        <time>2021-04-08T13:40:15Z</time>
      </trkpt>
      <trkpt lat="46.74304" lon="5.97056">
        <ele>779.6</ele>
        <time>2021-04-08T13:40:21Z</time>
      </trkpt>
      <trkpt lat="46.743" lon="5.97055">
        <ele>777.6</ele>
        <time>2021-04-08T13:40:26Z</time>
      </trkpt>
      <trkpt lat="46.74296" lon="5.97052">
        <ele>776.8</ele>
        <time>2021-04-08T13:40:31Z</time>
      </trkpt>
      <trkpt lat="46.74291" lon="5.97051">
        <ele>775.9</ele>
        <time>2021-04-08T13:40:36Z</time>
      </trkpt>
      <trkpt lat="46.74287" lon="5.97049">
        <ele>774.6</ele>
        <time>2021-04-08T13:40:40Z</time>
      </trkpt>
      <trkpt lat="46.74281" lon="5.97047">
        <ele>772.7</ele>
        <time>2021-04-08T13:40:45Z</time>
      </trkpt>
      <trkpt lat="46.74276" lon="5.97046">
        <ele>770.8</ele>
        <time>2021-04-08T13:40:50Z</time>
      </trkpt>
      <trkpt lat="46.74272" lon="5.97044">
        <ele>768.3</ele>
        <time>2021-04-08T13:40:57Z</time>
      </trkpt>
      <trkpt lat="46.74266" lon="5.97043">
        <ele>768.2</ele>
        <time>2021-04-08T13:41:01Z</time>
      </trkpt>
      <trkpt lat="46.7426" lon="5.97044">
        <ele>768.8</ele>
        <time>2021-04-08T13:41:05Z</time>
      </trkpt>
      <trkpt lat="46.74253" lon="5.97048">
        <ele>771.5</ele>
        <time>2021-04-08T13:41:09Z</time>
      </trkpt>
      <trkpt lat="46.74249" lon="5.97049">
        <ele>773.1</ele>
        <time>2021-04-08T13:41:13Z</time>
      </trkpt>
      <trkpt lat="46.74244" lon="5.97049">
        <ele>774.3</ele>
        <time>2021-04-08T13:41:17Z</time>
      </trkpt>
      <trkpt lat="46.7424" lon="5.97052">
        <ele>775.9</ele>
        <time>2021-04-08T13:41:22Z</time>
      </trkpt>
      <trkpt lat="46.74236" lon="5.97056">
        <ele>779.8</ele>
        <time>2021-04-08T13:41:32Z</time>
      </trkpt>
      <trkpt lat="46.74231" lon="5.97058">
        <ele>781.7</ele>
        <time>2021-04-08T13:41:36Z</time>
      </trkpt>
      <trkpt lat="46.74226" lon="5.97055">
        <ele>784.3</ele>
        <time>2021-04-08T13:41:41Z</time>
      </trkpt>
      <trkpt lat="46.74222" lon="5.9705">
        <ele>786.1</ele>
        <time>2021-04-08T13:41:45Z</time>
      </trkpt>
      <trkpt lat="46.74216" lon="5.97046">
        <ele>787.3</ele>
        <time>2021-04-08T13:41:49Z</time>
      </trkpt>
      <trkpt lat="46.74213" lon="5.97041">
        <ele>787.1</ele>
        <time>2021-04-08T13:41:53Z</time>
      </trkpt>
      <trkpt lat="46.7421" lon="5.97038">
        <ele>785.3</ele>
        <time>2021-04-08T13:41:59Z</time>
      </trkpt>
      <trkpt lat="46.74208" lon="5.9703">
        <ele>781.9</ele>
        <time>2021-04-08T13:42:05Z</time>
      </trkpt>
      <trkpt lat="46.74205" lon="5.97025">
        <ele>779.3</ele>
        <time>2021-04-08T13:42:09Z</time>
      </trkpt>
      <trkpt lat="46.74202" lon="5.9702">
        <ele>777.3</ele>
        <time>2021-04-08T13:42:13Z</time>
      </trkpt>
      <trkpt lat="46.74197" lon="5.97015">
        <ele>776.4</ele>
        <time>2021-04-08T13:42:17Z</time>
      </trkpt>
      <trkpt lat="46.74193" lon="5.97013">
        <ele>776.4</ele>
        <time>2021-04-08T13:42:21Z</time>
      </trkpt>
      <trkpt lat="46.74187" lon="5.9701">
        <ele>777.4</ele>
        <time>2021-04-08T13:42:25Z</time>
      </trkpt>
      <trkpt lat="46.74181" lon="5.9701">
        <ele>779.2</ele>
        <time>2021-04-08T13:42:29Z</time>
      </trkpt>
      <trkpt lat="46.74176" lon="5.97009">
        <ele>783.8</ele>
        <time>2021-04-08T13:42:35Z</time>
      </trkpt>
      <trkpt lat="46.74172" lon="5.97007">
        <ele>788.5</ele>
        <time>2021-04-08T13:42:41Z</time>
      </trkpt>
      <trkpt lat="46.74167" lon="5.97003">
        <ele>795.4</ele>
        <time>2021-04-08T13:42:49Z</time>
      </trkpt>
      <trkpt lat="46.74166" lon="5.96997">
        <ele>803.4</ele>
        <time>2021-04-08T13:42:58Z</time>
      </trkpt>
      <trkpt lat="46.74161" lon="5.96997">
        <ele>806.2</ele>
        <time>2021-04-08T13:43:02Z</time>
      </trkpt>
      <trkpt lat="46.74157" lon="5.96993">
        <ele>809.6</ele>
        <time>2021-04-08T13:43:07Z</time>
      </trkpt>
      <trkpt lat="46.74152" lon="5.9699">
        <ele>813</ele>
        <time>2021-04-08T13:43:12Z</time>
      </trkpt>
      <trkpt lat="46.74149" lon="5.96986">
        <ele>816.3</ele>
        <time>2021-04-08T13:43:17Z</time>
      </trkpt>
      <trkpt lat="46.74144" lon="5.96982">
        <ele>818.9</ele>
        <time>2021-04-08T13:43:22Z</time>
      </trkpt>
      <trkpt lat="46.74139" lon="5.96979">
        <ele>819.9</ele>
        <time>2021-04-08T13:43:26Z</time>
      </trkpt>
      <trkpt lat="46.74134" lon="5.96976">
        <ele>820.8</ele>
        <time>2021-04-08T13:43:30Z</time>
      </trkpt>
      <trkpt lat="46.74129" lon="5.96973">
        <ele>821.6</ele>
        <time>2021-04-08T13:43:34Z</time>
      </trkpt>
      <trkpt lat="46.74125" lon="5.96969">
        <ele>822.1</ele>
        <time>2021-04-08T13:43:38Z</time>
      </trkpt>
      <trkpt lat="46.74121" lon="5.96965">
        <ele>822.2</ele>
        <time>2021-04-08T13:43:42Z</time>
      </trkpt>
      <trkpt lat="46.74117" lon="5.96961">
        <ele>822.3</ele>
        <time>2021-04-08T13:43:46Z</time>
      </trkpt>
      <trkpt lat="46.74112" lon="5.96958">
        <ele>822</ele>
        <time>2021-04-08T13:43:50Z</time>
      </trkpt>
      <trkpt lat="46.74108" lon="5.96952">
        <ele>821.2</ele>
        <time>2021-04-08T13:43:54Z</time>
      </trkpt>
      <trkpt lat="46.74104" lon="5.96948">
        <ele>819.8</ele>
        <time>2021-04-08T13:43:58Z</time>
      </trkpt>
      <trkpt lat="46.741" lon="5.96944">
        <ele>818.2</ele>
        <time>2021-04-08T13:44:02Z</time>
      </trkpt>
      <trkpt lat="46.74096" lon="5.9694">
        <ele>816.3</ele>
        <time>2021-04-08T13:44:07Z</time>
      </trkpt>
      <trkpt lat="46.74092" lon="5.96935">
        <ele>814.1</ele>
        <time>2021-04-08T13:44:11Z</time>
      </trkpt>
      <trkpt lat="46.74087" lon="5.96927">
        <ele>811.2</ele>
        <time>2021-04-08T13:44:15Z</time>
      </trkpt>
      <trkpt lat="46.74083" lon="5.96921">
        <ele>807.7</ele>
        <time>2021-04-08T13:44:19Z</time>
      </trkpt>
      <trkpt lat="46.74078" lon="5.96914">
        <ele>803.8</ele>
        <time>2021-04-08T13:44:23Z</time>
      </trkpt>
      <trkpt lat="46.74073" lon="5.96907">
        <ele>798.9</ele>
        <time>2021-04-08T13:44:27Z</time>
      </trkpt>
      <trkpt lat="46.74068" lon="5.96901">
        <ele>794.5</ele>
        <time>2021-04-08T13:44:31Z</time>
      </trkpt>
      <trkpt lat="46.74064" lon="5.96898">
        <ele>789.7</ele>
        <time>2021-04-08T13:44:39Z</time>
      </trkpt>
      <trkpt lat="46.7406" lon="5.96893">
        <ele>788</ele>
        <time>2021-04-08T13:44:43Z</time>
      </trkpt>
      <trkpt lat="46.74059" lon="5.96887">
        <ele>786.5</ele>
        <time>2021-04-08T13:44:47Z</time>
      </trkpt>
      <trkpt lat="46.74056" lon="5.9688">
        <ele>784.9</ele>
        <time>2021-04-08T13:44:52Z</time>
      </trkpt>
      <trkpt lat="46.74054" lon="5.96874">
        <ele>783.6</ele>
        <time>2021-04-08T13:44:57Z</time>
      </trkpt>
      <trkpt lat="46.74052" lon="5.96868">
        <ele>782.5</ele>
        <time>2021-04-08T13:45:02Z</time>
      </trkpt>
      <trkpt lat="46.74049" lon="5.96862">
        <ele>781.1</ele>
        <time>2021-04-08T13:45:08Z</time>
      </trkpt>
      <trkpt lat="46.74046" lon="5.96857">
        <ele>780</ele>
        <time>2021-04-08T13:45:14Z</time>
      </trkpt>
      <trkpt lat="46.74041" lon="5.96854">
        <ele>779.3</ele>
        <time>2021-04-08T13:45:20Z</time>
      </trkpt>
      <trkpt lat="46.74038" lon="5.96848">
        <ele>778.5</ele>
        <time>2021-04-08T13:45:25Z</time>
      </trkpt>
      <trkpt lat="46.74034" lon="5.96842">
        <ele>777.6</ele>
        <time>2021-04-08T13:45:30Z</time>
      </trkpt>
      <trkpt lat="46.74031" lon="5.96837">
        <ele>776.2</ele>
        <time>2021-04-08T13:45:38Z</time>
      </trkpt>
      <trkpt lat="46.74027" lon="5.96832">
        <ele>776.8</ele>
        <time>2021-04-08T13:45:42Z</time>
      </trkpt>
      <trkpt lat="46.74023" lon="5.96829">
        <ele>779.1</ele>
        <time>2021-04-08T13:45:46Z</time>
      </trkpt>
      <trkpt lat="46.74019" lon="5.96825">
        <ele>782.2</ele>
        <time>2021-04-08T13:45:53Z</time>
      </trkpt>
      <trkpt lat="46.74014" lon="5.96823">
        <ele>784.6</ele>
        <time>2021-04-08T13:46:08Z</time>
      </trkpt>
      <trkpt lat="46.74009" lon="5.96823">
        <ele>785.8</ele>
        <time>2021-04-08T13:46:13Z</time>
      </trkpt>
      <trkpt lat="46.74005" lon="5.96828">
        <ele>787.1</ele>
        <time>2021-04-08T13:46:18Z</time>
      </trkpt>
      <trkpt lat="46.74002" lon="5.96834">
        <ele>788.7</ele>
        <time>2021-04-08T13:46:25Z</time>
      </trkpt>
      <trkpt lat="46.73998" lon="5.96837">
        <ele>790</ele>
        <time>2021-04-08T13:46:32Z</time>
      </trkpt>
      <trkpt lat="46.73993" lon="5.9684">
        <ele>790.3</ele>
        <time>2021-04-08T13:46:36Z</time>
      </trkpt>
      <trkpt lat="46.73988" lon="5.96843">
        <ele>790.3</ele>
        <time>2021-04-08T13:46:40Z</time>
      </trkpt>
      <trkpt lat="46.73983" lon="5.96845">
        <ele>790</ele>
        <time>2021-04-08T13:46:44Z</time>
      </trkpt>
      <trkpt lat="46.73978" lon="5.96845">
        <ele>789.6</ele>
        <time>2021-04-08T13:46:49Z</time>
      </trkpt>
      <trkpt lat="46.73973" lon="5.96846">
        <ele>789.4</ele>
        <time>2021-04-08T13:46:55Z</time>
      </trkpt>
      <trkpt lat="46.73968" lon="5.96847">
        <ele>790.2</ele>
        <time>2021-04-08T13:47:03Z</time>
      </trkpt>
      <trkpt lat="46.73965" lon="5.96852">
        <ele>790.8</ele>
        <time>2021-04-08T13:47:20Z</time>
      </trkpt>
      <trkpt lat="46.7396" lon="5.96852">
        <ele>793.4</ele>
        <time>2021-04-08T13:47:39Z</time>
      </trkpt>
      <trkpt lat="46.73955" lon="5.96853">
        <ele>795.4</ele>
        <time>2021-04-08T13:47:44Z</time>
      </trkpt>
      <trkpt lat="46.7395" lon="5.96853">
        <ele>796.6</ele>
        <time>2021-04-08T13:47:49Z</time>
      </trkpt>
      <trkpt lat="46.73945" lon="5.96854">
        <ele>798.4</ele>
        <time>2021-04-08T13:47:54Z</time>
      </trkpt>
      <trkpt lat="46.7394" lon="5.96854">
        <ele>799.6</ele>
        <time>2021-04-08T13:47:59Z</time>
      </trkpt>
      <trkpt lat="46.73935" lon="5.96854">
        <ele>799.2</ele>
        <time>2021-04-08T13:48:04Z</time>
      </trkpt>
      <trkpt lat="46.7393" lon="5.96851">
        <ele>796.5</ele>
        <time>2021-04-08T13:48:24Z</time>
      </trkpt>
      <trkpt lat="46.73926" lon="5.96848">
        <ele>794.9</ele>
        <time>2021-04-08T13:48:29Z</time>
      </trkpt>
      <trkpt lat="46.73921" lon="5.96845">
        <ele>794.8</ele>
        <time>2021-04-08T13:48:36Z</time>
      </trkpt>
      <trkpt lat="46.73916" lon="5.96845">
        <ele>796.3</ele>
        <time>2021-04-08T13:48:42Z</time>
      </trkpt>
      <trkpt lat="46.73911" lon="5.96844">
        <ele>796.2</ele>
        <time>2021-04-08T13:48:46Z</time>
      </trkpt>
      <trkpt lat="46.73906" lon="5.96844">
        <ele>795.9</ele>
        <time>2021-04-08T13:48:51Z</time>
      </trkpt>
      <trkpt lat="46.73901" lon="5.96845">
        <ele>795.9</ele>
        <time>2021-04-08T13:48:55Z</time>
      </trkpt>
      <trkpt lat="46.73896" lon="5.96843">
        <ele>795.2</ele>
        <time>2021-04-08T13:49:00Z</time>
      </trkpt>
      <trkpt lat="46.73891" lon="5.96842">
        <ele>793.8</ele>
        <time>2021-04-08T13:49:06Z</time>
      </trkpt>
      <trkpt lat="46.73886" lon="5.9684">
        <ele>791.1</ele>
        <time>2021-04-08T13:49:19Z</time>
      </trkpt>
      <trkpt lat="46.73881" lon="5.9684">
        <ele>790.5</ele>
        <time>2021-04-08T13:49:23Z</time>
      </trkpt>
      <trkpt lat="46.73876" lon="5.96841">
        <ele>790.9</ele>
        <time>2021-04-08T13:49:28Z</time>
      </trkpt>
      <trkpt lat="46.73871" lon="5.96842">
        <ele>792.2</ele>
        <time>2021-04-08T13:49:32Z</time>
      </trkpt>
      <trkpt lat="46.73866" lon="5.96842">
        <ele>794.6</ele>
        <time>2021-04-08T13:49:39Z</time>
      </trkpt>
      <trkpt lat="46.73862" lon="5.96845">
        <ele>795.1</ele>
        <time>2021-04-08T13:49:48Z</time>
      </trkpt>
      <trkpt lat="46.73857" lon="5.96845">
        <ele>794.6</ele>
        <time>2021-04-08T13:49:52Z</time>
      </trkpt>
      <trkpt lat="46.73851" lon="5.96847">
        <ele>791.5</ele>
        <time>2021-04-08T13:49:58Z</time>
      </trkpt>
      <trkpt lat="46.73846" lon="5.96848">
        <ele>789.3</ele>
        <time>2021-04-08T13:50:06Z</time>
      </trkpt>
      <trkpt lat="46.73843" lon="5.96853">
        <ele>788.3</ele>
        <time>2021-04-08T13:50:11Z</time>
      </trkpt>
      <trkpt lat="46.73838" lon="5.96854">
        <ele>787.2</ele>
        <time>2021-04-08T13:50:17Z</time>
      </trkpt>
      <trkpt lat="46.73833" lon="5.96855">
        <ele>787.3</ele>
        <time>2021-04-08T13:50:23Z</time>
      </trkpt>
      <trkpt lat="46.73828" lon="5.96854">
        <ele>787.9</ele>
        <time>2021-04-08T13:50:37Z</time>
      </trkpt>
      <trkpt lat="46.73823" lon="5.96852">
        <ele>787.4</ele>
        <time>2021-04-08T13:50:45Z</time>
      </trkpt>
      <trkpt lat="46.7382" lon="5.96846">
        <ele>786.9</ele>
        <time>2021-04-08T13:50:51Z</time>
      </trkpt>
      <trkpt lat="46.73817" lon="5.96841">
        <ele>786.5</ele>
        <time>2021-04-08T13:50:56Z</time>
      </trkpt>
      <trkpt lat="46.73813" lon="5.96835">
        <ele>786.3</ele>
        <time>2021-04-08T13:51:01Z</time>
      </trkpt>
      <trkpt lat="46.7381" lon="5.9683">
        <ele>786.9</ele>
        <time>2021-04-08T13:51:08Z</time>
      </trkpt>
      <trkpt lat="46.73809" lon="5.96823">
        <ele>789.3</ele>
        <time>2021-04-08T13:51:51Z</time>
      </trkpt>
      <trkpt lat="46.73812" lon="5.96818">
        <ele>790.5</ele>
        <time>2021-04-08T13:52:20Z</time>
      </trkpt>
      <trkpt lat="46.73814" lon="5.96811">
        <ele>789.6</ele>
        <time>2021-04-08T13:52:51Z</time>
      </trkpt>
      <trkpt lat="46.73815" lon="5.96805">
        <ele>787.6</ele>
        <time>2021-04-08T13:53:00Z</time>
      </trkpt>
      <trkpt lat="46.73813" lon="5.96799">
        <ele>786.7</ele>
        <time>2021-04-08T13:53:40Z</time>
      </trkpt>
      <trkpt lat="46.73816" lon="5.96794">
        <ele>787.7</ele>
        <time>2021-04-08T13:53:52Z</time>
      </trkpt>
      <trkpt lat="46.73819" lon="5.96788">
        <ele>789.3</ele>
        <time>2021-04-08T13:54:18Z</time>
      </trkpt>
      <trkpt lat="46.73824" lon="5.96786">
        <ele>788.8</ele>
        <time>2021-04-08T13:54:40Z</time>
      </trkpt>
      <trkpt lat="46.73828" lon="5.96783">
        <ele>787.2</ele>
        <time>2021-04-08T13:55:36Z</time>
      </trkpt>
      <trkpt lat="46.73832" lon="5.96778">
        <ele>786.6</ele>
        <time>2021-04-08T13:55:43Z</time>
      </trkpt>
      <trkpt lat="46.73836" lon="5.96774">
        <ele>786.4</ele>
        <time>2021-04-08T13:55:49Z</time>
      </trkpt>
      <trkpt lat="46.73841" lon="5.96773">
        <ele>786.2</ele>
        <time>2021-04-08T13:55:56Z</time>
      </trkpt>
      <trkpt lat="46.73845" lon="5.9677">
        <ele>786.9</ele>
        <time>2021-04-08T13:56:02Z</time>
      </trkpt>
      <trkpt lat="46.7385" lon="5.96766">
        <ele>787.2</ele>
        <time>2021-04-08T13:56:07Z</time>
      </trkpt>
      <trkpt lat="46.73855" lon="5.96763">
        <ele>787</ele>
        <time>2021-04-08T13:56:12Z</time>
      </trkpt>
      <trkpt lat="46.73859" lon="5.96761">
        <ele>786.4</ele>
        <time>2021-04-08T13:56:18Z</time>
      </trkpt>
      <trkpt lat="46.73864" lon="5.96761">
        <ele>785.8</ele>
        <time>2021-04-08T13:56:25Z</time>
      </trkpt>
      <trkpt lat="46.73869" lon="5.9676">
        <ele>785</ele>
        <time>2021-04-08T13:56:32Z</time>
      </trkpt>
      <trkpt lat="46.73874" lon="5.96759">
        <ele>783</ele>
        <time>2021-04-08T13:56:38Z</time>
      </trkpt>
      <trkpt lat="46.73879" lon="5.96761">
        <ele>780</ele>
        <time>2021-04-08T13:56:44Z</time>
      </trkpt>
      <trkpt lat="46.73884" lon="5.96762">
        <ele>778.2</ele>
        <time>2021-04-08T13:56:48Z</time>
      </trkpt>
      <trkpt lat="46.73888" lon="5.96764">
        <ele>775.5</ele>
        <time>2021-04-08T13:56:54Z</time>
      </trkpt>
      <trkpt lat="46.73893" lon="5.96762">
        <ele>772.6</ele>
        <time>2021-04-08T13:57:00Z</time>
      </trkpt>
      <trkpt lat="46.73897" lon="5.96757">
        <ele>769.9</ele>
        <time>2021-04-08T13:57:07Z</time>
      </trkpt>
      <trkpt lat="46.73902" lon="5.96756">
        <ele>769.9</ele>
        <time>2021-04-08T13:57:13Z</time>
      </trkpt>
      <trkpt lat="46.73906" lon="5.96752">
        <ele>768.3</ele>
        <time>2021-04-08T13:57:18Z</time>
      </trkpt>
      <trkpt lat="46.73909" lon="5.96746">
        <ele>765.7</ele>
        <time>2021-04-08T13:57:23Z</time>
      </trkpt>
      <trkpt lat="46.73912" lon="5.96741">
        <ele>764.1</ele>
        <time>2021-04-08T13:57:28Z</time>
      </trkpt>
      <trkpt lat="46.73917" lon="5.9674">
        <ele>763</ele>
        <time>2021-04-08T13:57:34Z</time>
      </trkpt>
      <trkpt lat="46.73922" lon="5.96737">
        <ele>762.3</ele>
        <time>2021-04-08T13:57:38Z</time>
      </trkpt>
      <trkpt lat="46.73926" lon="5.96734">
        <ele>761.3</ele>
        <time>2021-04-08T13:57:43Z</time>
      </trkpt>
      <trkpt lat="46.73929" lon="5.96729">
        <ele>760</ele>
        <time>2021-04-08T13:57:48Z</time>
      </trkpt>
      <trkpt lat="46.73931" lon="5.96723">
        <ele>759.3</ele>
        <time>2021-04-08T13:57:54Z</time>
      </trkpt>
      <trkpt lat="46.73933" lon="5.96717">
        <ele>758.3</ele>
        <time>2021-04-08T13:57:58Z</time>
      </trkpt>
      <trkpt lat="46.73937" lon="5.96713">
        <ele>757.5</ele>
        <time>2021-04-08T13:58:03Z</time>
      </trkpt>
      <trkpt lat="46.73942" lon="5.96712">
        <ele>758.2</ele>
        <time>2021-04-08T13:58:07Z</time>
      </trkpt>
      <trkpt lat="46.73947" lon="5.96711">
        <ele>760.2</ele>
        <time>2021-04-08T13:58:11Z</time>
      </trkpt>
      <trkpt lat="46.73951" lon="5.96707">
        <ele>764.5</ele>
        <time>2021-04-08T13:58:20Z</time>
      </trkpt>
      <trkpt lat="46.73955" lon="5.96702">
        <ele>761.4</ele>
        <time>2021-04-08T13:58:29Z</time>
      </trkpt>
      <trkpt lat="46.73959" lon="5.96703">
        <ele>756.9</ele>
        <time>2021-04-08T13:58:38Z</time>
      </trkpt>
      <trkpt lat="46.73965" lon="5.96706">
        <ele>755.5</ele>
        <time>2021-04-08T13:58:43Z</time>
      </trkpt>
      <trkpt lat="46.73969" lon="5.96708">
        <ele>754.8</ele>
        <time>2021-04-08T13:58:48Z</time>
      </trkpt>
      <trkpt lat="46.73975" lon="5.96709">
        <ele>754.5</ele>
        <time>2021-04-08T13:58:53Z</time>
      </trkpt>
      <trkpt lat="46.73979" lon="5.96708">
        <ele>754.3</ele>
        <time>2021-04-08T13:58:59Z</time>
      </trkpt>
      <trkpt lat="46.73985" lon="5.96708">
        <ele>753.9</ele>
        <time>2021-04-08T13:59:05Z</time>
      </trkpt>
      <trkpt lat="46.73989" lon="5.96706">
        <ele>754</ele>
        <time>2021-04-08T13:59:09Z</time>
      </trkpt>
      <trkpt lat="46.73994" lon="5.96703">
        <ele>754.8</ele>
        <time>2021-04-08T13:59:14Z</time>
      </trkpt>
      <trkpt lat="46.73999" lon="5.96697">
        <ele>756.3</ele>
        <time>2021-04-08T13:59:19Z</time>
      </trkpt>
      <trkpt lat="46.74002" lon="5.96689">
        <ele>757.5</ele>
        <time>2021-04-08T13:59:23Z</time>
      </trkpt>
      <trkpt lat="46.74005" lon="5.96684">
        <ele>759.3</ele>
        <time>2021-04-08T13:59:28Z</time>
      </trkpt>
      <trkpt lat="46.74007" lon="5.96677">
        <ele>760.8</ele>
        <time>2021-04-08T13:59:33Z</time>
      </trkpt>
      <trkpt lat="46.7401" lon="5.96672">
        <ele>762.8</ele>
        <time>2021-04-08T13:59:41Z</time>
      </trkpt>
      <trkpt lat="46.74009" lon="5.96664">
        <ele>763.4</ele>
        <time>2021-04-08T13:59:48Z</time>
      </trkpt>
      <trkpt lat="46.74008" lon="5.96655">
        <ele>764.2</ele>
        <time>2021-04-08T13:59:52Z</time>
      </trkpt>
      <trkpt lat="46.74007" lon="5.96648">
        <ele>766.2</ele>
        <time>2021-04-08T13:59:57Z</time>
      </trkpt>
      <trkpt lat="46.74003" lon="5.96644">
        <ele>766.8</ele>
        <time>2021-04-08T14:00:01Z</time>
      </trkpt>
      <trkpt lat="46.73999" lon="5.96641">
        <ele>767.1</ele>
        <time>2021-04-08T14:00:05Z</time>
      </trkpt>
      <trkpt lat="46.73994" lon="5.96641">
        <ele>767.9</ele>
        <time>2021-04-08T14:00:15Z</time>
      </trkpt>
      <trkpt lat="46.7399" lon="5.96641">
        <ele>768</ele>
        <time>2021-04-08T14:00:22Z</time>
      </trkpt>
      <trkpt lat="46.73985" lon="5.96639">
        <ele>767</ele>
        <time>2021-04-08T14:00:28Z</time>
      </trkpt>
      <trkpt lat="46.7398" lon="5.96639">
        <ele>765.6</ele>
        <time>2021-04-08T14:00:35Z</time>
      </trkpt>
      <trkpt lat="46.73975" lon="5.9664">
        <ele>764.8</ele>
        <time>2021-04-08T14:00:41Z</time>
      </trkpt>
      <trkpt lat="46.7397" lon="5.96643">
        <ele>764.8</ele>
        <time>2021-04-08T14:00:46Z</time>
      </trkpt>
      <trkpt lat="46.73964" lon="5.96643">
        <ele>764.8</ele>
        <time>2021-04-08T14:00:50Z</time>
      </trkpt>
      <trkpt lat="46.73959" lon="5.96643">
        <ele>765</ele>
        <time>2021-04-08T14:00:55Z</time>
      </trkpt>
      <trkpt lat="46.73955" lon="5.96638">
        <ele>765.4</ele>
        <time>2021-04-08T14:01:02Z</time>
      </trkpt>
      <trkpt lat="46.73954" lon="5.96631">
        <ele>765.9</ele>
        <time>2021-04-08T14:01:09Z</time>
      </trkpt>
      <trkpt lat="46.73951" lon="5.96626">
        <ele>763.8</ele>
        <time>2021-04-08T14:01:13Z</time>
      </trkpt>
      <trkpt lat="46.73951" lon="5.96619">
        <ele>762.3</ele>
        <time>2021-04-08T14:01:20Z</time>
      </trkpt>
      <trkpt lat="46.73951" lon="5.96612">
        <ele>762</ele>
        <time>2021-04-08T14:01:25Z</time>
      </trkpt>
      <trkpt lat="46.73953" lon="5.96606">
        <ele>761.5</ele>
        <time>2021-04-08T14:01:30Z</time>
      </trkpt>
      <trkpt lat="46.73957" lon="5.96601">
        <ele>760.7</ele>
        <time>2021-04-08T14:01:35Z</time>
      </trkpt>
      <trkpt lat="46.7396" lon="5.96596">
        <ele>760.3</ele>
        <time>2021-04-08T14:01:39Z</time>
      </trkpt>
      <trkpt lat="46.73961" lon="5.96589">
        <ele>758.7</ele>
        <time>2021-04-08T14:01:44Z</time>
      </trkpt>
      <trkpt lat="46.73963" lon="5.96583">
        <ele>755.8</ele>
        <time>2021-04-08T14:01:51Z</time>
      </trkpt>
      <trkpt lat="46.73964" lon="5.96577">
        <ele>750.6</ele>
        <time>2021-04-08T14:01:58Z</time>
      </trkpt>
      <trkpt lat="46.73966" lon="5.96569">
        <ele>744.2</ele>
        <time>2021-04-08T14:02:05Z</time>
      </trkpt>
      <trkpt lat="46.73969" lon="5.96564">
        <ele>740.1</ele>
        <time>2021-04-08T14:02:11Z</time>
      </trkpt>
      <trkpt lat="46.73974" lon="5.9656">
        <ele>735.5</ele>
        <time>2021-04-08T14:02:20Z</time>
      </trkpt>
      <trkpt lat="46.73978" lon="5.96555">
        <ele>731.7</ele>
        <time>2021-04-08T14:02:27Z</time>
      </trkpt>
      <trkpt lat="46.73978" lon="5.96548">
        <ele>728.6</ele>
        <time>2021-04-08T14:02:36Z</time>
      </trkpt>
      <trkpt lat="46.7398" lon="5.96542">
        <ele>727.8</ele>
        <time>2021-04-08T14:02:47Z</time>
      </trkpt>
      <trkpt lat="46.73979" lon="5.96535">
        <ele>727.6</ele>
        <time>2021-04-08T14:02:54Z</time>
      </trkpt>
      <trkpt lat="46.73978" lon="5.96528">
        <ele>727.3</ele>
        <time>2021-04-08T14:03:00Z</time>
      </trkpt>
      <trkpt lat="46.73976" lon="5.96521">
        <ele>726.5</ele>
        <time>2021-04-08T14:03:05Z</time>
      </trkpt>
      <trkpt lat="46.73974" lon="5.96514">
        <ele>725.9</ele>
        <time>2021-04-08T14:03:12Z</time>
      </trkpt>
      <trkpt lat="46.73971" lon="5.96508">
        <ele>725.5</ele>
        <time>2021-04-08T14:03:20Z</time>
      </trkpt>
      <trkpt lat="46.73969" lon="5.96502">
        <ele>725.2</ele>
        <time>2021-04-08T14:03:25Z</time>
      </trkpt>
      <trkpt lat="46.73966" lon="5.96496">
        <ele>724.4</ele>
        <time>2021-04-08T14:03:31Z</time>
      </trkpt>
      <trkpt lat="46.73963" lon="5.96491">
        <ele>722.9</ele>
        <time>2021-04-08T14:03:37Z</time>
      </trkpt>
      <trkpt lat="46.7396" lon="5.96485">
        <ele>719.4</ele>
        <time>2021-04-08T14:03:48Z</time>
      </trkpt>
      <trkpt lat="46.73961" lon="5.96478">
        <ele>713.1</ele>
        <time>2021-04-08T14:04:15Z</time>
      </trkpt>
      <trkpt lat="46.73956" lon="5.96473">
        <ele>711.5</ele>
        <time>2021-04-08T14:04:22Z</time>
      </trkpt>
      <trkpt lat="46.73952" lon="5.96473">
        <ele>710.4</ele>
        <time>2021-04-08T14:04:30Z</time>
      </trkpt>
      <trkpt lat="46.73947" lon="5.96471">
        <ele>709.9</ele>
        <time>2021-04-08T14:04:37Z</time>
      </trkpt>
      <trkpt lat="46.73942" lon="5.96469">
        <ele>709.1</ele>
        <time>2021-04-08T14:04:44Z</time>
      </trkpt>
      <trkpt lat="46.73938" lon="5.96469">
        <ele>708.4</ele>
        <time>2021-04-08T14:04:51Z</time>
      </trkpt>
      <trkpt lat="46.73934" lon="5.96464">
        <ele>707.3</ele>
        <time>2021-04-08T14:04:57Z</time>
      </trkpt>
      <trkpt lat="46.73932" lon="5.96458">
        <ele>706.9</ele>
        <time>2021-04-08T14:05:01Z</time>
      </trkpt>
      <trkpt lat="46.73928" lon="5.96453">
        <ele>706.5</ele>
        <time>2021-04-08T14:05:06Z</time>
      </trkpt>
      <trkpt lat="46.73923" lon="5.96454">
        <ele>704.4</ele>
        <time>2021-04-08T14:05:24Z</time>
      </trkpt>
      <trkpt lat="46.73918" lon="5.96457">
        <ele>701.6</ele>
        <time>2021-04-08T14:07:52Z</time>
      </trkpt>
      <trkpt lat="46.73923" lon="5.96459">
        <ele>699.7</ele>
        <time>2021-04-08T14:08:01Z</time>
      </trkpt>
      <trkpt lat="46.73928" lon="5.9646">
        <ele>699.1</ele>
        <time>2021-04-08T14:08:09Z</time>
      </trkpt>
      <trkpt lat="46.73932" lon="5.96459">
        <ele>698.6</ele>
        <time>2021-04-08T14:10:10Z</time>
      </trkpt>
      <trkpt lat="46.73937" lon="5.96457">
        <ele>697.5</ele>
        <time>2021-04-08T14:10:16Z</time>
      </trkpt>
      <trkpt lat="46.73942" lon="5.96456">
        <ele>696.1</ele>
        <time>2021-04-08T14:10:21Z</time>
      </trkpt>
      <trkpt lat="46.73946" lon="5.96455">
        <ele>694.7</ele>
        <time>2021-04-08T14:10:26Z</time>
      </trkpt>
      <trkpt lat="46.73951" lon="5.96454">
        <ele>693.3</ele>
        <time>2021-04-08T14:10:33Z</time>
      </trkpt>
      <trkpt lat="46.73956" lon="5.96456">
        <ele>692.4</ele>
        <time>2021-04-08T14:10:41Z</time>
      </trkpt>
      <trkpt lat="46.73961" lon="5.96455">
        <ele>692.3</ele>
        <time>2021-04-08T14:10:48Z</time>
      </trkpt>
      <trkpt lat="46.73965" lon="5.96456">
        <ele>692.1</ele>
        <time>2021-04-08T14:10:55Z</time>
      </trkpt>
      <trkpt lat="46.7397" lon="5.96455">
        <ele>692</ele>
        <time>2021-04-08T14:10:59Z</time>
      </trkpt>
      <trkpt lat="46.73974" lon="5.96454">
        <ele>692</ele>
        <time>2021-04-08T14:11:03Z</time>
      </trkpt>
      <trkpt lat="46.73979" lon="5.96452">
        <ele>692</ele>
        <time>2021-04-08T14:11:08Z</time>
      </trkpt>
      <trkpt lat="46.73984" lon="5.9645">
        <ele>691.7</ele>
        <time>2021-04-08T14:11:14Z</time>
      </trkpt>
      <trkpt lat="46.7399" lon="5.96447">
        <ele>692.6</ele>
        <time>2021-04-08T14:11:18Z</time>
      </trkpt>
      <trkpt lat="46.73995" lon="5.96445">
        <ele>694</ele>
        <time>2021-04-08T14:11:22Z</time>
      </trkpt>
      <trkpt lat="46.74" lon="5.96444">
        <ele>695.8</ele>
        <time>2021-04-08T14:11:28Z</time>
      </trkpt>
      <trkpt lat="46.74005" lon="5.9644">
        <ele>696.9</ele>
        <time>2021-04-08T14:11:33Z</time>
      </trkpt>
      <trkpt lat="46.7401" lon="5.96436">
        <ele>696.4</ele>
        <time>2021-04-08T14:11:37Z</time>
      </trkpt>
      <trkpt lat="46.74015" lon="5.96432">
        <ele>696.6</ele>
        <time>2021-04-08T14:11:41Z</time>
      </trkpt>
      <trkpt lat="46.74019" lon="5.96427">
        <ele>697</ele>
        <time>2021-04-08T14:11:45Z</time>
      </trkpt>
      <trkpt lat="46.74023" lon="5.96423">
        <ele>697.3</ele>
        <time>2021-04-08T14:11:49Z</time>
      </trkpt>
      <trkpt lat="46.74026" lon="5.96416">
        <ele>698.7</ele>
        <time>2021-04-08T14:11:54Z</time>
      </trkpt>
      <trkpt lat="46.74029" lon="5.96409">
        <ele>697.1</ele>
        <time>2021-04-08T14:11:59Z</time>
      </trkpt>
      <trkpt lat="46.74031" lon="5.96403">
        <ele>697</ele>
        <time>2021-04-08T14:12:05Z</time>
      </trkpt>
      <trkpt lat="46.74034" lon="5.96396">
        <ele>698.2</ele>
        <time>2021-04-08T14:12:11Z</time>
      </trkpt>
      <trkpt lat="46.74036" lon="5.96391">
        <ele>700</ele>
        <time>2021-04-08T14:12:18Z</time>
      </trkpt>
      <trkpt lat="46.74039" lon="5.96384">
        <ele>700.4</ele>
        <time>2021-04-08T14:12:22Z</time>
      </trkpt>
      <trkpt lat="46.74042" lon="5.96379">
        <ele>700.2</ele>
        <time>2021-04-08T14:12:28Z</time>
      </trkpt>
      <trkpt lat="46.74045" lon="5.96373">
        <ele>698.6</ele>
        <time>2021-04-08T14:12:33Z</time>
      </trkpt>
      <trkpt lat="46.74048" lon="5.96368">
        <ele>697.5</ele>
        <time>2021-04-08T14:12:37Z</time>
      </trkpt>
      <trkpt lat="46.74051" lon="5.96363">
        <ele>696.5</ele>
        <time>2021-04-08T14:12:42Z</time>
      </trkpt>
      <trkpt lat="46.74055" lon="5.96358">
        <ele>694.4</ele>
        <time>2021-04-08T14:12:48Z</time>
      </trkpt>
      <trkpt lat="46.74059" lon="5.96352">
        <ele>692.3</ele>
        <time>2021-04-08T14:12:54Z</time>
      </trkpt>
      <trkpt lat="46.74063" lon="5.96347">
        <ele>691.1</ele>
        <time>2021-04-08T14:13:00Z</time>
      </trkpt>
      <trkpt lat="46.74067" lon="5.96343">
        <ele>691</ele>
        <time>2021-04-08T14:13:06Z</time>
      </trkpt>
      <trkpt lat="46.74072" lon="5.96338">
        <ele>690.8</ele>
        <time>2021-04-08T14:13:12Z</time>
      </trkpt>
      <trkpt lat="46.74075" lon="5.96333">
        <ele>690.8</ele>
        <time>2021-04-08T14:13:17Z</time>
      </trkpt>
      <trkpt lat="46.74079" lon="5.96328">
        <ele>691.2</ele>
        <time>2021-04-08T14:13:22Z</time>
      </trkpt>
      <trkpt lat="46.74082" lon="5.96322">
        <ele>692.2</ele>
        <time>2021-04-08T14:13:27Z</time>
      </trkpt>
      <trkpt lat="46.74086" lon="5.96318">
        <ele>693.6</ele>
        <time>2021-04-08T14:13:32Z</time>
      </trkpt>
      <trkpt lat="46.7409" lon="5.96313">
        <ele>695</ele>
        <time>2021-04-08T14:13:37Z</time>
      </trkpt>
      <trkpt lat="46.74093" lon="5.96308">
        <ele>696</ele>
        <time>2021-04-08T14:13:42Z</time>
      </trkpt>
      <trkpt lat="46.74097" lon="5.96302">
        <ele>696.3</ele>
        <time>2021-04-08T14:13:47Z</time>
      </trkpt>
      <trkpt lat="46.741" lon="5.96297">
        <ele>695.7</ele>
        <time>2021-04-08T14:13:52Z</time>
      </trkpt>
      <trkpt lat="46.74105" lon="5.96294">
        <ele>694.4</ele>
        <time>2021-04-08T14:13:59Z</time>
      </trkpt>
      <trkpt lat="46.74109" lon="5.96295">
        <ele>693.7</ele>
        <time>2021-04-08T14:14:04Z</time>
      </trkpt>
      <trkpt lat="46.74115" lon="5.96296">
        <ele>693.4</ele>
        <time>2021-04-08T14:14:08Z</time>
      </trkpt>
      <trkpt lat="46.74121" lon="5.96297">
        <ele>693.3</ele>
        <time>2021-04-08T14:14:12Z</time>
      </trkpt>
      <trkpt lat="46.74125" lon="5.96297">
        <ele>693.5</ele>
        <time>2021-04-08T14:14:16Z</time>
      </trkpt>
      <trkpt lat="46.7413" lon="5.96299">
        <ele>694.1</ele>
        <time>2021-04-08T14:14:21Z</time>
      </trkpt>
      <trkpt lat="46.74135" lon="5.96297">
        <ele>694.2</ele>
        <time>2021-04-08T14:14:28Z</time>
      </trkpt>
      <trkpt lat="46.74139" lon="5.96297">
        <ele>693.5</ele>
        <time>2021-04-08T14:14:33Z</time>
      </trkpt>
      <trkpt lat="46.74143" lon="5.96298">
        <ele>693.1</ele>
        <time>2021-04-08T14:14:39Z</time>
      </trkpt>
      <trkpt lat="46.74149" lon="5.96299">
        <ele>692.9</ele>
        <time>2021-04-08T14:14:46Z</time>
      </trkpt>
      <trkpt lat="46.74154" lon="5.96297">
        <ele>692.5</ele>
        <time>2021-04-08T14:14:52Z</time>
      </trkpt>
      <trkpt lat="46.74159" lon="5.96295">
        <ele>692.2</ele>
        <time>2021-04-08T14:14:57Z</time>
      </trkpt>
      <trkpt lat="46.74164" lon="5.96296">
        <ele>692</ele>
        <time>2021-04-08T14:15:03Z</time>
      </trkpt>
      <trkpt lat="46.74168" lon="5.96298">
        <ele>691.7</ele>
        <time>2021-04-08T14:15:08Z</time>
      </trkpt>
      <trkpt lat="46.74174" lon="5.96301">
        <ele>691.3</ele>
        <time>2021-04-08T14:15:13Z</time>
      </trkpt>
      <trkpt lat="46.74178" lon="5.96306">
        <ele>690.4</ele>
        <time>2021-04-08T14:15:20Z</time>
      </trkpt>
      <trkpt lat="46.74183" lon="5.96309">
        <ele>689.2</ele>
        <time>2021-04-08T14:15:24Z</time>
      </trkpt>
      <trkpt lat="46.74187" lon="5.96311">
        <ele>688.3</ele>
        <time>2021-04-08T14:15:28Z</time>
      </trkpt>
      <trkpt lat="46.74192" lon="5.96312">
        <ele>687.8</ele>
        <time>2021-04-08T14:15:33Z</time>
      </trkpt>
      <trkpt lat="46.74196" lon="5.96316">
        <ele>687.9</ele>
        <time>2021-04-08T14:15:40Z</time>
      </trkpt>
      <trkpt lat="46.74201" lon="5.96317">
        <ele>688.1</ele>
        <time>2021-04-08T14:15:48Z</time>
      </trkpt>
      <trkpt lat="46.74205" lon="5.96316">
        <ele>688.2</ele>
        <time>2021-04-08T14:15:56Z</time>
      </trkpt>
      <trkpt lat="46.7421" lon="5.96316">
        <ele>687.6</ele>
        <time>2021-04-08T14:16:03Z</time>
      </trkpt>
      <trkpt lat="46.74215" lon="5.96319">
        <ele>686.8</ele>
        <time>2021-04-08T14:16:07Z</time>
      </trkpt>
      <trkpt lat="46.74219" lon="5.96319">
        <ele>685.9</ele>
        <time>2021-04-08T14:16:11Z</time>
      </trkpt>
      <trkpt lat="46.74224" lon="5.96318">
        <ele>683.7</ele>
        <time>2021-04-08T14:16:20Z</time>
      </trkpt>
      <trkpt lat="46.74228" lon="5.96321">
        <ele>683.1</ele>
        <time>2021-04-08T14:16:25Z</time>
      </trkpt>
      <trkpt lat="46.74234" lon="5.96322">
        <ele>682.8</ele>
        <time>2021-04-08T14:16:29Z</time>
      </trkpt>
      <trkpt lat="46.74241" lon="5.96322">
        <ele>682.8</ele>
        <time>2021-04-08T14:16:33Z</time>
      </trkpt>
      <trkpt lat="46.74248" lon="5.96322">
        <ele>683.1</ele>
        <time>2021-04-08T14:16:37Z</time>
      </trkpt>
      <trkpt lat="46.74253" lon="5.96322">
        <ele>683.1</ele>
        <time>2021-04-08T14:16:42Z</time>
      </trkpt>
      <trkpt lat="46.74258" lon="5.96321">
        <ele>683.3</ele>
        <time>2021-04-08T14:16:47Z</time>
      </trkpt>
      <trkpt lat="46.74263" lon="5.96322">
        <ele>683.7</ele>
        <time>2021-04-08T14:16:54Z</time>
      </trkpt>
      <trkpt lat="46.74268" lon="5.96322">
        <ele>684.6</ele>
        <time>2021-04-08T14:17:06Z</time>
      </trkpt>
      <trkpt lat="46.74272" lon="5.96327">
        <ele>685.2</ele>
        <time>2021-04-08T14:17:47Z</time>
      </trkpt>
      <trkpt lat="46.74276" lon="5.96331">
        <ele>684.3</ele>
        <time>2021-04-08T14:17:54Z</time>
      </trkpt>
      <trkpt lat="46.7428" lon="5.96334">
        <ele>682.7</ele>
        <time>2021-04-08T14:18:01Z</time>
      </trkpt>
      <trkpt lat="46.74283" lon="5.9634">
        <ele>679.7</ele>
        <time>2021-04-08T14:18:12Z</time>
      </trkpt>
      <trkpt lat="46.74278" lon="5.96339">
        <ele>678.5</ele>
        <time>2021-04-08T14:18:17Z</time>
      </trkpt>
      <trkpt lat="46.74273" lon="5.96337">
        <ele>678.5</ele>
        <time>2021-04-08T14:18:21Z</time>
      </trkpt>
      <trkpt lat="46.74267" lon="5.96334">
        <ele>678.7</ele>
        <time>2021-04-08T14:18:25Z</time>
      </trkpt>
      <trkpt lat="46.74262" lon="5.96332">
        <ele>678.6</ele>
        <time>2021-04-08T14:18:29Z</time>
      </trkpt>
      <trkpt lat="46.74257" lon="5.96331">
        <ele>677.8</ele>
        <time>2021-04-08T14:18:34Z</time>
      </trkpt>
      <trkpt lat="46.74252" lon="5.96328">
        <ele>678.2</ele>
        <time>2021-04-08T14:18:41Z</time>
      </trkpt>
      <trkpt lat="46.74256" lon="5.96322">
        <ele>680.7</ele>
        <time>2021-04-08T14:18:48Z</time>
      </trkpt>
      <trkpt lat="46.7426" lon="5.96317">
        <ele>682.7</ele>
        <time>2021-04-08T14:18:53Z</time>
      </trkpt>
      <trkpt lat="46.74265" lon="5.96315">
        <ele>684.5</ele>
        <time>2021-04-08T14:18:59Z</time>
      </trkpt>
      <trkpt lat="46.7427" lon="5.96314">
        <ele>686.3</ele>
        <time>2021-04-08T14:19:05Z</time>
      </trkpt>
      <trkpt lat="46.74274" lon="5.96312">
        <ele>685.5</ele>
        <time>2021-04-08T14:19:13Z</time>
      </trkpt>
      <trkpt lat="46.74278" lon="5.9631">
        <ele>685.5</ele>
        <time>2021-04-08T14:19:19Z</time>
      </trkpt>
      <trkpt lat="46.74283" lon="5.9631">
        <ele>685.9</ele>
        <time>2021-04-08T14:19:25Z</time>
      </trkpt>
      <trkpt lat="46.74288" lon="5.9631">
        <ele>684.6</ele>
        <time>2021-04-08T14:19:38Z</time>
      </trkpt>
      <trkpt lat="46.74293" lon="5.96307">
        <ele>684.1</ele>
        <time>2021-04-08T14:19:45Z</time>
      </trkpt>
      <trkpt lat="46.74297" lon="5.96304">
        <ele>684.2</ele>
        <time>2021-04-08T14:19:51Z</time>
      </trkpt>
      <trkpt lat="46.74302" lon="5.963">
        <ele>685.8</ele>
        <time>2021-04-08T14:19:57Z</time>
      </trkpt>
      <trkpt lat="46.74306" lon="5.96297">
        <ele>688</ele>
        <time>2021-04-08T14:20:03Z</time>
      </trkpt>
      <trkpt lat="46.7431" lon="5.96294">
        <ele>685.8</ele>
        <time>2021-04-08T14:20:24Z</time>
      </trkpt>
      <trkpt lat="46.74315" lon="5.96293">
        <ele>682.1</ele>
        <time>2021-04-08T14:20:46Z</time>
      </trkpt>
      <trkpt lat="46.74319" lon="5.96294">
        <ele>680.4</ele>
        <time>2021-04-08T14:21:00Z</time>
      </trkpt>
      <trkpt lat="46.74322" lon="5.96288">
        <ele>678.6</ele>
        <time>2021-04-08T14:21:14Z</time>
      </trkpt>
      <trkpt lat="46.74321" lon="5.96282">
        <ele>672.8</ele>
        <time>2021-04-08T14:22:20Z</time>
      </trkpt>
      <trkpt lat="46.74326" lon="5.96285">
        <ele>666.7</ele>
        <time>2021-04-08T14:22:53Z</time>
      </trkpt>
      <trkpt lat="46.74331" lon="5.96283">
        <ele>665.7</ele>
        <time>2021-04-08T14:22:57Z</time>
      </trkpt>
      <trkpt lat="46.74336" lon="5.96283">
        <ele>664.6</ele>
        <time>2021-04-08T14:23:02Z</time>
      </trkpt>
      <trkpt lat="46.74334" lon="5.96274">
        <ele>661.7</ele>
        <time>2021-04-08T14:23:32Z</time>
      </trkpt>
      <trkpt lat="46.74338" lon="5.96279">
        <ele>661.5</ele>
        <time>2021-04-08T14:24:09Z</time>
      </trkpt>
      <trkpt lat="46.74335" lon="5.96273">
        <ele>659.9</ele>
        <time>2021-04-08T14:24:32Z</time>
      </trkpt>
      <trkpt lat="46.74341" lon="5.9627">
        <ele>657.7</ele>
        <time>2021-04-08T14:24:47Z</time>
      </trkpt>
      <trkpt lat="46.74346" lon="5.96267">
        <ele>656.5</ele>
        <time>2021-04-08T14:24:52Z</time>
      </trkpt>
      <trkpt lat="46.74351" lon="5.96265">
        <ele>655.5</ele>
        <time>2021-04-08T14:24:57Z</time>
      </trkpt>
      <trkpt lat="46.74353" lon="5.96259">
        <ele>654.7</ele>
        <time>2021-04-08T14:25:04Z</time>
      </trkpt>
      <trkpt lat="46.74352" lon="5.96253">
        <ele>654.5</ele>
        <time>2021-04-08T14:25:14Z</time>
      </trkpt>
      <trkpt lat="46.74347" lon="5.96254">
        <ele>654.5</ele>
        <time>2021-04-08T14:25:21Z</time>
      </trkpt>
      <trkpt lat="46.74351" lon="5.96259">
        <ele>656</ele>
        <time>2021-04-08T14:25:50Z</time>
      </trkpt>
      <trkpt lat="46.74352" lon="5.96251">
        <ele>651.9</ele>
        <time>2021-04-08T14:26:14Z</time>
      </trkpt>
      <trkpt lat="46.74353" lon="5.96244">
        <ele>650</ele>
        <time>2021-04-08T14:26:19Z</time>
      </trkpt>
      <trkpt lat="46.74357" lon="5.96239">
        <ele>647.4</ele>
        <time>2021-04-08T14:26:35Z</time>
      </trkpt>
      <trkpt lat="46.74362" lon="5.96239">
        <ele>646.8</ele>
        <time>2021-04-08T14:26:46Z</time>
      </trkpt>
      <trkpt lat="46.74367" lon="5.96239">
        <ele>646.1</ele>
        <time>2021-04-08T14:26:53Z</time>
      </trkpt>
      <trkpt lat="46.74372" lon="5.9624">
        <ele>645.7</ele>
        <time>2021-04-08T14:26:59Z</time>
      </trkpt>
      <trkpt lat="46.74377" lon="5.96238">
        <ele>645.3</ele>
        <time>2021-04-08T14:27:06Z</time>
      </trkpt>
      <trkpt lat="46.74381" lon="5.9624">
        <ele>643.8</ele>
        <time>2021-04-08T14:27:18Z</time>
      </trkpt>
      <trkpt lat="46.74386" lon="5.96242">
        <ele>641.3</ele>
        <time>2021-04-08T14:27:26Z</time>
      </trkpt>
      <trkpt lat="46.74391" lon="5.96244">
        <ele>639.2</ele>
        <time>2021-04-08T14:27:37Z</time>
      </trkpt>
      <trkpt lat="46.74396" lon="5.96242">
        <ele>637.5</ele>
        <time>2021-04-08T14:28:01Z</time>
      </trkpt>
      <trkpt lat="46.74401" lon="5.96243">
        <ele>636</ele>
        <time>2021-04-08T14:28:08Z</time>
      </trkpt>
      <trkpt lat="46.74406" lon="5.96243">
        <ele>633.7</ele>
        <time>2021-04-08T14:28:16Z</time>
      </trkpt>
      <trkpt lat="46.74409" lon="5.96247">
        <ele>628.9</ele>
        <time>2021-04-08T14:28:32Z</time>
      </trkpt>
      <trkpt lat="46.74413" lon="5.96252">
        <ele>626.6</ele>
        <time>2021-04-08T14:29:46Z</time>
      </trkpt>
      <trkpt lat="46.74417" lon="5.96256">
        <ele>626.2</ele>
        <time>2021-04-08T14:29:51Z</time>
      </trkpt>
      <trkpt lat="46.74422" lon="5.96258">
        <ele>626.9</ele>
        <time>2021-04-08T14:30:00Z</time>
      </trkpt>
      <trkpt lat="46.74426" lon="5.96263">
        <ele>627</ele>
        <time>2021-04-08T14:30:04Z</time>
      </trkpt>
      <trkpt lat="46.7443" lon="5.96267">
        <ele>628</ele>
        <time>2021-04-08T14:30:09Z</time>
      </trkpt>
      <trkpt lat="46.74435" lon="5.96268">
        <ele>628.6</ele>
        <time>2021-04-08T14:30:21Z</time>
      </trkpt>
      <trkpt lat="46.74439" lon="5.96267">
        <ele>627.6</ele>
        <time>2021-04-08T14:30:29Z</time>
      </trkpt>
      <trkpt lat="46.74444" lon="5.96269">
        <ele>626.3</ele>
        <time>2021-04-08T14:30:37Z</time>
      </trkpt>
      <trkpt lat="46.74449" lon="5.9627">
        <ele>626</ele>
        <time>2021-04-08T14:30:44Z</time>
      </trkpt>
      <trkpt lat="46.74455" lon="5.96272">
        <ele>626</ele>
        <time>2021-04-08T14:30:50Z</time>
      </trkpt>
      <trkpt lat="46.7446" lon="5.96272">
        <ele>626.4</ele>
        <time>2021-04-08T14:30:54Z</time>
      </trkpt>
      <trkpt lat="46.74465" lon="5.96273">
        <ele>627.1</ele>
        <time>2021-04-08T14:30:59Z</time>
      </trkpt>
      <trkpt lat="46.7447" lon="5.9627">
        <ele>628.9</ele>
        <time>2021-04-08T14:31:05Z</time>
      </trkpt>
      <trkpt lat="46.74474" lon="5.96267">
        <ele>631.8</ele>
        <time>2021-04-08T14:31:13Z</time>
      </trkpt>
      <trkpt lat="46.74474" lon="5.96257">
        <ele>634.3</ele>
        <time>2021-04-08T14:31:17Z</time>
      </trkpt>
      <trkpt lat="46.74479" lon="5.96253">
        <ele>637.1</ele>
        <time>2021-04-08T14:31:23Z</time>
      </trkpt>
      <trkpt lat="46.74484" lon="5.96255">
        <ele>638.4</ele>
        <time>2021-04-08T14:31:27Z</time>
      </trkpt>
      <trkpt lat="46.74485" lon="5.96247">
        <ele>640.4</ele>
        <time>2021-04-08T14:31:31Z</time>
      </trkpt>
      <trkpt lat="46.74489" lon="5.96242">
        <ele>643</ele>
        <time>2021-04-08T14:31:38Z</time>
      </trkpt>
      <trkpt lat="46.74494" lon="5.9624">
        <ele>644.8</ele>
        <time>2021-04-08T14:31:45Z</time>
      </trkpt>
      <trkpt lat="46.74498" lon="5.96239">
        <ele>645.6</ele>
        <time>2021-04-08T14:31:52Z</time>
      </trkpt>
      <trkpt lat="46.74498" lon="5.96231">
        <ele>645.1</ele>
        <time>2021-04-08T14:31:56Z</time>
      </trkpt>
      <trkpt lat="46.74502" lon="5.96228">
        <ele>644.2</ele>
        <time>2021-04-08T14:32:04Z</time>
      </trkpt>
      <trkpt lat="46.74507" lon="5.96227">
        <ele>643.5</ele>
        <time>2021-04-08T14:32:13Z</time>
      </trkpt>
      <trkpt lat="46.74508" lon="5.9622">
        <ele>642.6</ele>
        <time>2021-04-08T14:32:19Z</time>
      </trkpt>
      <trkpt lat="46.7451" lon="5.96213">
        <ele>641.3</ele>
        <time>2021-04-08T14:32:24Z</time>
      </trkpt>
      <trkpt lat="46.74513" lon="5.96208">
        <ele>639.8</ele>
        <time>2021-04-08T14:32:31Z</time>
      </trkpt>
      <trkpt lat="46.74515" lon="5.96202">
        <ele>636.3</ele>
        <time>2021-04-08T14:32:38Z</time>
      </trkpt>
      <trkpt lat="46.7452" lon="5.96199">
        <ele>633.4</ele>
        <time>2021-04-08T14:32:45Z</time>
      </trkpt>
      <trkpt lat="46.74524" lon="5.96195">
        <ele>631.5</ele>
        <time>2021-04-08T14:32:50Z</time>
      </trkpt>
      <trkpt lat="46.74528" lon="5.96192">
        <ele>628.2</ele>
        <time>2021-04-08T14:32:58Z</time>
      </trkpt>
      <trkpt lat="46.74531" lon="5.96187">
        <ele>625.4</ele>
        <time>2021-04-08T14:33:05Z</time>
      </trkpt>
      <trkpt lat="46.74535" lon="5.96181">
        <ele>622.4</ele>
        <time>2021-04-08T14:33:10Z</time>
      </trkpt>
      <trkpt lat="46.74539" lon="5.96183">
        <ele>616.7</ele>
        <time>2021-04-08T14:33:18Z</time>
      </trkpt>
      <trkpt lat="46.74543" lon="5.9618">
        <ele>609.9</ele>
        <time>2021-04-08T14:33:25Z</time>
      </trkpt>
      <trkpt lat="46.74548" lon="5.96178">
        <ele>605.5</ele>
        <time>2021-04-08T14:33:31Z</time>
      </trkpt>
      <trkpt lat="46.74553" lon="5.96176">
        <ele>603.2</ele>
        <time>2021-04-08T14:33:36Z</time>
      </trkpt>
      <trkpt lat="46.74557" lon="5.96172">
        <ele>601.4</ele>
        <time>2021-04-08T14:33:44Z</time>
      </trkpt>
      <trkpt lat="46.74561" lon="5.96167">
        <ele>601.7</ele>
        <time>2021-04-08T14:33:49Z</time>
      </trkpt>
      <trkpt lat="46.74565" lon="5.96165">
        <ele>602.8</ele>
        <time>2021-04-08T14:33:54Z</time>
      </trkpt>
      <trkpt lat="46.74567" lon="5.96158">
        <ele>604.1</ele>
        <time>2021-04-08T14:33:58Z</time>
      </trkpt>
      <trkpt lat="46.74568" lon="5.96151">
        <ele>605.4</ele>
        <time>2021-04-08T14:34:02Z</time>
      </trkpt>
      <trkpt lat="46.7457" lon="5.96145">
        <ele>606.9</ele>
        <time>2021-04-08T14:34:07Z</time>
      </trkpt>
      <trkpt lat="46.74574" lon="5.96141">
        <ele>608.6</ele>
        <time>2021-04-08T14:34:16Z</time>
      </trkpt>
      <trkpt lat="46.74578" lon="5.96137">
        <ele>609.3</ele>
        <time>2021-04-08T14:34:22Z</time>
      </trkpt>
      <trkpt lat="46.74582" lon="5.96133">
        <ele>609.6</ele>
        <time>2021-04-08T14:34:27Z</time>
      </trkpt>
      <trkpt lat="46.74586" lon="5.9613">
        <ele>609.6</ele>
        <time>2021-04-08T14:34:32Z</time>
      </trkpt>
      <trkpt lat="46.74591" lon="5.96127">
        <ele>609</ele>
        <time>2021-04-08T14:34:38Z</time>
      </trkpt>
      <trkpt lat="46.74595" lon="5.96123">
        <ele>607.9</ele>
        <time>2021-04-08T14:34:44Z</time>
      </trkpt>
      <trkpt lat="46.74599" lon="5.96121">
        <ele>606.2</ele>
        <time>2021-04-08T14:34:50Z</time>
      </trkpt>
      <trkpt lat="46.74602" lon="5.96116">
        <ele>604.8</ele>
        <time>2021-04-08T14:34:55Z</time>
      </trkpt>
      <trkpt lat="46.74605" lon="5.96111">
        <ele>603.9</ele>
        <time>2021-04-08T14:34:59Z</time>
      </trkpt>
      <trkpt lat="46.7461" lon="5.96107">
        <ele>602.9</ele>
        <time>2021-04-08T14:35:04Z</time>
      </trkpt>
      <trkpt lat="46.74615" lon="5.96106">
        <ele>601.8</ele>
        <time>2021-04-08T14:35:10Z</time>
      </trkpt>
      <trkpt lat="46.74618" lon="5.96101">
        <ele>600.6</ele>
        <time>2021-04-08T14:35:16Z</time>
      </trkpt>
      <trkpt lat="46.74622" lon="5.96095">
        <ele>600.5</ele>
        <time>2021-04-08T14:35:20Z</time>
      </trkpt>
      <trkpt lat="46.74625" lon="5.96091">
        <ele>600.3</ele>
        <time>2021-04-08T14:35:25Z</time>
      </trkpt>
      <trkpt lat="46.7463" lon="5.96091">
        <ele>599.6</ele>
        <time>2021-04-08T14:35:31Z</time>
      </trkpt>
      <trkpt lat="46.74636" lon="5.96093">
        <ele>598.6</ele>
        <time>2021-04-08T14:35:36Z</time>
      </trkpt>
      <trkpt lat="46.7464" lon="5.96091">
        <ele>597.6</ele>
        <time>2021-04-08T14:35:41Z</time>
      </trkpt>
      <trkpt lat="46.74644" lon="5.96086">
        <ele>596.5</ele>
        <time>2021-04-08T14:35:46Z</time>
      </trkpt>
      <trkpt lat="46.74648" lon="5.96083">
        <ele>594.9</ele>
        <time>2021-04-08T14:35:52Z</time>
      </trkpt>
      <trkpt lat="46.7465" lon="5.96077">
        <ele>594</ele>
        <time>2021-04-08T14:35:57Z</time>
      </trkpt>
      <trkpt lat="46.7465" lon="5.96065">
        <ele>594.1</ele>
        <time>2021-04-08T14:36:01Z</time>
      </trkpt>
      <trkpt lat="46.74652" lon="5.96059">
        <ele>593.4</ele>
        <time>2021-04-08T14:36:09Z</time>
      </trkpt>
      <trkpt lat="46.74657" lon="5.96056">
        <ele>593.2</ele>
        <time>2021-04-08T14:36:16Z</time>
      </trkpt>
      <trkpt lat="46.74661" lon="5.96054">
        <ele>592.9</ele>
        <time>2021-04-08T14:36:22Z</time>
      </trkpt>
      <trkpt lat="46.74665" lon="5.9605">
        <ele>592.5</ele>
        <time>2021-04-08T14:36:28Z</time>
      </trkpt>
      <trkpt lat="46.74669" lon="5.96046">
        <ele>592.1</ele>
        <time>2021-04-08T14:36:34Z</time>
      </trkpt>
      <trkpt lat="46.7467" lon="5.96039">
        <ele>592.1</ele>
        <time>2021-04-08T14:36:41Z</time>
      </trkpt>
      <trkpt lat="46.74673" lon="5.96033">
        <ele>592.5</ele>
        <time>2021-04-08T14:36:47Z</time>
      </trkpt>
      <trkpt lat="46.74677" lon="5.96028">
        <ele>592.8</ele>
        <time>2021-04-08T14:37:01Z</time>
      </trkpt>
      <trkpt lat="46.7468" lon="5.96022">
        <ele>592.5</ele>
        <time>2021-04-08T14:37:06Z</time>
      </trkpt>
      <trkpt lat="46.74681" lon="5.96015">
        <ele>592</ele>
        <time>2021-04-08T14:37:14Z</time>
      </trkpt>
      <trkpt lat="46.74679" lon="5.96006">
        <ele>591.5</ele>
        <time>2021-04-08T14:38:18Z</time>
      </trkpt>
      <trkpt lat="46.74677" lon="5.96">
        <ele>591.2</ele>
        <time>2021-04-08T14:38:24Z</time>
      </trkpt>
      <trkpt lat="46.7468" lon="5.95995">
        <ele>591.3</ele>
        <time>2021-04-08T14:38:37Z</time>
      </trkpt>
      <trkpt lat="46.74684" lon="5.95992">
        <ele>591.2</ele>
        <time>2021-04-08T14:38:43Z</time>
      </trkpt>
      <trkpt lat="46.74688" lon="5.95987">
        <ele>590.8</ele>
        <time>2021-04-08T14:38:48Z</time>
      </trkpt>
      <trkpt lat="46.7469" lon="5.95981">
        <ele>590.3</ele>
        <time>2021-04-08T14:38:52Z</time>
      </trkpt>
      <trkpt lat="46.74693" lon="5.95975">
        <ele>589.7</ele>
        <time>2021-04-08T14:38:56Z</time>
      </trkpt>
      <trkpt lat="46.74697" lon="5.9597">
        <ele>588.9</ele>
        <time>2021-04-08T14:39:01Z</time>
      </trkpt>
      <trkpt lat="46.74701" lon="5.95966">
        <ele>588.2</ele>
        <time>2021-04-08T14:39:05Z</time>
      </trkpt>
      <trkpt lat="46.74705" lon="5.95962">
        <ele>586.8</ele>
        <time>2021-04-08T14:39:10Z</time>
      </trkpt>
      <trkpt lat="46.7471" lon="5.95958">
        <ele>585.9</ele>
        <time>2021-04-08T14:39:14Z</time>
      </trkpt>
      <trkpt lat="46.74713" lon="5.95953">
        <ele>585.4</ele>
        <time>2021-04-08T14:39:18Z</time>
      </trkpt>
      <trkpt lat="46.74719" lon="5.95951">
        <ele>585.3</ele>
        <time>2021-04-08T14:39:23Z</time>
      </trkpt>
      <trkpt lat="46.74724" lon="5.9595">
        <ele>585.2</ele>
        <time>2021-04-08T14:39:28Z</time>
      </trkpt>
      <trkpt lat="46.74728" lon="5.95948">
        <ele>584.8</ele>
        <time>2021-04-08T14:39:32Z</time>
      </trkpt>
      <trkpt lat="46.74731" lon="5.95942">
        <ele>584.2</ele>
        <time>2021-04-08T14:39:36Z</time>
      </trkpt>
      <trkpt lat="46.74735" lon="5.95937">
        <ele>583.5</ele>
        <time>2021-04-08T14:39:40Z</time>
      </trkpt>
      <trkpt lat="46.74739" lon="5.95933">
        <ele>582.9</ele>
        <time>2021-04-08T14:39:44Z</time>
      </trkpt>
      <trkpt lat="46.74741" lon="5.95927">
        <ele>582.6</ele>
        <time>2021-04-08T14:39:49Z</time>
      </trkpt>
      <trkpt lat="46.74745" lon="5.95923">
        <ele>582.3</ele>
        <time>2021-04-08T14:39:54Z</time>
      </trkpt>
      <trkpt lat="46.7475" lon="5.9592">
        <ele>582.3</ele>
        <time>2021-04-08T14:39:59Z</time>
      </trkpt>
      <trkpt lat="46.74754" lon="5.95916">
        <ele>582.4</ele>
        <time>2021-04-08T14:40:04Z</time>
      </trkpt>
      <trkpt lat="46.74759" lon="5.95915">
        <ele>582.2</ele>
        <time>2021-04-08T14:40:08Z</time>
      </trkpt>
      <trkpt lat="46.74763" lon="5.95917">
        <ele>582.5</ele>
        <time>2021-04-08T14:40:13Z</time>
      </trkpt>
      <trkpt lat="46.74768" lon="5.95919">
        <ele>585.8</ele>
        <time>2021-04-08T14:40:53Z</time>
      </trkpt>
      <trkpt lat="46.74764" lon="5.9592">
        <ele>595.6</ele>
        <time>2021-04-08T14:41:53Z</time>
      </trkpt>
      <trkpt lat="46.74764" lon="5.95914">
        <ele>595</ele>
        <time>2021-04-08T14:42:38Z</time>
      </trkpt>
      <trkpt lat="46.74769" lon="5.95913">
        <ele>595.3</ele>
        <time>2021-04-08T14:42:43Z</time>
      </trkpt>
      <trkpt lat="46.74774" lon="5.95911">
        <ele>594.9</ele>
        <time>2021-04-08T14:42:49Z</time>
      </trkpt>
      <trkpt lat="46.74778" lon="5.95906">
        <ele>594.7</ele>
        <time>2021-04-08T14:42:54Z</time>
      </trkpt>
      <trkpt lat="46.74781" lon="5.959">
        <ele>594.9</ele>
        <time>2021-04-08T14:42:58Z</time>
      </trkpt>
      <trkpt lat="46.74785" lon="5.95895">
        <ele>595</ele>
        <time>2021-04-08T14:43:03Z</time>
      </trkpt>
      <trkpt lat="46.74788" lon="5.9589">
        <ele>594.7</ele>
        <time>2021-04-08T14:43:08Z</time>
      </trkpt>
      <trkpt lat="46.74791" lon="5.95884">
        <ele>595.2</ele>
        <time>2021-04-08T14:43:19Z</time>
      </trkpt>
      <trkpt lat="46.74795" lon="5.95883">
        <ele>594.7</ele>
        <time>2021-04-08T14:43:35Z</time>
      </trkpt>
      <trkpt lat="46.74799" lon="5.95879">
        <ele>593.8</ele>
        <time>2021-04-08T14:43:41Z</time>
      </trkpt>
      <trkpt lat="46.74803" lon="5.95875">
        <ele>593.1</ele>
        <time>2021-04-08T14:43:48Z</time>
      </trkpt>
      <trkpt lat="46.74808" lon="5.95871">
        <ele>592.5</ele>
        <time>2021-04-08T14:44:00Z</time>
      </trkpt>
      <trkpt lat="46.74811" lon="5.95867">
        <ele>591.8</ele>
        <time>2021-04-08T14:44:04Z</time>
      </trkpt>
      <trkpt lat="46.74815" lon="5.95862">
        <ele>591</ele>
        <time>2021-04-08T14:44:08Z</time>
      </trkpt>
      <trkpt lat="46.74819" lon="5.95858">
        <ele>590.3</ele>
        <time>2021-04-08T14:44:13Z</time>
      </trkpt>
      <trkpt lat="46.74822" lon="5.95853">
        <ele>589.6</ele>
        <time>2021-04-08T14:44:19Z</time>
      </trkpt>
      <trkpt lat="46.74826" lon="5.95848">
        <ele>590.1</ele>
        <time>2021-04-08T14:44:25Z</time>
      </trkpt>
      <trkpt lat="46.74831" lon="5.95844">
        <ele>590.9</ele>
        <time>2021-04-08T14:44:30Z</time>
      </trkpt>
      <trkpt lat="46.74835" lon="5.9584">
        <ele>591.5</ele>
        <time>2021-04-08T14:44:34Z</time>
      </trkpt>
      <trkpt lat="46.7484" lon="5.95837">
        <ele>592</ele>
        <time>2021-04-08T14:44:38Z</time>
      </trkpt>
      <trkpt lat="46.74843" lon="5.95832">
        <ele>592.5</ele>
        <time>2021-04-08T14:44:42Z</time>
      </trkpt>
      <trkpt lat="46.74848" lon="5.95824">
        <ele>593.2</ele>
        <time>2021-04-08T14:44:46Z</time>
      </trkpt>
      <trkpt lat="46.74854" lon="5.9582">
        <ele>594.1</ele>
        <time>2021-04-08T14:44:50Z</time>
      </trkpt>
      <trkpt lat="46.74858" lon="5.95815">
        <ele>595.7</ele>
        <time>2021-04-08T14:44:54Z</time>
      </trkpt>
      <trkpt lat="46.74863" lon="5.95811">
        <ele>597.3</ele>
        <time>2021-04-08T14:44:58Z</time>
      </trkpt>
      <trkpt lat="46.74867" lon="5.95806">
        <ele>599.3</ele>
        <time>2021-04-08T14:45:03Z</time>
      </trkpt>
      <trkpt lat="46.74872" lon="5.95801">
        <ele>600.2</ele>
        <time>2021-04-08T14:45:08Z</time>
      </trkpt>
      <trkpt lat="46.74876" lon="5.95798">
        <ele>601.2</ele>
        <time>2021-04-08T14:45:12Z</time>
      </trkpt>
      <trkpt lat="46.7488" lon="5.95794">
        <ele>603</ele>
        <time>2021-04-08T14:45:17Z</time>
      </trkpt>
      <trkpt lat="46.74883" lon="5.95789">
        <ele>604.9</ele>
        <time>2021-04-08T14:45:23Z</time>
      </trkpt>
      <trkpt lat="46.74887" lon="5.95784">
        <ele>607</ele>
        <time>2021-04-08T14:45:28Z</time>
      </trkpt>
      <trkpt lat="46.74891" lon="5.95779">
        <ele>609.6</ele>
        <time>2021-04-08T14:45:33Z</time>
      </trkpt>
      <trkpt lat="46.74894" lon="5.95773">
        <ele>610.5</ele>
        <time>2021-04-08T14:45:37Z</time>
      </trkpt>
      <trkpt lat="46.74899" lon="5.95769">
        <ele>611.5</ele>
        <time>2021-04-08T14:45:41Z</time>
      </trkpt>
      <trkpt lat="46.74902" lon="5.95764">
        <ele>611.7</ele>
        <time>2021-04-08T14:45:45Z</time>
      </trkpt>
      <trkpt lat="46.74908" lon="5.95761">
        <ele>610</ele>
        <time>2021-04-08T14:45:49Z</time>
      </trkpt>
      <trkpt lat="46.74912" lon="5.95757">
        <ele>608.4</ele>
        <time>2021-04-08T14:45:53Z</time>
      </trkpt>
      <trkpt lat="46.74916" lon="5.95755">
        <ele>607.2</ele>
        <time>2021-04-08T14:45:58Z</time>
      </trkpt>
      <trkpt lat="46.74921" lon="5.95752">
        <ele>607</ele>
        <time>2021-04-08T14:46:02Z</time>
      </trkpt>
      <trkpt lat="46.74925" lon="5.95746">
        <ele>606.7</ele>
        <time>2021-04-08T14:46:07Z</time>
      </trkpt>
      <trkpt lat="46.74927" lon="5.9574">
        <ele>605.3</ele>
        <time>2021-04-08T14:46:12Z</time>
      </trkpt>
      <trkpt lat="46.74931" lon="5.95735">
        <ele>604.3</ele>
        <time>2021-04-08T14:46:16Z</time>
      </trkpt>
      <trkpt lat="46.74935" lon="5.95731">
        <ele>602.5</ele>
        <time>2021-04-08T14:46:21Z</time>
      </trkpt>
      <trkpt lat="46.74939" lon="5.95727">
        <ele>600.5</ele>
        <time>2021-04-08T14:46:26Z</time>
      </trkpt>
      <trkpt lat="46.74944" lon="5.95723">
        <ele>598.3</ele>
        <time>2021-04-08T14:46:31Z</time>
      </trkpt>
      <trkpt lat="46.74948" lon="5.95719">
        <ele>596.5</ele>
        <time>2021-04-08T14:46:35Z</time>
      </trkpt>
      <trkpt lat="46.74951" lon="5.95715">
        <ele>594.4</ele>
        <time>2021-04-08T14:46:39Z</time>
      </trkpt>
      <trkpt lat="46.74955" lon="5.9571">
        <ele>592.6</ele>
        <time>2021-04-08T14:46:44Z</time>
      </trkpt>
      <trkpt lat="46.7496" lon="5.95706">
        <ele>591.4</ele>
        <time>2021-04-08T14:46:49Z</time>
      </trkpt>
      <trkpt lat="46.74964" lon="5.95702">
        <ele>590.7</ele>
        <time>2021-04-08T14:46:53Z</time>
      </trkpt>
      <trkpt lat="46.74968" lon="5.95697">
        <ele>590</ele>
        <time>2021-04-08T14:46:57Z</time>
      </trkpt>
      <trkpt lat="46.74972" lon="5.95689">
        <ele>589.7</ele>
        <time>2021-04-08T14:47:01Z</time>
      </trkpt>
      <trkpt lat="46.74976" lon="5.95685">
        <ele>589.4</ele>
        <time>2021-04-08T14:47:05Z</time>
      </trkpt>
      <trkpt lat="46.74981" lon="5.95684">
        <ele>589.1</ele>
        <time>2021-04-08T14:47:09Z</time>
      </trkpt>
      <trkpt lat="46.74985" lon="5.9568">
        <ele>589.1</ele>
        <time>2021-04-08T14:47:14Z</time>
      </trkpt>
      <trkpt lat="46.7499" lon="5.95677">
        <ele>589.2</ele>
        <time>2021-04-08T14:47:19Z</time>
      </trkpt>
      <trkpt lat="46.74995" lon="5.95675">
        <ele>589.1</ele>
        <time>2021-04-08T14:47:23Z</time>
      </trkpt>
      <trkpt lat="46.75" lon="5.95673">
        <ele>588.9</ele>
        <time>2021-04-08T14:47:28Z</time>
      </trkpt>
      <trkpt lat="46.75004" lon="5.9567">
        <ele>588.6</ele>
        <time>2021-04-08T14:47:34Z</time>
      </trkpt>
      <trkpt lat="46.75008" lon="5.95667">
        <ele>587.8</ele>
        <time>2021-04-08T14:47:38Z</time>
      </trkpt>
      <trkpt lat="46.75013" lon="5.95665">
        <ele>586.6</ele>
        <time>2021-04-08T14:47:42Z</time>
      </trkpt>
      <trkpt lat="46.75017" lon="5.95662">
        <ele>585.1</ele>
        <time>2021-04-08T14:47:46Z</time>
      </trkpt>
      <trkpt lat="46.75021" lon="5.95657">
        <ele>584.1</ele>
        <time>2021-04-08T14:47:50Z</time>
      </trkpt>
      <trkpt lat="46.75024" lon="5.95652">
        <ele>583.3</ele>
        <time>2021-04-08T14:47:54Z</time>
      </trkpt>
      <trkpt lat="46.75029" lon="5.95647">
        <ele>582.8</ele>
        <time>2021-04-08T14:47:58Z</time>
      </trkpt>
      <trkpt lat="46.75033" lon="5.95644">
        <ele>582.6</ele>
        <time>2021-04-08T14:48:02Z</time>
      </trkpt>
      <trkpt lat="46.75038" lon="5.95641">
        <ele>581.8</ele>
        <time>2021-04-08T14:48:06Z</time>
      </trkpt>
      <trkpt lat="46.75042" lon="5.95637">
        <ele>580.9</ele>
        <time>2021-04-08T14:48:10Z</time>
      </trkpt>
      <trkpt lat="46.75046" lon="5.95635">
        <ele>579.7</ele>
        <time>2021-04-08T14:48:14Z</time>
      </trkpt>
      <trkpt lat="46.75052" lon="5.95636">
        <ele>578.5</ele>
        <time>2021-04-08T14:48:18Z</time>
      </trkpt>
      <trkpt lat="46.75056" lon="5.95632">
        <ele>577.2</ele>
        <time>2021-04-08T14:48:23Z</time>
      </trkpt>
      <trkpt lat="46.7506" lon="5.95631">
        <ele>576.2</ele>
        <time>2021-04-08T14:48:27Z</time>
      </trkpt>
      <trkpt lat="46.75063" lon="5.95622">
        <ele>576.3</ele>
        <time>2021-04-08T14:48:31Z</time>
      </trkpt>
      <trkpt lat="46.75066" lon="5.95617">
        <ele>575.7</ele>
        <time>2021-04-08T14:48:37Z</time>
      </trkpt>
      <trkpt lat="46.7507" lon="5.95612">
        <ele>575.2</ele>
        <time>2021-04-08T14:48:43Z</time>
      </trkpt>
      <trkpt lat="46.75074" lon="5.95605">
        <ele>575.1</ele>
        <time>2021-04-08T14:48:47Z</time>
      </trkpt>
      <trkpt lat="46.75078" lon="5.95597">
        <ele>576.2</ele>
        <time>2021-04-08T14:48:51Z</time>
      </trkpt>
      <trkpt lat="46.75081" lon="5.95592">
        <ele>577.3</ele>
        <time>2021-04-08T14:48:55Z</time>
      </trkpt>
      <trkpt lat="46.75083" lon="5.95586">
        <ele>578.3</ele>
        <time>2021-04-08T14:49:00Z</time>
      </trkpt>
      <trkpt lat="46.75087" lon="5.95582">
        <ele>579.3</ele>
        <time>2021-04-08T14:49:04Z</time>
      </trkpt>
      <trkpt lat="46.75091" lon="5.95578">
        <ele>580.2</ele>
        <time>2021-04-08T14:49:08Z</time>
      </trkpt>
      <trkpt lat="46.75096" lon="5.95575">
        <ele>581</ele>
        <time>2021-04-08T14:49:12Z</time>
      </trkpt>
      <trkpt lat="46.75101" lon="5.95573">
        <ele>581.8</ele>
        <time>2021-04-08T14:49:17Z</time>
      </trkpt>
      <trkpt lat="46.75106" lon="5.95571">
        <ele>582.7</ele>
        <time>2021-04-08T14:49:21Z</time>
      </trkpt>
      <trkpt lat="46.75111" lon="5.95568">
        <ele>583.3</ele>
        <time>2021-04-08T14:49:25Z</time>
      </trkpt>
      <trkpt lat="46.75116" lon="5.95565">
        <ele>583.5</ele>
        <time>2021-04-08T14:49:29Z</time>
      </trkpt>
      <trkpt lat="46.75121" lon="5.95562">
        <ele>583.5</ele>
        <time>2021-04-08T14:49:34Z</time>
      </trkpt>
      <trkpt lat="46.75125" lon="5.95557">
        <ele>583.4</ele>
        <time>2021-04-08T14:49:38Z</time>
      </trkpt>
      <trkpt lat="46.75129" lon="5.95552">
        <ele>584.4</ele>
        <time>2021-04-08T14:49:42Z</time>
      </trkpt>
      <trkpt lat="46.75133" lon="5.95547">
        <ele>587.5</ele>
        <time>2021-04-08T14:49:53Z</time>
      </trkpt>
      <trkpt lat="46.75138" lon="5.95545">
        <ele>588.9</ele>
        <time>2021-04-08T14:49:58Z</time>
      </trkpt>
      <trkpt lat="46.75143" lon="5.95542">
        <ele>590.1</ele>
        <time>2021-04-08T14:50:05Z</time>
      </trkpt>
      <trkpt lat="46.75146" lon="5.95538">
        <ele>589.8</ele>
        <time>2021-04-08T14:50:19Z</time>
      </trkpt>
      <trkpt lat="46.75151" lon="5.95535">
        <ele>589.1</ele>
        <time>2021-04-08T14:50:25Z</time>
      </trkpt>
      <trkpt lat="46.75155" lon="5.95531">
        <ele>588.6</ele>
        <time>2021-04-08T14:50:31Z</time>
      </trkpt>
      <trkpt lat="46.7516" lon="5.95531">
        <ele>588.6</ele>
        <time>2021-04-08T14:50:41Z</time>
      </trkpt>
      <trkpt lat="46.75164" lon="5.95527">
        <ele>588.3</ele>
        <time>2021-04-08T14:50:45Z</time>
      </trkpt>
      <trkpt lat="46.75169" lon="5.95525">
        <ele>587.7</ele>
        <time>2021-04-08T14:50:50Z</time>
      </trkpt>
      <trkpt lat="46.75174" lon="5.95523">
        <ele>586.8</ele>
        <time>2021-04-08T14:50:55Z</time>
      </trkpt>
      <trkpt lat="46.75177" lon="5.95516">
        <ele>586</ele>
        <time>2021-04-08T14:50:59Z</time>
      </trkpt>
      <trkpt lat="46.7518" lon="5.95511">
        <ele>586.1</ele>
        <time>2021-04-08T14:51:04Z</time>
      </trkpt>
      <trkpt lat="46.75183" lon="5.95505">
        <ele>587.2</ele>
        <time>2021-04-08T14:51:10Z</time>
      </trkpt>
      <trkpt lat="46.75186" lon="5.955">
        <ele>588.7</ele>
        <time>2021-04-08T14:51:15Z</time>
      </trkpt>
      <trkpt lat="46.7519" lon="5.95494">
        <ele>590.5</ele>
        <time>2021-04-08T14:51:20Z</time>
      </trkpt>
      <trkpt lat="46.75194" lon="5.95489">
        <ele>592.3</ele>
        <time>2021-04-08T14:51:25Z</time>
      </trkpt>
      <trkpt lat="46.75197" lon="5.95481">
        <ele>593.1</ele>
        <time>2021-04-08T14:51:29Z</time>
      </trkpt>
      <trkpt lat="46.752" lon="5.95475">
        <ele>594</ele>
        <time>2021-04-08T14:51:33Z</time>
      </trkpt>
      <trkpt lat="46.75205" lon="5.95472">
        <ele>595.1</ele>
        <time>2021-04-08T14:51:37Z</time>
      </trkpt>
      <trkpt lat="46.7521" lon="5.95468">
        <ele>596.2</ele>
        <time>2021-04-08T14:51:41Z</time>
      </trkpt>
      <trkpt lat="46.75213" lon="5.95464">
        <ele>598.2</ele>
        <time>2021-04-08T14:51:47Z</time>
      </trkpt>
      <trkpt lat="46.75217" lon="5.95458">
        <ele>599</ele>
        <time>2021-04-08T14:51:51Z</time>
      </trkpt>
      <trkpt lat="46.75221" lon="5.95453">
        <ele>599</ele>
        <time>2021-04-08T14:51:55Z</time>
      </trkpt>
      <trkpt lat="46.75226" lon="5.9545">
        <ele>598.9</ele>
        <time>2021-04-08T14:52:00Z</time>
      </trkpt>
      <trkpt lat="46.7523" lon="5.95446">
        <ele>598.7</ele>
        <time>2021-04-08T14:52:06Z</time>
      </trkpt>
      <trkpt lat="46.75235" lon="5.95441">
        <ele>598.2</ele>
        <time>2021-04-08T14:52:12Z</time>
      </trkpt>
      <trkpt lat="46.75237" lon="5.95434">
        <ele>597.3</ele>
        <time>2021-04-08T14:52:16Z</time>
      </trkpt>
      <trkpt lat="46.7524" lon="5.95425">
        <ele>595.6</ele>
        <time>2021-04-08T14:52:20Z</time>
      </trkpt>
      <trkpt lat="46.75243" lon="5.9542">
        <ele>594.1</ele>
        <time>2021-04-08T14:52:24Z</time>
      </trkpt>
      <trkpt lat="46.75246" lon="5.95416">
        <ele>592.9</ele>
        <time>2021-04-08T14:52:28Z</time>
      </trkpt>
      <trkpt lat="46.7525" lon="5.95411">
        <ele>591.6</ele>
        <time>2021-04-08T14:52:32Z</time>
      </trkpt>
      <trkpt lat="46.75253" lon="5.95406">
        <ele>590.4</ele>
        <time>2021-04-08T14:52:37Z</time>
      </trkpt>
      <trkpt lat="46.75257" lon="5.95401">
        <ele>589.1</ele>
        <time>2021-04-08T14:52:42Z</time>
      </trkpt>
      <trkpt lat="46.75261" lon="5.95397">
        <ele>586.9</ele>
        <time>2021-04-08T14:52:48Z</time>
      </trkpt>
      <trkpt lat="46.75266" lon="5.95393">
        <ele>584.8</ele>
        <time>2021-04-08T14:52:53Z</time>
      </trkpt>
      <trkpt lat="46.75269" lon="5.95387">
        <ele>582.7</ele>
        <time>2021-04-08T14:52:57Z</time>
      </trkpt>
      <trkpt lat="46.75273" lon="5.95381">
        <ele>580.1</ele>
        <time>2021-04-08T14:53:02Z</time>
      </trkpt>
      <trkpt lat="46.75276" lon="5.95377">
        <ele>578.1</ele>
        <time>2021-04-08T14:53:06Z</time>
      </trkpt>
      <trkpt lat="46.7528" lon="5.95372">
        <ele>576</ele>
        <time>2021-04-08T14:53:11Z</time>
      </trkpt>
      <trkpt lat="46.75283" lon="5.95367">
        <ele>574.7</ele>
        <time>2021-04-08T14:53:15Z</time>
      </trkpt>
      <trkpt lat="46.75287" lon="5.95361">
        <ele>572.7</ele>
        <time>2021-04-08T14:53:20Z</time>
      </trkpt>
      <trkpt lat="46.75289" lon="5.95355">
        <ele>571.5</ele>
        <time>2021-04-08T14:53:24Z</time>
      </trkpt>
      <trkpt lat="46.75292" lon="5.95348">
        <ele>570.2</ele>
        <time>2021-04-08T14:53:29Z</time>
      </trkpt>
      <trkpt lat="46.75293" lon="5.95341">
        <ele>569</ele>
        <time>2021-04-08T14:53:34Z</time>
      </trkpt>
      <trkpt lat="46.7529" lon="5.95332">
        <ele>567.7</ele>
        <time>2021-04-08T14:53:38Z</time>
      </trkpt>
      <trkpt lat="46.75287" lon="5.95325">
        <ele>567.1</ele>
        <time>2021-04-08T14:53:42Z</time>
      </trkpt>
      <trkpt lat="46.75283" lon="5.95321">
        <ele>566.9</ele>
        <time>2021-04-08T14:53:47Z</time>
      </trkpt>
      <trkpt lat="46.75278" lon="5.9532">
        <ele>566.6</ele>
        <time>2021-04-08T14:53:53Z</time>
      </trkpt>
      <trkpt lat="46.75274" lon="5.95315">
        <ele>566</ele>
        <time>2021-04-08T14:53:58Z</time>
      </trkpt>
      <trkpt lat="46.75268" lon="5.95308">
        <ele>567</ele>
        <time>2021-04-08T14:54:02Z</time>
      </trkpt>
      <trkpt lat="46.75264" lon="5.95302">
        <ele>568.7</ele>
        <time>2021-04-08T14:54:06Z</time>
      </trkpt>
      <trkpt lat="46.75259" lon="5.95297">
        <ele>570.1</ele>
        <time>2021-04-08T14:54:11Z</time>
      </trkpt>
      <trkpt lat="46.75255" lon="5.95293">
        <ele>571.5</ele>
        <time>2021-04-08T14:54:16Z</time>
      </trkpt>
      <trkpt lat="46.75251" lon="5.95288">
        <ele>572.1</ele>
        <time>2021-04-08T14:54:23Z</time>
      </trkpt>
      <trkpt lat="46.75248" lon="5.95283">
        <ele>572.2</ele>
        <time>2021-04-08T14:54:27Z</time>
      </trkpt>
      <trkpt lat="46.75245" lon="5.95278">
        <ele>572.2</ele>
        <time>2021-04-08T14:54:32Z</time>
      </trkpt>
      <trkpt lat="46.75243" lon="5.95272">
        <ele>570.3</ele>
        <time>2021-04-08T14:54:38Z</time>
      </trkpt>
      <trkpt lat="46.75239" lon="5.95268">
        <ele>568.3</ele>
        <time>2021-04-08T14:54:43Z</time>
      </trkpt>
      <trkpt lat="46.75234" lon="5.95268">
        <ele>566.1</ele>
        <time>2021-04-08T14:54:49Z</time>
      </trkpt>
      <trkpt lat="46.75227" lon="5.95271">
        <ele>567</ele>
        <time>2021-04-08T14:54:54Z</time>
      </trkpt>
      <trkpt lat="46.75221" lon="5.95273">
        <ele>569.6</ele>
        <time>2021-04-08T14:54:58Z</time>
      </trkpt>
      <trkpt lat="46.75216" lon="5.95275">
        <ele>571.8</ele>
        <time>2021-04-08T14:55:04Z</time>
      </trkpt>
      <trkpt lat="46.75211" lon="5.95275">
        <ele>572.4</ele>
        <time>2021-04-08T14:55:11Z</time>
      </trkpt>
      <trkpt lat="46.75206" lon="5.95274">
        <ele>572.3</ele>
        <time>2021-04-08T14:55:16Z</time>
      </trkpt>
      <trkpt lat="46.75202" lon="5.95279">
        <ele>572.4</ele>
        <time>2021-04-08T14:55:23Z</time>
      </trkpt>
      <trkpt lat="46.752" lon="5.95286">
        <ele>573</ele>
        <time>2021-04-08T14:55:27Z</time>
      </trkpt>
      <trkpt lat="46.75197" lon="5.95291">
        <ele>573.7</ele>
        <time>2021-04-08T14:55:32Z</time>
      </trkpt>
      <trkpt lat="46.75194" lon="5.95298">
        <ele>574.5</ele>
        <time>2021-04-08T14:55:39Z</time>
      </trkpt>
      <trkpt lat="46.75191" lon="5.95303">
        <ele>575.1</ele>
        <time>2021-04-08T14:55:43Z</time>
      </trkpt>
      <trkpt lat="46.75188" lon="5.95307">
        <ele>575.9</ele>
        <time>2021-04-08T14:55:47Z</time>
      </trkpt>
      <trkpt lat="46.75185" lon="5.95313">
        <ele>576.8</ele>
        <time>2021-04-08T14:55:51Z</time>
      </trkpt>
      <trkpt lat="46.75181" lon="5.95319">
        <ele>577.8</ele>
        <time>2021-04-08T14:55:55Z</time>
      </trkpt>
      <trkpt lat="46.75177" lon="5.95324">
        <ele>579.2</ele>
        <time>2021-04-08T14:55:59Z</time>
      </trkpt>
      <trkpt lat="46.75173" lon="5.95329">
        <ele>580.8</ele>
        <time>2021-04-08T14:56:04Z</time>
      </trkpt>
      <trkpt lat="46.75168" lon="5.95332">
        <ele>582.3</ele>
        <time>2021-04-08T14:56:09Z</time>
      </trkpt>
      <trkpt lat="46.75164" lon="5.95334">
        <ele>583</ele>
        <time>2021-04-08T14:56:13Z</time>
      </trkpt>
      <trkpt lat="46.75152" lon="5.95343">
        <ele>584.6</ele>
        <time>2021-04-08T14:56:17Z</time>
      </trkpt>
      <trkpt lat="46.75146" lon="5.95347">
        <ele>586</ele>
        <time>2021-04-08T14:56:21Z</time>
      </trkpt>
      <trkpt lat="46.75141" lon="5.95348">
        <ele>587</ele>
        <time>2021-04-08T14:56:26Z</time>
      </trkpt>
      <trkpt lat="46.75137" lon="5.9535">
        <ele>587.1</ele>
        <time>2021-04-08T14:56:31Z</time>
      </trkpt>
      <trkpt lat="46.75132" lon="5.95351">
        <ele>585.8</ele>
        <time>2021-04-08T14:56:40Z</time>
      </trkpt>
      <trkpt lat="46.75127" lon="5.95354">
        <ele>584.1</ele>
        <time>2021-04-08T14:56:47Z</time>
      </trkpt>
      <trkpt lat="46.75123" lon="5.95356">
        <ele>582.6</ele>
        <time>2021-04-08T14:56:53Z</time>
      </trkpt>
      <trkpt lat="46.75118" lon="5.95358">
        <ele>581.7</ele>
        <time>2021-04-08T14:56:57Z</time>
      </trkpt>
      <trkpt lat="46.75113" lon="5.95361">
        <ele>580.7</ele>
        <time>2021-04-08T14:57:02Z</time>
      </trkpt>
      <trkpt lat="46.75109" lon="5.95365">
        <ele>579.4</ele>
        <time>2021-04-08T14:57:08Z</time>
      </trkpt>
      <trkpt lat="46.75103" lon="5.95368">
        <ele>578.2</ele>
        <time>2021-04-08T14:57:12Z</time>
      </trkpt>
      <trkpt lat="46.75099" lon="5.95371">
        <ele>577</ele>
        <time>2021-04-08T14:57:16Z</time>
      </trkpt>
      <trkpt lat="46.75093" lon="5.95377">
        <ele>575.9</ele>
        <time>2021-04-08T14:57:20Z</time>
      </trkpt>
      <trkpt lat="46.75088" lon="5.9538">
        <ele>574.8</ele>
        <time>2021-04-08T14:57:24Z</time>
      </trkpt>
      <trkpt lat="46.75084" lon="5.95382">
        <ele>573.9</ele>
        <time>2021-04-08T14:57:29Z</time>
      </trkpt>
      <trkpt lat="46.75078" lon="5.95384">
        <ele>574.1</ele>
        <time>2021-04-08T14:57:33Z</time>
      </trkpt>
      <trkpt lat="46.75073" lon="5.9539">
        <ele>575.3</ele>
        <time>2021-04-08T14:57:37Z</time>
      </trkpt>
      <trkpt lat="46.75068" lon="5.95393">
        <ele>576.5</ele>
        <time>2021-04-08T14:57:42Z</time>
      </trkpt>
      <trkpt lat="46.75064" lon="5.95396">
        <ele>577.5</ele>
        <time>2021-04-08T14:57:46Z</time>
      </trkpt>
      <trkpt lat="46.75059" lon="5.95399">
        <ele>578.6</ele>
        <time>2021-04-08T14:57:51Z</time>
      </trkpt>
      <trkpt lat="46.75051" lon="5.95406">
        <ele>578.1</ele>
        <time>2021-04-08T14:57:55Z</time>
      </trkpt>
      <trkpt lat="46.75047" lon="5.95409">
        <ele>577.8</ele>
        <time>2021-04-08T14:57:59Z</time>
      </trkpt>
      <trkpt lat="46.75042" lon="5.95412">
        <ele>577.9</ele>
        <time>2021-04-08T14:58:04Z</time>
      </trkpt>
      <trkpt lat="46.75038" lon="5.95415">
        <ele>578.3</ele>
        <time>2021-04-08T14:58:08Z</time>
      </trkpt>
      <trkpt lat="46.75033" lon="5.95418">
        <ele>578.9</ele>
        <time>2021-04-08T14:58:14Z</time>
      </trkpt>
      <trkpt lat="46.75028" lon="5.9542">
        <ele>579.5</ele>
        <time>2021-04-08T14:58:20Z</time>
      </trkpt>
      <trkpt lat="46.75023" lon="5.95422">
        <ele>580.3</ele>
        <time>2021-04-08T14:58:26Z</time>
      </trkpt>
      <trkpt lat="46.75019" lon="5.95425">
        <ele>580.8</ele>
        <time>2021-04-08T14:58:31Z</time>
      </trkpt>
      <trkpt lat="46.75014" lon="5.95426">
        <ele>581.4</ele>
        <time>2021-04-08T14:58:35Z</time>
      </trkpt>
      <trkpt lat="46.75009" lon="5.95428">
        <ele>581.8</ele>
        <time>2021-04-08T14:58:40Z</time>
      </trkpt>
      <trkpt lat="46.75005" lon="5.95429">
        <ele>582.3</ele>
        <time>2021-04-08T14:58:45Z</time>
      </trkpt>
      <trkpt lat="46.74999" lon="5.95434">
        <ele>582.8</ele>
        <time>2021-04-08T14:58:49Z</time>
      </trkpt>
      <trkpt lat="46.74994" lon="5.95438">
        <ele>583.4</ele>
        <time>2021-04-08T14:58:53Z</time>
      </trkpt>
      <trkpt lat="46.74989" lon="5.95441">
        <ele>584.1</ele>
        <time>2021-04-08T14:58:58Z</time>
      </trkpt>
      <trkpt lat="46.74984" lon="5.95442">
        <ele>584.8</ele>
        <time>2021-04-08T14:59:03Z</time>
      </trkpt>
      <trkpt lat="46.74979" lon="5.95445">
        <ele>585.4</ele>
        <time>2021-04-08T14:59:09Z</time>
      </trkpt>
      <trkpt lat="46.74974" lon="5.95446">
        <ele>585.6</ele>
        <time>2021-04-08T14:59:14Z</time>
      </trkpt>
      <trkpt lat="46.74969" lon="5.95447">
        <ele>585.7</ele>
        <time>2021-04-08T14:59:19Z</time>
      </trkpt>
      <trkpt lat="46.74959" lon="5.95456">
        <ele>587.7</ele>
        <time>2021-04-08T14:59:23Z</time>
      </trkpt>
      <trkpt lat="46.74955" lon="5.95456">
        <ele>588.4</ele>
        <time>2021-04-08T14:59:30Z</time>
      </trkpt>
      <trkpt lat="46.74949" lon="5.95455">
        <ele>588.2</ele>
        <time>2021-04-08T14:59:36Z</time>
      </trkpt>
      <trkpt lat="46.74943" lon="5.95456">
        <ele>588</ele>
        <time>2021-04-08T14:59:42Z</time>
      </trkpt>
      <trkpt lat="46.74938" lon="5.95457">
        <ele>587.2</ele>
        <time>2021-04-08T14:59:47Z</time>
      </trkpt>
      <trkpt lat="46.74933" lon="5.95455">
        <ele>586.3</ele>
        <time>2021-04-08T14:59:53Z</time>
      </trkpt>
      <trkpt lat="46.74926" lon="5.95456">
        <ele>585.9</ele>
        <time>2021-04-08T14:59:57Z</time>
      </trkpt>
      <trkpt lat="46.74919" lon="5.95456">
        <ele>586</ele>
        <time>2021-04-08T15:00:01Z</time>
      </trkpt>
      <trkpt lat="46.74915" lon="5.95455">
        <ele>586.5</ele>
        <time>2021-04-08T15:00:05Z</time>
      </trkpt>
      <trkpt lat="46.74911" lon="5.95451">
        <ele>587.3</ele>
        <time>2021-04-08T15:00:11Z</time>
      </trkpt>
      <trkpt lat="46.74906" lon="5.9545">
        <ele>586.5</ele>
        <time>2021-04-08T15:00:18Z</time>
      </trkpt>
      <trkpt lat="46.74897" lon="5.95456">
        <ele>585.5</ele>
        <time>2021-04-08T15:00:22Z</time>
      </trkpt>
      <trkpt lat="46.74891" lon="5.95458">
        <ele>584.9</ele>
        <time>2021-04-08T15:00:26Z</time>
      </trkpt>
      <trkpt lat="46.74889" lon="5.95452">
        <ele>584.6</ele>
        <time>2021-04-08T15:00:35Z</time>
      </trkpt>
      <trkpt lat="46.74888" lon="5.95444">
        <ele>584.3</ele>
        <time>2021-04-08T15:00:41Z</time>
      </trkpt>
      <trkpt lat="46.74887" lon="5.95435">
        <ele>584.1</ele>
        <time>2021-04-08T15:00:45Z</time>
      </trkpt>
      <trkpt lat="46.74887" lon="5.95427">
        <ele>583.9</ele>
        <time>2021-04-08T15:00:50Z</time>
      </trkpt>
      <trkpt lat="46.74888" lon="5.9542">
        <ele>583.2</ele>
        <time>2021-04-08T15:01:00Z</time>
      </trkpt>
      <trkpt lat="46.74885" lon="5.95425">
        <ele>584.2</ele>
        <time>2021-04-08T15:01:12Z</time>
      </trkpt>
      <trkpt lat="46.74883" lon="5.95432">
        <ele>585.7</ele>
        <time>2021-04-08T15:01:22Z</time>
      </trkpt>
      <trkpt lat="46.74879" lon="5.95437">
        <ele>589.1</ele>
        <time>2021-04-08T15:02:06Z</time>
      </trkpt>
      <trkpt lat="46.74876" lon="5.95443">
        <ele>589.9</ele>
        <time>2021-04-08T15:02:12Z</time>
      </trkpt>
      <trkpt lat="46.74874" lon="5.95449">
        <ele>590.6</ele>
        <time>2021-04-08T15:02:17Z</time>
      </trkpt>
      <trkpt lat="46.74876" lon="5.95457">
        <ele>591.4</ele>
        <time>2021-04-08T15:02:21Z</time>
      </trkpt>
      <trkpt lat="46.74877" lon="5.95465">
        <ele>592.5</ele>
        <time>2021-04-08T15:02:25Z</time>
      </trkpt>
      <trkpt lat="46.74875" lon="5.95471">
        <ele>594.7</ele>
        <time>2021-04-08T15:02:30Z</time>
      </trkpt>
      <trkpt lat="46.7487" lon="5.95476">
        <ele>594.6</ele>
        <time>2021-04-08T15:02:50Z</time>
      </trkpt>
      <trkpt lat="46.74869" lon="5.95484">
        <ele>595</ele>
        <time>2021-04-08T15:02:56Z</time>
      </trkpt>
      <trkpt lat="46.74867" lon="5.9549">
        <ele>595.2</ele>
        <time>2021-04-08T15:03:00Z</time>
      </trkpt>
      <trkpt lat="46.74865" lon="5.95497">
        <ele>596.1</ele>
        <time>2021-04-08T15:03:05Z</time>
      </trkpt>
      <trkpt lat="46.74863" lon="5.95504">
        <ele>597.7</ele>
        <time>2021-04-08T15:03:10Z</time>
      </trkpt>
      <trkpt lat="46.7486" lon="5.9551">
        <ele>599.1</ele>
        <time>2021-04-08T15:03:14Z</time>
      </trkpt>
      <trkpt lat="46.74856" lon="5.95515">
        <ele>600.9</ele>
        <time>2021-04-08T15:03:19Z</time>
      </trkpt>
      <trkpt lat="46.74853" lon="5.9552">
        <ele>603.1</ele>
        <time>2021-04-08T15:03:25Z</time>
      </trkpt>
      <trkpt lat="46.74848" lon="5.95523">
        <ele>602.9</ele>
        <time>2021-04-08T15:03:31Z</time>
      </trkpt>
      <trkpt lat="46.74844" lon="5.95524">
        <ele>599.9</ele>
        <time>2021-04-08T15:03:36Z</time>
      </trkpt>
      <trkpt lat="46.74839" lon="5.95527">
        <ele>597.1</ele>
        <time>2021-04-08T15:03:40Z</time>
      </trkpt>
      <trkpt lat="46.74836" lon="5.95532">
        <ele>595.2</ele>
        <time>2021-04-08T15:03:44Z</time>
      </trkpt>
      <trkpt lat="46.74832" lon="5.95537">
        <ele>592.9</ele>
        <time>2021-04-08T15:03:49Z</time>
      </trkpt>
      <trkpt lat="46.74829" lon="5.95543">
        <ele>593.8</ele>
        <time>2021-04-08T15:03:54Z</time>
      </trkpt>
      <trkpt lat="46.74825" lon="5.95546">
        <ele>595</ele>
        <time>2021-04-08T15:03:58Z</time>
      </trkpt>
      <trkpt lat="46.7482" lon="5.9555">
        <ele>597.2</ele>
        <time>2021-04-08T15:04:03Z</time>
      </trkpt>
      <trkpt lat="46.74816" lon="5.95553">
        <ele>598.3</ele>
        <time>2021-04-08T15:04:08Z</time>
      </trkpt>
      <trkpt lat="46.74811" lon="5.95554">
        <ele>596.5</ele>
        <time>2021-04-08T15:04:14Z</time>
      </trkpt>
      <trkpt lat="46.74808" lon="5.95558">
        <ele>593.3</ele>
        <time>2021-04-08T15:04:21Z</time>
      </trkpt>
      <trkpt lat="46.74804" lon="5.95564">
        <ele>593.3</ele>
        <time>2021-04-08T15:04:25Z</time>
      </trkpt>
      <trkpt lat="46.74801" lon="5.95569">
        <ele>593.8</ele>
        <time>2021-04-08T15:04:29Z</time>
      </trkpt>
      <trkpt lat="46.74796" lon="5.95574">
        <ele>594.9</ele>
        <time>2021-04-08T15:04:33Z</time>
      </trkpt>
      <trkpt lat="46.74791" lon="5.95578">
        <ele>597.2</ele>
        <time>2021-04-08T15:04:37Z</time>
      </trkpt>
      <trkpt lat="46.74787" lon="5.95584">
        <ele>599.5</ele>
        <time>2021-04-08T15:04:41Z</time>
      </trkpt>
      <trkpt lat="46.74783" lon="5.95588">
        <ele>601.3</ele>
        <time>2021-04-08T15:04:45Z</time>
      </trkpt>
      <trkpt lat="46.74781" lon="5.95594">
        <ele>601.9</ele>
        <time>2021-04-08T15:04:51Z</time>
      </trkpt>
      <trkpt lat="46.74777" lon="5.95598">
        <ele>601.3</ele>
        <time>2021-04-08T15:04:55Z</time>
      </trkpt>
      <trkpt lat="46.7477" lon="5.956">
        <ele>601.1</ele>
        <time>2021-04-08T15:04:59Z</time>
      </trkpt>
      <trkpt lat="46.74764" lon="5.95603">
        <ele>601</ele>
        <time>2021-04-08T15:05:03Z</time>
      </trkpt>
      <trkpt lat="46.7476" lon="5.95606">
        <ele>600.7</ele>
        <time>2021-04-08T15:05:07Z</time>
      </trkpt>
      <trkpt lat="46.74757" lon="5.95611">
        <ele>601.3</ele>
        <time>2021-04-08T15:05:12Z</time>
      </trkpt>
      <trkpt lat="46.74753" lon="5.95615">
        <ele>602.5</ele>
        <time>2021-04-08T15:05:19Z</time>
      </trkpt>
      <trkpt lat="46.74748" lon="5.95618">
        <ele>602.8</ele>
        <time>2021-04-08T15:05:24Z</time>
      </trkpt>
      <trkpt lat="46.74742" lon="5.95626">
        <ele>604</ele>
        <time>2021-04-08T15:05:28Z</time>
      </trkpt>
      <trkpt lat="46.74736" lon="5.95631">
        <ele>604.5</ele>
        <time>2021-04-08T15:05:32Z</time>
      </trkpt>
      <trkpt lat="46.74731" lon="5.95633">
        <ele>603.4</ele>
        <time>2021-04-08T15:05:37Z</time>
      </trkpt>
      <trkpt lat="46.74727" lon="5.95632">
        <ele>595.4</ele>
        <time>2021-04-08T15:05:54Z</time>
      </trkpt>
      <trkpt lat="46.74722" lon="5.95635">
        <ele>592.8</ele>
        <time>2021-04-08T15:06:00Z</time>
      </trkpt>
      <trkpt lat="46.74718" lon="5.95636">
        <ele>590.2</ele>
        <time>2021-04-08T15:06:04Z</time>
      </trkpt>
      <trkpt lat="46.74713" lon="5.95638">
        <ele>587.3</ele>
        <time>2021-04-08T15:06:08Z</time>
      </trkpt>
      <trkpt lat="46.74708" lon="5.9564">
        <ele>584.5</ele>
        <time>2021-04-08T15:06:13Z</time>
      </trkpt>
      <trkpt lat="46.74702" lon="5.95643">
        <ele>583.9</ele>
        <time>2021-04-08T15:06:17Z</time>
      </trkpt>
      <trkpt lat="46.74697" lon="5.95646">
        <ele>584.3</ele>
        <time>2021-04-08T15:06:21Z</time>
      </trkpt>
      <trkpt lat="46.74692" lon="5.95648">
        <ele>585</ele>
        <time>2021-04-08T15:06:25Z</time>
      </trkpt>
      <trkpt lat="46.74688" lon="5.95652">
        <ele>585.7</ele>
        <time>2021-04-08T15:06:30Z</time>
      </trkpt>
      <trkpt lat="46.74683" lon="5.95656">
        <ele>586.8</ele>
        <time>2021-04-08T15:06:38Z</time>
      </trkpt>
      <trkpt lat="46.74677" lon="5.95657">
        <ele>587.3</ele>
        <time>2021-04-08T15:06:42Z</time>
      </trkpt>
      <trkpt lat="46.74672" lon="5.95656">
        <ele>587.9</ele>
        <time>2021-04-08T15:06:46Z</time>
      </trkpt>
      <trkpt lat="46.74666" lon="5.95659">
        <ele>589</ele>
        <time>2021-04-08T15:06:50Z</time>
      </trkpt>
      <trkpt lat="46.74661" lon="5.95661">
        <ele>590.7</ele>
        <time>2021-04-08T15:06:54Z</time>
      </trkpt>
      <trkpt lat="46.74651" lon="5.95676">
        <ele>598.6</ele>
        <time>2021-04-08T15:06:58Z</time>
      </trkpt>
      <trkpt lat="46.74645" lon="5.95679">
        <ele>603.4</ele>
        <time>2021-04-08T15:07:02Z</time>
      </trkpt>
      <trkpt lat="46.74638" lon="5.95679">
        <ele>606.3</ele>
        <time>2021-04-08T15:07:06Z</time>
      </trkpt>
      <trkpt lat="46.74632" lon="5.95679">
        <ele>608.3</ele>
        <time>2021-04-08T15:07:10Z</time>
      </trkpt>
      <trkpt lat="46.74627" lon="5.95679">
        <ele>609.8</ele>
        <time>2021-04-08T15:07:14Z</time>
      </trkpt>
      <trkpt lat="46.74622" lon="5.95678">
        <ele>610.6</ele>
        <time>2021-04-08T15:07:19Z</time>
      </trkpt>
      <trkpt lat="46.74618" lon="5.95676">
        <ele>611</ele>
        <time>2021-04-08T15:07:23Z</time>
      </trkpt>
      <trkpt lat="46.74613" lon="5.95675">
        <ele>611.5</ele>
        <time>2021-04-08T15:07:27Z</time>
      </trkpt>
      <trkpt lat="46.74608" lon="5.95675">
        <ele>611.8</ele>
        <time>2021-04-08T15:07:31Z</time>
      </trkpt>
      <trkpt lat="46.74603" lon="5.95672">
        <ele>610.5</ele>
        <time>2021-04-08T15:07:36Z</time>
      </trkpt>
      <trkpt lat="46.74599" lon="5.9567">
        <ele>607.4</ele>
        <time>2021-04-08T15:07:41Z</time>
      </trkpt>
      <trkpt lat="46.74594" lon="5.95672">
        <ele>605.7</ele>
        <time>2021-04-08T15:07:45Z</time>
      </trkpt>
      <trkpt lat="46.74588" lon="5.95675">
        <ele>604.4</ele>
        <time>2021-04-08T15:07:49Z</time>
      </trkpt>
      <trkpt lat="46.74583" lon="5.95674">
        <ele>600.8</ele>
        <time>2021-04-08T15:07:55Z</time>
      </trkpt>
      <trkpt lat="46.74578" lon="5.95672">
        <ele>594.2</ele>
        <time>2021-04-08T15:08:03Z</time>
      </trkpt>
      <trkpt lat="46.74575" lon="5.95667">
        <ele>589.4</ele>
        <time>2021-04-08T15:08:10Z</time>
      </trkpt>
      <trkpt lat="46.7457" lon="5.95668">
        <ele>587.6</ele>
        <time>2021-04-08T15:08:15Z</time>
      </trkpt>
      <trkpt lat="46.74565" lon="5.95669">
        <ele>585.2</ele>
        <time>2021-04-08T15:08:21Z</time>
      </trkpt>
      <trkpt lat="46.7456" lon="5.95675">
        <ele>584</ele>
        <time>2021-04-08T15:08:25Z</time>
      </trkpt>
      <trkpt lat="46.74555" lon="5.95675">
        <ele>582.4</ele>
        <time>2021-04-08T15:08:30Z</time>
      </trkpt>
      <trkpt lat="46.7455" lon="5.95675">
        <ele>581</ele>
        <time>2021-04-08T15:08:35Z</time>
      </trkpt>
      <trkpt lat="46.74545" lon="5.95678">
        <ele>580</ele>
        <time>2021-04-08T15:08:41Z</time>
      </trkpt>
      <trkpt lat="46.7454" lon="5.9568">
        <ele>579.8</ele>
        <time>2021-04-08T15:08:45Z</time>
      </trkpt>
      <trkpt lat="46.74537" lon="5.95684">
        <ele>578.9</ele>
        <time>2021-04-08T15:08:55Z</time>
      </trkpt>
      <trkpt lat="46.74531" lon="5.95686">
        <ele>578.2</ele>
        <time>2021-04-08T15:09:02Z</time>
      </trkpt>
      <trkpt lat="46.74526" lon="5.95687">
        <ele>578.2</ele>
        <time>2021-04-08T15:09:07Z</time>
      </trkpt>
      <trkpt lat="46.7452" lon="5.95687">
        <ele>578.4</ele>
        <time>2021-04-08T15:09:11Z</time>
      </trkpt>
      <trkpt lat="46.74515" lon="5.95687">
        <ele>578.4</ele>
        <time>2021-04-08T15:09:15Z</time>
      </trkpt>
      <trkpt lat="46.74509" lon="5.95685">
        <ele>577.5</ele>
        <time>2021-04-08T15:09:20Z</time>
      </trkpt>
      <trkpt lat="46.74504" lon="5.95685">
        <ele>577.4</ele>
        <time>2021-04-08T15:09:24Z</time>
      </trkpt>
      <trkpt lat="46.74498" lon="5.95686">
        <ele>577.9</ele>
        <time>2021-04-08T15:09:28Z</time>
      </trkpt>
      <trkpt lat="46.74491" lon="5.95687">
        <ele>579.8</ele>
        <time>2021-04-08T15:09:32Z</time>
      </trkpt>
      <trkpt lat="46.74485" lon="5.95688">
        <ele>582.6</ele>
        <time>2021-04-08T15:09:36Z</time>
      </trkpt>
      <trkpt lat="46.7448" lon="5.95688">
        <ele>585</ele>
        <time>2021-04-08T15:09:40Z</time>
      </trkpt>
      <trkpt lat="46.74475" lon="5.95687">
        <ele>587.4</ele>
        <time>2021-04-08T15:09:44Z</time>
      </trkpt>
      <trkpt lat="46.74469" lon="5.95685">
        <ele>589.5</ele>
        <time>2021-04-08T15:09:48Z</time>
      </trkpt>
      <trkpt lat="46.74464" lon="5.95684">
        <ele>591.5</ele>
        <time>2021-04-08T15:09:52Z</time>
      </trkpt>
      <trkpt lat="46.74459" lon="5.95683">
        <ele>593.9</ele>
        <time>2021-04-08T15:09:57Z</time>
      </trkpt>
      <trkpt lat="46.74454" lon="5.95682">
        <ele>595.4</ele>
        <time>2021-04-08T15:10:02Z</time>
      </trkpt>
      <trkpt lat="46.74449" lon="5.9568">
        <ele>596.1</ele>
        <time>2021-04-08T15:10:06Z</time>
      </trkpt>
      <trkpt lat="46.74444" lon="5.95678">
        <ele>596.1</ele>
        <time>2021-04-08T15:10:10Z</time>
      </trkpt>
      <trkpt lat="46.74439" lon="5.95675">
        <ele>596</ele>
        <time>2021-04-08T15:10:15Z</time>
      </trkpt>
      <trkpt lat="46.74434" lon="5.95672">
        <ele>595.7</ele>
        <time>2021-04-08T15:10:20Z</time>
      </trkpt>
      <trkpt lat="46.7443" lon="5.95668">
        <ele>594.5</ele>
        <time>2021-04-08T15:10:24Z</time>
      </trkpt>
      <trkpt lat="46.74426" lon="5.95663">
        <ele>593.2</ele>
        <time>2021-04-08T15:10:29Z</time>
      </trkpt>
      <trkpt lat="46.74421" lon="5.95662">
        <ele>592.4</ele>
        <time>2021-04-08T15:10:33Z</time>
      </trkpt>
      <trkpt lat="46.74417" lon="5.95657">
        <ele>591.2</ele>
        <time>2021-04-08T15:10:38Z</time>
      </trkpt>
      <trkpt lat="46.74413" lon="5.95653">
        <ele>589.6</ele>
        <time>2021-04-08T15:10:43Z</time>
      </trkpt>
      <trkpt lat="46.74409" lon="5.95648">
        <ele>587.3</ele>
        <time>2021-04-08T15:10:50Z</time>
      </trkpt>
      <trkpt lat="46.74404" lon="5.95648">
        <ele>586.2</ele>
        <time>2021-04-08T15:10:54Z</time>
      </trkpt>
      <trkpt lat="46.744" lon="5.95646">
        <ele>585.4</ele>
        <time>2021-04-08T15:10:58Z</time>
      </trkpt>
      <trkpt lat="46.74396" lon="5.95642">
        <ele>584.7</ele>
        <time>2021-04-08T15:11:03Z</time>
      </trkpt>
      <trkpt lat="46.74391" lon="5.95639">
        <ele>584.4</ele>
        <time>2021-04-08T15:11:07Z</time>
      </trkpt>
      <trkpt lat="46.74384" lon="5.95638">
        <ele>584</ele>
        <time>2021-04-08T15:11:11Z</time>
      </trkpt>
      <trkpt lat="46.74379" lon="5.95637">
        <ele>583.8</ele>
        <time>2021-04-08T15:11:16Z</time>
      </trkpt>
      <trkpt lat="46.74375" lon="5.95634">
        <ele>583.6</ele>
        <time>2021-04-08T15:11:21Z</time>
      </trkpt>
      <trkpt lat="46.74369" lon="5.95631">
        <ele>582.9</ele>
        <time>2021-04-08T15:11:26Z</time>
      </trkpt>
      <trkpt lat="46.74364" lon="5.9563">
        <ele>582.3</ele>
        <time>2021-04-08T15:11:30Z</time>
      </trkpt>
      <trkpt lat="46.74359" lon="5.9563">
        <ele>581.4</ele>
        <time>2021-04-08T15:11:35Z</time>
      </trkpt>
      <trkpt lat="46.74354" lon="5.95628">
        <ele>580.2</ele>
        <time>2021-04-08T15:11:40Z</time>
      </trkpt>
      <trkpt lat="46.74349" lon="5.95626">
        <ele>578.2</ele>
        <time>2021-04-08T15:11:46Z</time>
      </trkpt>
      <trkpt lat="46.74344" lon="5.95625">
        <ele>576.5</ele>
        <time>2021-04-08T15:11:52Z</time>
      </trkpt>
      <trkpt lat="46.74335" lon="5.95629">
        <ele>577.1</ele>
        <time>2021-04-08T15:11:56Z</time>
      </trkpt>
      <trkpt lat="46.74328" lon="5.95631">
        <ele>577.6</ele>
        <time>2021-04-08T15:12:00Z</time>
      </trkpt>
      <trkpt lat="46.74323" lon="5.9563">
        <ele>577.7</ele>
        <time>2021-04-08T15:12:05Z</time>
      </trkpt>
      <trkpt lat="46.74317" lon="5.95631">
        <ele>577.5</ele>
        <time>2021-04-08T15:12:10Z</time>
      </trkpt>
      <trkpt lat="46.74313" lon="5.95633">
        <ele>577.4</ele>
        <time>2021-04-08T15:12:14Z</time>
      </trkpt>
      <trkpt lat="46.74308" lon="5.95634">
        <ele>577</ele>
        <time>2021-04-08T15:12:18Z</time>
      </trkpt>
      <trkpt lat="46.74303" lon="5.95635">
        <ele>576.4</ele>
        <time>2021-04-08T15:12:22Z</time>
      </trkpt>
      <trkpt lat="46.74298" lon="5.95636">
        <ele>575.8</ele>
        <time>2021-04-08T15:12:27Z</time>
      </trkpt>
      <trkpt lat="46.74293" lon="5.95637">
        <ele>575.5</ele>
        <time>2021-04-08T15:12:32Z</time>
      </trkpt>
      <trkpt lat="46.74288" lon="5.95639">
        <ele>575.4</ele>
        <time>2021-04-08T15:12:37Z</time>
      </trkpt>
      <trkpt lat="46.74284" lon="5.95641">
        <ele>575.3</ele>
        <time>2021-04-08T15:12:42Z</time>
      </trkpt>
      <trkpt lat="46.7428" lon="5.95645">
        <ele>575.4</ele>
        <time>2021-04-08T15:12:47Z</time>
      </trkpt>
      <trkpt lat="46.74278" lon="5.95651">
        <ele>575.4</ele>
        <time>2021-04-08T15:12:52Z</time>
      </trkpt>
      <trkpt lat="46.74274" lon="5.95655">
        <ele>575.3</ele>
        <time>2021-04-08T15:12:59Z</time>
      </trkpt>
      <trkpt lat="46.74269" lon="5.95655">
        <ele>575.5</ele>
        <time>2021-04-08T15:13:06Z</time>
      </trkpt>
      <trkpt lat="46.74264" lon="5.95656">
        <ele>576</ele>
        <time>2021-04-08T15:13:11Z</time>
      </trkpt>
      <trkpt lat="46.74259" lon="5.95658">
        <ele>576.4</ele>
        <time>2021-04-08T15:13:15Z</time>
      </trkpt>
      <trkpt lat="46.74254" lon="5.9566">
        <ele>576.8</ele>
        <time>2021-04-08T15:13:19Z</time>
      </trkpt>
      <trkpt lat="46.74249" lon="5.95662">
        <ele>577.2</ele>
        <time>2021-04-08T15:13:24Z</time>
      </trkpt>
      <trkpt lat="46.74246" lon="5.95667">
        <ele>577.5</ele>
        <time>2021-04-08T15:13:29Z</time>
      </trkpt>
      <trkpt lat="46.74242" lon="5.95672">
        <ele>577.6</ele>
        <time>2021-04-08T15:13:33Z</time>
      </trkpt>
      <trkpt lat="46.74237" lon="5.95676">
        <ele>577.8</ele>
        <time>2021-04-08T15:13:37Z</time>
      </trkpt>
      <trkpt lat="46.74232" lon="5.95681">
        <ele>578.3</ele>
        <time>2021-04-08T15:13:41Z</time>
      </trkpt>
      <trkpt lat="46.74228" lon="5.95685">
        <ele>578.7</ele>
        <time>2021-04-08T15:13:45Z</time>
      </trkpt>
      <trkpt lat="46.74224" lon="5.9569">
        <ele>579.6</ele>
        <time>2021-04-08T15:13:50Z</time>
      </trkpt>
      <trkpt lat="46.7422" lon="5.95693">
        <ele>580.8</ele>
        <time>2021-04-08T15:13:55Z</time>
      </trkpt>
      <trkpt lat="46.74216" lon="5.95696">
        <ele>582</ele>
        <time>2021-04-08T15:14:00Z</time>
      </trkpt>
      <trkpt lat="46.74211" lon="5.95698">
        <ele>582.7</ele>
        <time>2021-04-08T15:14:04Z</time>
      </trkpt>
      <trkpt lat="46.74207" lon="5.95701">
        <ele>583.3</ele>
        <time>2021-04-08T15:14:08Z</time>
      </trkpt>
      <trkpt lat="46.74202" lon="5.95704">
        <ele>583.8</ele>
        <time>2021-04-08T15:14:12Z</time>
      </trkpt>
      <trkpt lat="46.74197" lon="5.95706">
        <ele>584.2</ele>
        <time>2021-04-08T15:14:17Z</time>
      </trkpt>
      <trkpt lat="46.74192" lon="5.95709">
        <ele>584.6</ele>
        <time>2021-04-08T15:14:22Z</time>
      </trkpt>
      <trkpt lat="46.74187" lon="5.95712">
        <ele>584.5</ele>
        <time>2021-04-08T15:14:27Z</time>
      </trkpt>
      <trkpt lat="46.74183" lon="5.95714">
        <ele>583.4</ele>
        <time>2021-04-08T15:14:35Z</time>
      </trkpt>
      <trkpt lat="46.74178" lon="5.95716">
        <ele>582.8</ele>
        <time>2021-04-08T15:14:40Z</time>
      </trkpt>
      <trkpt lat="46.74174" lon="5.95719">
        <ele>582.2</ele>
        <time>2021-04-08T15:14:45Z</time>
      </trkpt>
      <trkpt lat="46.74169" lon="5.95723">
        <ele>581.5</ele>
        <time>2021-04-08T15:14:50Z</time>
      </trkpt>
      <trkpt lat="46.74165" lon="5.95726">
        <ele>580.4</ele>
        <time>2021-04-08T15:14:56Z</time>
      </trkpt>
      <trkpt lat="46.74161" lon="5.95729">
        <ele>579.7</ele>
        <time>2021-04-08T15:15:00Z</time>
      </trkpt>
      <trkpt lat="46.74157" lon="5.95733">
        <ele>578.9</ele>
        <time>2021-04-08T15:15:05Z</time>
      </trkpt>
      <trkpt lat="46.74153" lon="5.95737">
        <ele>578.1</ele>
        <time>2021-04-08T15:15:10Z</time>
      </trkpt>
      <trkpt lat="46.74152" lon="5.95744">
        <ele>577.3</ele>
        <time>2021-04-08T15:15:16Z</time>
      </trkpt>
      <trkpt lat="46.74149" lon="5.95749">
        <ele>576.1</ele>
        <time>2021-04-08T15:15:39Z</time>
      </trkpt>
      <trkpt lat="46.74145" lon="5.95745">
        <ele>578.5</ele>
        <time>2021-04-08T15:16:19Z</time>
      </trkpt>
      <trkpt lat="46.7414" lon="5.95746">
        <ele>579.2</ele>
        <time>2021-04-08T15:16:25Z</time>
      </trkpt>
      <trkpt lat="46.74135" lon="5.95748">
        <ele>579.8</ele>
        <time>2021-04-08T15:16:31Z</time>
      </trkpt>
      <trkpt lat="46.7413" lon="5.95751">
        <ele>580.3</ele>
        <time>2021-04-08T15:16:36Z</time>
      </trkpt>
      <trkpt lat="46.74125" lon="5.95753">
        <ele>580.7</ele>
        <time>2021-04-08T15:16:40Z</time>
      </trkpt>
      <trkpt lat="46.74121" lon="5.95756">
        <ele>581.3</ele>
        <time>2021-04-08T15:16:45Z</time>
      </trkpt>
      <trkpt lat="46.74116" lon="5.9576">
        <ele>581.9</ele>
        <time>2021-04-08T15:16:50Z</time>
      </trkpt>
      <trkpt lat="46.74112" lon="5.95763">
        <ele>582.1</ele>
        <time>2021-04-08T15:16:54Z</time>
      </trkpt>
      <trkpt lat="46.74107" lon="5.95767">
        <ele>581.9</ele>
        <time>2021-04-08T15:16:58Z</time>
      </trkpt>
      <trkpt lat="46.74102" lon="5.9577">
        <ele>581.7</ele>
        <time>2021-04-08T15:17:02Z</time>
      </trkpt>
      <trkpt lat="46.74098" lon="5.95773">
        <ele>582.1</ele>
        <time>2021-04-08T15:17:06Z</time>
      </trkpt>
      <trkpt lat="46.74094" lon="5.95776">
        <ele>582.3</ele>
        <time>2021-04-08T15:17:11Z</time>
      </trkpt>
      <trkpt lat="46.7409" lon="5.95779">
        <ele>582.5</ele>
        <time>2021-04-08T15:17:16Z</time>
      </trkpt>
      <trkpt lat="46.74085" lon="5.95782">
        <ele>582.6</ele>
        <time>2021-04-08T15:17:21Z</time>
      </trkpt>
      <trkpt lat="46.7408" lon="5.95785">
        <ele>582.2</ele>
        <time>2021-04-08T15:17:25Z</time>
      </trkpt>
      <trkpt lat="46.74075" lon="5.95788">
        <ele>582.2</ele>
        <time>2021-04-08T15:17:30Z</time>
      </trkpt>
      <trkpt lat="46.7407" lon="5.95791">
        <ele>582.7</ele>
        <time>2021-04-08T15:17:36Z</time>
      </trkpt>
      <trkpt lat="46.74066" lon="5.95796">
        <ele>583</ele>
        <time>2021-04-08T15:17:41Z</time>
      </trkpt>
      <trkpt lat="46.74061" lon="5.958">
        <ele>583.2</ele>
        <time>2021-04-08T15:17:45Z</time>
      </trkpt>
      <trkpt lat="46.74057" lon="5.95803">
        <ele>583.3</ele>
        <time>2021-04-08T15:17:49Z</time>
      </trkpt>
      <trkpt lat="46.74052" lon="5.95807">
        <ele>583.4</ele>
        <time>2021-04-08T15:17:53Z</time>
      </trkpt>
      <trkpt lat="46.74047" lon="5.9581">
        <ele>583.4</ele>
        <time>2021-04-08T15:17:57Z</time>
      </trkpt>
      <trkpt lat="46.74043" lon="5.95813">
        <ele>583.1</ele>
        <time>2021-04-08T15:18:02Z</time>
      </trkpt>
      <trkpt lat="46.74039" lon="5.95818">
        <ele>582.4</ele>
        <time>2021-04-08T15:18:07Z</time>
      </trkpt>
      <trkpt lat="46.74035" lon="5.95821">
        <ele>581.9</ele>
        <time>2021-04-08T15:18:11Z</time>
      </trkpt>
      <trkpt lat="46.74031" lon="5.95824">
        <ele>581.5</ele>
        <time>2021-04-08T15:18:15Z</time>
      </trkpt>
      <trkpt lat="46.74026" lon="5.95827">
        <ele>581.1</ele>
        <time>2021-04-08T15:18:20Z</time>
      </trkpt>
      <trkpt lat="46.74022" lon="5.9583">
        <ele>580.7</ele>
        <time>2021-04-08T15:18:25Z</time>
      </trkpt>
      <trkpt lat="46.74017" lon="5.95833">
        <ele>580.3</ele>
        <time>2021-04-08T15:18:30Z</time>
      </trkpt>
      <trkpt lat="46.74013" lon="5.95837">
        <ele>579.7</ele>
        <time>2021-04-08T15:18:37Z</time>
      </trkpt>
      <trkpt lat="46.74007" lon="5.95841">
        <ele>580</ele>
        <time>2021-04-08T15:18:41Z</time>
      </trkpt>
      <trkpt lat="46.74" lon="5.95845">
        <ele>580.8</ele>
        <time>2021-04-08T15:18:45Z</time>
      </trkpt>
      <trkpt lat="46.73993" lon="5.95848">
        <ele>581.8</ele>
        <time>2021-04-08T15:18:49Z</time>
      </trkpt>
      <trkpt lat="46.73988" lon="5.95851">
        <ele>582.2</ele>
        <time>2021-04-08T15:18:53Z</time>
      </trkpt>
      <trkpt lat="46.73984" lon="5.95855">
        <ele>582.8</ele>
        <time>2021-04-08T15:18:58Z</time>
      </trkpt>
      <trkpt lat="46.73979" lon="5.95858">
        <ele>583.3</ele>
        <time>2021-04-08T15:19:03Z</time>
      </trkpt>
      <trkpt lat="46.73974" lon="5.95861">
        <ele>583.8</ele>
        <time>2021-04-08T15:19:08Z</time>
      </trkpt>
      <trkpt lat="46.73971" lon="5.95865">
        <ele>584.4</ele>
        <time>2021-04-08T15:19:14Z</time>
      </trkpt>
      <trkpt lat="46.73966" lon="5.9587">
        <ele>584.7</ele>
        <time>2021-04-08T15:19:19Z</time>
      </trkpt>
      <trkpt lat="46.73961" lon="5.95872">
        <ele>584.9</ele>
        <time>2021-04-08T15:19:25Z</time>
      </trkpt>
      <trkpt lat="46.73957" lon="5.95875">
        <ele>584.8</ele>
        <time>2021-04-08T15:19:29Z</time>
      </trkpt>
      <trkpt lat="46.73952" lon="5.95879">
        <ele>584.7</ele>
        <time>2021-04-08T15:19:34Z</time>
      </trkpt>
      <trkpt lat="46.73948" lon="5.95883">
        <ele>584.7</ele>
        <time>2021-04-08T15:19:39Z</time>
      </trkpt>
      <trkpt lat="46.73943" lon="5.95886">
        <ele>584.6</ele>
        <time>2021-04-08T15:19:44Z</time>
      </trkpt>
      <trkpt lat="46.73939" lon="5.95888">
        <ele>584.4</ele>
        <time>2021-04-08T15:19:48Z</time>
      </trkpt>
      <trkpt lat="46.73934" lon="5.95892">
        <ele>584.5</ele>
        <time>2021-04-08T15:19:54Z</time>
      </trkpt>
      <trkpt lat="46.7393" lon="5.95895">
        <ele>584.7</ele>
        <time>2021-04-08T15:19:59Z</time>
      </trkpt>
      <trkpt lat="46.73925" lon="5.95896">
        <ele>584.9</ele>
        <time>2021-04-08T15:20:04Z</time>
      </trkpt>
      <trkpt lat="46.7392" lon="5.95899">
        <ele>584.7</ele>
        <time>2021-04-08T15:20:10Z</time>
      </trkpt>
      <trkpt lat="46.73915" lon="5.95899">
        <ele>584.2</ele>
        <time>2021-04-08T15:20:17Z</time>
      </trkpt>
      <trkpt lat="46.7391" lon="5.95904">
        <ele>583.7</ele>
        <time>2021-04-08T15:20:22Z</time>
      </trkpt>
      <trkpt lat="46.73902" lon="5.95911">
        <ele>583.9</ele>
        <time>2021-04-08T15:20:26Z</time>
      </trkpt>
      <trkpt lat="46.73899" lon="5.95915">
        <ele>583.2</ele>
        <time>2021-04-08T15:20:32Z</time>
      </trkpt>
      <trkpt lat="46.73895" lon="5.9592">
        <ele>582.4</ele>
        <time>2021-04-08T15:20:37Z</time>
      </trkpt>
      <trkpt lat="46.73891" lon="5.95923">
        <ele>581.6</ele>
        <time>2021-04-08T15:20:41Z</time>
      </trkpt>
      <trkpt lat="46.73886" lon="5.95925">
        <ele>580.9</ele>
        <time>2021-04-08T15:20:45Z</time>
      </trkpt>
      <trkpt lat="46.73882" lon="5.95927">
        <ele>580.1</ele>
        <time>2021-04-08T15:20:50Z</time>
      </trkpt>
      <trkpt lat="46.7387" lon="5.95939">
        <ele>583.1</ele>
        <time>2021-04-08T15:20:54Z</time>
      </trkpt>
      <trkpt lat="46.73866" lon="5.95943">
        <ele>584.9</ele>
        <time>2021-04-08T15:20:58Z</time>
      </trkpt>
      <trkpt lat="46.7386" lon="5.95945">
        <ele>586.4</ele>
        <time>2021-04-08T15:21:02Z</time>
      </trkpt>
      <trkpt lat="46.73855" lon="5.95949">
        <ele>587.8</ele>
        <time>2021-04-08T15:21:06Z</time>
      </trkpt>
      <trkpt lat="46.7385" lon="5.95952">
        <ele>589.1</ele>
        <time>2021-04-08T15:21:10Z</time>
      </trkpt>
      <trkpt lat="46.73844" lon="5.95956">
        <ele>590.3</ele>
        <time>2021-04-08T15:21:14Z</time>
      </trkpt>
      <trkpt lat="46.73839" lon="5.95959">
        <ele>591.2</ele>
        <time>2021-04-08T15:21:18Z</time>
      </trkpt>
      <trkpt lat="46.73835" lon="5.95964">
        <ele>592.1</ele>
        <time>2021-04-08T15:21:23Z</time>
      </trkpt>
      <trkpt lat="46.73831" lon="5.9597">
        <ele>593</ele>
        <time>2021-04-08T15:21:27Z</time>
      </trkpt>
      <trkpt lat="46.73826" lon="5.95973">
        <ele>594.4</ele>
        <time>2021-04-08T15:21:31Z</time>
      </trkpt>
      <trkpt lat="46.73822" lon="5.95974">
        <ele>595.5</ele>
        <time>2021-04-08T15:21:35Z</time>
      </trkpt>
      <trkpt lat="46.73817" lon="5.95976">
        <ele>596.2</ele>
        <time>2021-04-08T15:21:40Z</time>
      </trkpt>
      <trkpt lat="46.73812" lon="5.95979">
        <ele>597.1</ele>
        <time>2021-04-08T15:21:45Z</time>
      </trkpt>
      <trkpt lat="46.73808" lon="5.95982">
        <ele>597</ele>
        <time>2021-04-08T15:21:50Z</time>
      </trkpt>
      <trkpt lat="46.73803" lon="5.95986">
        <ele>596.4</ele>
        <time>2021-04-08T15:21:55Z</time>
      </trkpt>
      <trkpt lat="46.73799" lon="5.95989">
        <ele>596.3</ele>
        <time>2021-04-08T15:21:59Z</time>
      </trkpt>
      <trkpt lat="46.73794" lon="5.95993">
        <ele>596.3</ele>
        <time>2021-04-08T15:22:03Z</time>
      </trkpt>
      <trkpt lat="46.7379" lon="5.95997">
        <ele>596</ele>
        <time>2021-04-08T15:22:07Z</time>
      </trkpt>
      <trkpt lat="46.73785" lon="5.96">
        <ele>595.6</ele>
        <time>2021-04-08T15:22:11Z</time>
      </trkpt>
      <trkpt lat="46.73781" lon="5.96004">
        <ele>595.5</ele>
        <time>2021-04-08T15:22:15Z</time>
      </trkpt>
      <trkpt lat="46.73777" lon="5.96008">
        <ele>595.4</ele>
        <time>2021-04-08T15:22:19Z</time>
      </trkpt>
      <trkpt lat="46.73774" lon="5.96012">
        <ele>594.8</ele>
        <time>2021-04-08T15:22:24Z</time>
      </trkpt>
      <trkpt lat="46.7377" lon="5.96017">
        <ele>594</ele>
        <time>2021-04-08T15:22:29Z</time>
      </trkpt>
      <trkpt lat="46.73765" lon="5.9602">
        <ele>592.9</ele>
        <time>2021-04-08T15:22:36Z</time>
      </trkpt>
      <trkpt lat="46.7376" lon="5.96022">
        <ele>591.8</ele>
        <time>2021-04-08T15:22:40Z</time>
      </trkpt>
      <trkpt lat="46.73753" lon="5.96024">
        <ele>591.4</ele>
        <time>2021-04-08T15:22:44Z</time>
      </trkpt>
      <trkpt lat="46.73748" lon="5.96027">
        <ele>591.5</ele>
        <time>2021-04-08T15:22:48Z</time>
      </trkpt>
      <trkpt lat="46.73744" lon="5.9603">
        <ele>591.5</ele>
        <time>2021-04-08T15:22:53Z</time>
      </trkpt>
      <trkpt lat="46.7374" lon="5.96034">
        <ele>591.5</ele>
        <time>2021-04-08T15:22:57Z</time>
      </trkpt>
      <trkpt lat="46.73736" lon="5.96037">
        <ele>591</ele>
        <time>2021-04-08T15:23:01Z</time>
      </trkpt>
      <trkpt lat="46.73732" lon="5.9604">
        <ele>590.4</ele>
        <time>2021-04-08T15:23:06Z</time>
      </trkpt>
      <trkpt lat="46.73728" lon="5.96044">
        <ele>590.4</ele>
        <time>2021-04-08T15:23:12Z</time>
      </trkpt>
      <trkpt lat="46.73724" lon="5.96047">
        <ele>590.9</ele>
        <time>2021-04-08T15:23:17Z</time>
      </trkpt>
      <trkpt lat="46.73719" lon="5.96049">
        <ele>591.6</ele>
        <time>2021-04-08T15:23:26Z</time>
      </trkpt>
      <trkpt lat="46.73714" lon="5.96047">
        <ele>591.9</ele>
        <time>2021-04-08T15:23:44Z</time>
      </trkpt>
      <trkpt lat="46.73709" lon="5.96053">
        <ele>593.1</ele>
        <time>2021-04-08T15:24:52Z</time>
      </trkpt>
      <trkpt lat="46.73706" lon="5.96059">
        <ele>594.6</ele>
        <time>2021-04-08T15:24:57Z</time>
      </trkpt>
      <trkpt lat="46.73701" lon="5.96063">
        <ele>594.8</ele>
        <time>2021-04-08T15:25:04Z</time>
      </trkpt>
      <trkpt lat="46.73697" lon="5.96065">
        <ele>595.1</ele>
        <time>2021-04-08T15:25:08Z</time>
      </trkpt>
      <trkpt lat="46.73692" lon="5.96067">
        <ele>595.6</ele>
        <time>2021-04-08T15:25:12Z</time>
      </trkpt>
      <trkpt lat="46.73687" lon="5.96069">
        <ele>595.9</ele>
        <time>2021-04-08T15:25:17Z</time>
      </trkpt>
      <trkpt lat="46.73682" lon="5.96073">
        <ele>596.4</ele>
        <time>2021-04-08T15:25:23Z</time>
      </trkpt>
      <trkpt lat="46.73678" lon="5.96076">
        <ele>597.3</ele>
        <time>2021-04-08T15:25:27Z</time>
      </trkpt>
      <trkpt lat="46.73672" lon="5.96079">
        <ele>598.2</ele>
        <time>2021-04-08T15:25:31Z</time>
      </trkpt>
      <trkpt lat="46.73665" lon="5.9608">
        <ele>599.7</ele>
        <time>2021-04-08T15:25:35Z</time>
      </trkpt>
      <trkpt lat="46.73661" lon="5.96081">
        <ele>600.5</ele>
        <time>2021-04-08T15:25:39Z</time>
      </trkpt>
      <trkpt lat="46.73656" lon="5.96081">
        <ele>600.1</ele>
        <time>2021-04-08T15:25:45Z</time>
      </trkpt>
      <trkpt lat="46.73651" lon="5.96082">
        <ele>599.9</ele>
        <time>2021-04-08T15:25:49Z</time>
      </trkpt>
      <trkpt lat="46.73645" lon="5.96083">
        <ele>601.1</ele>
        <time>2021-04-08T15:25:53Z</time>
      </trkpt>
      <trkpt lat="46.7364" lon="5.96086">
        <ele>602.8</ele>
        <time>2021-04-08T15:25:58Z</time>
      </trkpt>
      <trkpt lat="46.73635" lon="5.96088">
        <ele>604</ele>
        <time>2021-04-08T15:26:02Z</time>
      </trkpt>
      <trkpt lat="46.7363" lon="5.9609">
        <ele>605.6</ele>
        <time>2021-04-08T15:26:06Z</time>
      </trkpt>
      <trkpt lat="46.73625" lon="5.96093">
        <ele>605.5</ele>
        <time>2021-04-08T15:26:10Z</time>
      </trkpt>
      <trkpt lat="46.73621" lon="5.96095">
        <ele>603.9</ele>
        <time>2021-04-08T15:26:14Z</time>
      </trkpt>
      <trkpt lat="46.73616" lon="5.96097">
        <ele>601.3</ele>
        <time>2021-04-08T15:26:19Z</time>
      </trkpt>
      <trkpt lat="46.73612" lon="5.961">
        <ele>599.5</ele>
        <time>2021-04-08T15:26:30Z</time>
      </trkpt>
      <trkpt lat="46.73607" lon="5.96102">
        <ele>599.5</ele>
        <time>2021-04-08T15:26:36Z</time>
      </trkpt>
      <trkpt lat="46.73603" lon="5.96105">
        <ele>599.8</ele>
        <time>2021-04-08T15:26:42Z</time>
      </trkpt>
      <trkpt lat="46.73598" lon="5.96109">
        <ele>600</ele>
        <time>2021-04-08T15:26:48Z</time>
      </trkpt>
      <trkpt lat="46.73594" lon="5.9611">
        <ele>599.8</ele>
        <time>2021-04-08T15:26:53Z</time>
      </trkpt>
      <trkpt lat="46.73589" lon="5.96114">
        <ele>600.6</ele>
        <time>2021-04-08T15:26:59Z</time>
      </trkpt>
      <trkpt lat="46.73583" lon="5.96115">
        <ele>600.8</ele>
        <time>2021-04-08T15:27:03Z</time>
      </trkpt>
      <trkpt lat="46.73577" lon="5.96115">
        <ele>600.6</ele>
        <time>2021-04-08T15:27:08Z</time>
      </trkpt>
      <trkpt lat="46.73573" lon="5.96118">
        <ele>598.8</ele>
        <time>2021-04-08T15:27:13Z</time>
      </trkpt>
      <trkpt lat="46.73569" lon="5.96122">
        <ele>596</ele>
        <time>2021-04-08T15:27:18Z</time>
      </trkpt>
      <trkpt lat="46.73564" lon="5.96123">
        <ele>593.8</ele>
        <time>2021-04-08T15:27:24Z</time>
      </trkpt>
      <trkpt lat="46.73559" lon="5.96124">
        <ele>593.5</ele>
        <time>2021-04-08T15:27:28Z</time>
      </trkpt>
      <trkpt lat="46.73555" lon="5.96129">
        <ele>593.5</ele>
        <time>2021-04-08T15:27:32Z</time>
      </trkpt>
      <trkpt lat="46.73552" lon="5.96135">
        <ele>594.2</ele>
        <time>2021-04-08T15:27:36Z</time>
      </trkpt>
      <trkpt lat="46.73548" lon="5.9614">
        <ele>594.7</ele>
        <time>2021-04-08T15:27:41Z</time>
      </trkpt>
      <trkpt lat="46.73545" lon="5.96146">
        <ele>594.9</ele>
        <time>2021-04-08T15:27:46Z</time>
      </trkpt>
      <trkpt lat="46.73541" lon="5.96151">
        <ele>595.4</ele>
        <time>2021-04-08T15:27:50Z</time>
      </trkpt>
      <trkpt lat="46.73537" lon="5.96157">
        <ele>596.1</ele>
        <time>2021-04-08T15:27:54Z</time>
      </trkpt>
      <trkpt lat="46.73533" lon="5.96163">
        <ele>597.6</ele>
        <time>2021-04-08T15:27:58Z</time>
      </trkpt>
      <trkpt lat="46.73528" lon="5.96168">
        <ele>599</ele>
        <time>2021-04-08T15:28:02Z</time>
      </trkpt>
      <trkpt lat="46.73524" lon="5.96171">
        <ele>601.1</ele>
        <time>2021-04-08T15:28:06Z</time>
      </trkpt>
      <trkpt lat="46.73519" lon="5.96176">
        <ele>603.7</ele>
        <time>2021-04-08T15:28:11Z</time>
      </trkpt>
      <trkpt lat="46.73516" lon="5.96181">
        <ele>604.6</ele>
        <time>2021-04-08T15:28:17Z</time>
      </trkpt>
      <trkpt lat="46.73512" lon="5.96186">
        <ele>603.1</ele>
        <time>2021-04-08T15:28:21Z</time>
      </trkpt>
      <trkpt lat="46.73509" lon="5.96192">
        <ele>601</ele>
        <time>2021-04-08T15:28:25Z</time>
      </trkpt>
      <trkpt lat="46.73507" lon="5.96199">
        <ele>599.2</ele>
        <time>2021-04-08T15:28:31Z</time>
      </trkpt>
      <trkpt lat="46.73507" lon="5.96206">
        <ele>602.9</ele>
        <time>2021-04-08T15:28:46Z</time>
      </trkpt>
      <trkpt lat="46.73503" lon="5.9621">
        <ele>606.7</ele>
        <time>2021-04-08T15:29:08Z</time>
      </trkpt>
      <trkpt lat="46.73499" lon="5.9621">
        <ele>610.4</ele>
        <time>2021-04-08T15:29:32Z</time>
      </trkpt>
      <trkpt lat="46.73494" lon="5.96207">
        <ele>610.6</ele>
        <time>2021-04-08T15:29:39Z</time>
      </trkpt>
      <trkpt lat="46.7349" lon="5.96204">
        <ele>610.8</ele>
        <time>2021-04-08T15:29:44Z</time>
      </trkpt>
      <trkpt lat="46.73485" lon="5.96199">
        <ele>610.8</ele>
        <time>2021-04-08T15:29:50Z</time>
      </trkpt>
      <trkpt lat="46.73481" lon="5.96196">
        <ele>610.7</ele>
        <time>2021-04-08T15:29:57Z</time>
      </trkpt>
      <trkpt lat="46.73476" lon="5.96196">
        <ele>610.5</ele>
        <time>2021-04-08T15:30:03Z</time>
      </trkpt>
      <trkpt lat="46.73472" lon="5.96191">
        <ele>610.3</ele>
        <time>2021-04-08T15:30:08Z</time>
      </trkpt>
      <trkpt lat="46.73467" lon="5.96187">
        <ele>609.6</ele>
        <time>2021-04-08T15:30:14Z</time>
      </trkpt>
      <trkpt lat="46.73462" lon="5.96185">
        <ele>608.1</ele>
        <time>2021-04-08T15:30:20Z</time>
      </trkpt>
      <trkpt lat="46.73459" lon="5.96181">
        <ele>607</ele>
        <time>2021-04-08T15:30:28Z</time>
      </trkpt>
      <trkpt lat="46.73454" lon="5.96178">
        <ele>606</ele>
        <time>2021-04-08T15:30:35Z</time>
      </trkpt>
      <trkpt lat="46.73456" lon="5.96172">
        <ele>603.8</ele>
        <time>2021-04-08T15:30:43Z</time>
      </trkpt>
      <trkpt lat="46.73452" lon="5.96176">
        <ele>601.4</ele>
        <time>2021-04-08T15:31:00Z</time>
      </trkpt>
      <trkpt lat="46.73447" lon="5.96179">
        <ele>601.4</ele>
        <time>2021-04-08T15:31:04Z</time>
      </trkpt>
      <trkpt lat="46.7344" lon="5.96182">
        <ele>601.4</ele>
        <time>2021-04-08T15:31:08Z</time>
      </trkpt>
      <trkpt lat="46.73435" lon="5.96185">
        <ele>601.1</ele>
        <time>2021-04-08T15:31:12Z</time>
      </trkpt>
      <trkpt lat="46.7343" lon="5.96185">
        <ele>600.7</ele>
        <time>2021-04-08T15:31:16Z</time>
      </trkpt>
      <trkpt lat="46.73425" lon="5.96187">
        <ele>600.1</ele>
        <time>2021-04-08T15:31:20Z</time>
      </trkpt>
      <trkpt lat="46.73421" lon="5.9619">
        <ele>599.6</ele>
        <time>2021-04-08T15:31:24Z</time>
      </trkpt>
      <trkpt lat="46.73416" lon="5.96193">
        <ele>598.9</ele>
        <time>2021-04-08T15:31:28Z</time>
      </trkpt>
      <trkpt lat="46.73412" lon="5.96197">
        <ele>597.8</ele>
        <time>2021-04-08T15:31:32Z</time>
      </trkpt>
      <trkpt lat="46.73407" lon="5.962">
        <ele>596.5</ele>
        <time>2021-04-08T15:31:36Z</time>
      </trkpt>
      <trkpt lat="46.73402" lon="5.96202">
        <ele>594.6</ele>
        <time>2021-04-08T15:31:42Z</time>
      </trkpt>
      <trkpt lat="46.73397" lon="5.96204">
        <ele>593.6</ele>
        <time>2021-04-08T15:31:46Z</time>
      </trkpt>
      <trkpt lat="46.73391" lon="5.96205">
        <ele>593</ele>
        <time>2021-04-08T15:31:50Z</time>
      </trkpt>
      <trkpt lat="46.73387" lon="5.96208">
        <ele>592.3</ele>
        <time>2021-04-08T15:31:55Z</time>
      </trkpt>
      <trkpt lat="46.73381" lon="5.96209">
        <ele>591.5</ele>
        <time>2021-04-08T15:32:00Z</time>
      </trkpt>
      <trkpt lat="46.73377" lon="5.96211">
        <ele>590.9</ele>
        <time>2021-04-08T15:32:05Z</time>
      </trkpt>
      <trkpt lat="46.73372" lon="5.96213">
        <ele>590.5</ele>
        <time>2021-04-08T15:32:10Z</time>
      </trkpt>
      <trkpt lat="46.73368" lon="5.96213">
        <ele>590.3</ele>
        <time>2021-04-08T15:32:16Z</time>
      </trkpt>
      <trkpt lat="46.73363" lon="5.96216">
        <ele>590.4</ele>
        <time>2021-04-08T15:32:21Z</time>
      </trkpt>
      <trkpt lat="46.73358" lon="5.9622">
        <ele>591.1</ele>
        <time>2021-04-08T15:32:26Z</time>
      </trkpt>
      <trkpt lat="46.73353" lon="5.96222">
        <ele>591.4</ele>
        <time>2021-04-08T15:32:30Z</time>
      </trkpt>
      <trkpt lat="46.73348" lon="5.96224">
        <ele>590.5</ele>
        <time>2021-04-08T15:32:36Z</time>
      </trkpt>
      <trkpt lat="46.73343" lon="5.96226">
        <ele>589.2</ele>
        <time>2021-04-08T15:32:41Z</time>
      </trkpt>
      <trkpt lat="46.73336" lon="5.96229">
        <ele>587.5</ele>
        <time>2021-04-08T15:32:45Z</time>
      </trkpt>
      <trkpt lat="46.7333" lon="5.96229">
        <ele>587</ele>
        <time>2021-04-08T15:32:49Z</time>
      </trkpt>
      <trkpt lat="46.73325" lon="5.96229">
        <ele>586.1</ele>
        <time>2021-04-08T15:32:54Z</time>
      </trkpt>
      <trkpt lat="46.7332" lon="5.96229">
        <ele>585</ele>
        <time>2021-04-08T15:33:01Z</time>
      </trkpt>
      <trkpt lat="46.73315" lon="5.9623">
        <ele>584</ele>
        <time>2021-04-08T15:33:05Z</time>
      </trkpt>
      <trkpt lat="46.7331" lon="5.9623">
        <ele>584.3</ele>
        <time>2021-04-08T15:33:10Z</time>
      </trkpt>
      <trkpt lat="46.73304" lon="5.96232">
        <ele>584.1</ele>
        <time>2021-04-08T15:33:14Z</time>
      </trkpt>
      <trkpt lat="46.73298" lon="5.96234">
        <ele>584.5</ele>
        <time>2021-04-08T15:33:18Z</time>
      </trkpt>
      <trkpt lat="46.73293" lon="5.96234">
        <ele>585.4</ele>
        <time>2021-04-08T15:33:23Z</time>
      </trkpt>
      <trkpt lat="46.73288" lon="5.96235">
        <ele>585.2</ele>
        <time>2021-04-08T15:33:32Z</time>
      </trkpt>
      <trkpt lat="46.73283" lon="5.96233">
        <ele>584.3</ele>
        <time>2021-04-08T15:33:39Z</time>
      </trkpt>
      <trkpt lat="46.73276" lon="5.96237">
        <ele>583.6</ele>
        <time>2021-04-08T15:33:43Z</time>
      </trkpt>
      <trkpt lat="46.73265" lon="5.96244">
        <ele>583.3</ele>
        <time>2021-04-08T15:33:47Z</time>
      </trkpt>
      <trkpt lat="46.7326" lon="5.96245">
        <ele>583</ele>
        <time>2021-04-08T15:33:51Z</time>
      </trkpt>
      <trkpt lat="46.73255" lon="5.96247">
        <ele>582.5</ele>
        <time>2021-04-08T15:33:55Z</time>
      </trkpt>
      <trkpt lat="46.7325" lon="5.96249">
        <ele>581.7</ele>
        <time>2021-04-08T15:33:59Z</time>
      </trkpt>
      <trkpt lat="46.73245" lon="5.96248">
        <ele>580.9</ele>
        <time>2021-04-08T15:34:06Z</time>
      </trkpt>
      <trkpt lat="46.73239" lon="5.96248">
        <ele>581</ele>
        <time>2021-04-08T15:34:12Z</time>
      </trkpt>
      <trkpt lat="46.73232" lon="5.96247">
        <ele>581.7</ele>
        <time>2021-04-08T15:34:16Z</time>
      </trkpt>
      <trkpt lat="46.73228" lon="5.96245">
        <ele>582.7</ele>
        <time>2021-04-08T15:34:20Z</time>
      </trkpt>
      <trkpt lat="46.73222" lon="5.96246">
        <ele>583.3</ele>
        <time>2021-04-08T15:34:24Z</time>
      </trkpt>
      <trkpt lat="46.73213" lon="5.96248">
        <ele>582.2</ele>
        <time>2021-04-08T15:34:28Z</time>
      </trkpt>
      <trkpt lat="46.73208" lon="5.96247">
        <ele>580.6</ele>
        <time>2021-04-08T15:34:33Z</time>
      </trkpt>
      <trkpt lat="46.73204" lon="5.96243">
        <ele>580.2</ele>
        <time>2021-04-08T15:34:38Z</time>
      </trkpt>
      <trkpt lat="46.73199" lon="5.9624">
        <ele>580.9</ele>
        <time>2021-04-08T15:34:42Z</time>
      </trkpt>
      <trkpt lat="46.73193" lon="5.96237">
        <ele>580.7</ele>
        <time>2021-04-08T15:34:46Z</time>
      </trkpt>
      <trkpt lat="46.73188" lon="5.96237">
        <ele>581.2</ele>
        <time>2021-04-08T15:34:50Z</time>
      </trkpt>
      <trkpt lat="46.73182" lon="5.96237">
        <ele>582.2</ele>
        <time>2021-04-08T15:34:55Z</time>
      </trkpt>
      <trkpt lat="46.73178" lon="5.96236">
        <ele>583.1</ele>
        <time>2021-04-08T15:35:01Z</time>
      </trkpt>
      <trkpt lat="46.73173" lon="5.96233">
        <ele>583.8</ele>
        <time>2021-04-08T15:35:06Z</time>
      </trkpt>
      <trkpt lat="46.7317" lon="5.96227">
        <ele>584.2</ele>
        <time>2021-04-08T15:35:12Z</time>
      </trkpt>
      <trkpt lat="46.73166" lon="5.96224">
        <ele>582.8</ele>
        <time>2021-04-08T15:35:16Z</time>
      </trkpt>
      <trkpt lat="46.73161" lon="5.96221">
        <ele>581.2</ele>
        <time>2021-04-08T15:35:20Z</time>
      </trkpt>
      <trkpt lat="46.73156" lon="5.96219">
        <ele>579.8</ele>
        <time>2021-04-08T15:35:24Z</time>
      </trkpt>
      <trkpt lat="46.7315" lon="5.96219">
        <ele>578.5</ele>
        <time>2021-04-08T15:35:28Z</time>
      </trkpt>
      <trkpt lat="46.73145" lon="5.96218">
        <ele>576.8</ele>
        <time>2021-04-08T15:35:32Z</time>
      </trkpt>
      <trkpt lat="46.7314" lon="5.96219">
        <ele>575.1</ele>
        <time>2021-04-08T15:35:36Z</time>
      </trkpt>
      <trkpt lat="46.73135" lon="5.9622">
        <ele>572.6</ele>
        <time>2021-04-08T15:35:40Z</time>
      </trkpt>
      <trkpt lat="46.73131" lon="5.96216">
        <ele>571.7</ele>
        <time>2021-04-08T15:35:44Z</time>
      </trkpt>
      <trkpt lat="46.73127" lon="5.96212">
        <ele>570.1</ele>
        <time>2021-04-08T15:35:50Z</time>
      </trkpt>
      <trkpt lat="46.73122" lon="5.96213">
        <ele>566.4</ele>
        <time>2021-04-08T15:35:54Z</time>
      </trkpt>
      <trkpt lat="46.73118" lon="5.96212">
        <ele>561.9</ele>
        <time>2021-04-08T15:35:59Z</time>
      </trkpt>
      <trkpt lat="46.73114" lon="5.96208">
        <ele>557.5</ele>
        <time>2021-04-08T15:36:05Z</time>
      </trkpt>
      <trkpt lat="46.73109" lon="5.9621">
        <ele>553.4</ele>
        <time>2021-04-08T15:36:15Z</time>
      </trkpt>
      <trkpt lat="46.73104" lon="5.96208">
        <ele>552</ele>
        <time>2021-04-08T15:36:20Z</time>
      </trkpt>
      <trkpt lat="46.73092" lon="5.96206">
        <ele>554.7</ele>
        <time>2021-04-08T15:36:24Z</time>
      </trkpt>
      <trkpt lat="46.73085" lon="5.96201">
        <ele>558.6</ele>
        <time>2021-04-08T15:36:28Z</time>
      </trkpt>
      <trkpt lat="46.73079" lon="5.96197">
        <ele>561.9</ele>
        <time>2021-04-08T15:36:32Z</time>
      </trkpt>
      <trkpt lat="46.73074" lon="5.96195">
        <ele>564.5</ele>
        <time>2021-04-08T15:36:36Z</time>
      </trkpt>
      <trkpt lat="46.73069" lon="5.96194">
        <ele>566.3</ele>
        <time>2021-04-08T15:36:40Z</time>
      </trkpt>
      <trkpt lat="46.73064" lon="5.96192">
        <ele>568.1</ele>
        <time>2021-04-08T15:36:44Z</time>
      </trkpt>
      <trkpt lat="46.73058" lon="5.96191">
        <ele>569.9</ele>
        <time>2021-04-08T15:36:48Z</time>
      </trkpt>
      <trkpt lat="46.73053" lon="5.96188">
        <ele>571.9</ele>
        <time>2021-04-08T15:36:52Z</time>
      </trkpt>
      <trkpt lat="46.73048" lon="5.96186">
        <ele>574.1</ele>
        <time>2021-04-08T15:36:57Z</time>
      </trkpt>
      <trkpt lat="46.73042" lon="5.96177">
        <ele>577.8</ele>
        <time>2021-04-08T15:37:01Z</time>
      </trkpt>
      <trkpt lat="46.73037" lon="5.96176">
        <ele>580.9</ele>
        <time>2021-04-08T15:37:06Z</time>
      </trkpt>
      <trkpt lat="46.73032" lon="5.96177">
        <ele>583.6</ele>
        <time>2021-04-08T15:37:11Z</time>
      </trkpt>
      <trkpt lat="46.73028" lon="5.96174">
        <ele>586.2</ele>
        <time>2021-04-08T15:37:16Z</time>
      </trkpt>
      <trkpt lat="46.73022" lon="5.96172">
        <ele>588</ele>
        <time>2021-04-08T15:37:20Z</time>
      </trkpt>
      <trkpt lat="46.73017" lon="5.96171">
        <ele>589</ele>
        <time>2021-04-08T15:37:24Z</time>
      </trkpt>
      <trkpt lat="46.73013" lon="5.9617">
        <ele>588.9</ele>
        <time>2021-04-08T15:37:29Z</time>
      </trkpt>
      <trkpt lat="46.73008" lon="5.96169">
        <ele>589.2</ele>
        <time>2021-04-08T15:37:35Z</time>
      </trkpt>
      <trkpt lat="46.73003" lon="5.96168">
        <ele>589.8</ele>
        <time>2021-04-08T15:37:40Z</time>
      </trkpt>
      <trkpt lat="46.72998" lon="5.96164">
        <ele>590.2</ele>
        <time>2021-04-08T15:37:44Z</time>
      </trkpt>
      <trkpt lat="46.72992" lon="5.96153">
        <ele>591.4</ele>
        <time>2021-04-08T15:37:48Z</time>
      </trkpt>
      <trkpt lat="46.72986" lon="5.96148">
        <ele>592.4</ele>
        <time>2021-04-08T15:37:52Z</time>
      </trkpt>
      <trkpt lat="46.72981" lon="5.96145">
        <ele>592.8</ele>
        <time>2021-04-08T15:37:56Z</time>
      </trkpt>
      <trkpt lat="46.72976" lon="5.96144">
        <ele>592.7</ele>
        <time>2021-04-08T15:38:01Z</time>
      </trkpt>
      <trkpt lat="46.72971" lon="5.96143">
        <ele>592.8</ele>
        <time>2021-04-08T15:38:06Z</time>
      </trkpt>
      <trkpt lat="46.72966" lon="5.96145">
        <ele>593.8</ele>
        <time>2021-04-08T15:38:12Z</time>
      </trkpt>
      <trkpt lat="46.72962" lon="5.96141">
        <ele>594</ele>
        <time>2021-04-08T15:38:17Z</time>
      </trkpt>
      <trkpt lat="46.72957" lon="5.96138">
        <ele>594.2</ele>
        <time>2021-04-08T15:38:21Z</time>
      </trkpt>
      <trkpt lat="46.72954" lon="5.96133">
        <ele>593.9</ele>
        <time>2021-04-08T15:38:26Z</time>
      </trkpt>
      <trkpt lat="46.7295" lon="5.96128">
        <ele>592.7</ele>
        <time>2021-04-08T15:38:30Z</time>
      </trkpt>
      <trkpt lat="46.72945" lon="5.96125">
        <ele>589.6</ele>
        <time>2021-04-08T15:38:36Z</time>
      </trkpt>
      <trkpt lat="46.72941" lon="5.96123">
        <ele>587.4</ele>
        <time>2021-04-08T15:38:41Z</time>
      </trkpt>
      <trkpt lat="46.72936" lon="5.96118">
        <ele>586.3</ele>
        <time>2021-04-08T15:38:45Z</time>
      </trkpt>
      <trkpt lat="46.72931" lon="5.96117">
        <ele>585.1</ele>
        <time>2021-04-08T15:38:49Z</time>
      </trkpt>
      <trkpt lat="46.72926" lon="5.96119">
        <ele>583.9</ele>
        <time>2021-04-08T15:38:53Z</time>
      </trkpt>
      <trkpt lat="46.72922" lon="5.96114">
        <ele>582.6</ele>
        <time>2021-04-08T15:38:59Z</time>
      </trkpt>
      <trkpt lat="46.72917" lon="5.9611">
        <ele>582</ele>
        <time>2021-04-08T15:39:04Z</time>
      </trkpt>
      <trkpt lat="46.72913" lon="5.96105">
        <ele>581.7</ele>
        <time>2021-04-08T15:39:08Z</time>
      </trkpt>
      <trkpt lat="46.7291" lon="5.961">
        <ele>581.6</ele>
        <time>2021-04-08T15:39:12Z</time>
      </trkpt>
      <trkpt lat="46.72906" lon="5.96096">
        <ele>581.7</ele>
        <time>2021-04-08T15:39:17Z</time>
      </trkpt>
      <trkpt lat="46.72902" lon="5.96091">
        <ele>581.8</ele>
        <time>2021-04-08T15:39:22Z</time>
      </trkpt>
      <trkpt lat="46.72897" lon="5.96086">
        <ele>582.2</ele>
        <time>2021-04-08T15:39:26Z</time>
      </trkpt>
      <trkpt lat="46.72893" lon="5.96082">
        <ele>583.1</ele>
        <time>2021-04-08T15:39:30Z</time>
      </trkpt>
      <trkpt lat="46.72889" lon="5.96078">
        <ele>583.4</ele>
        <time>2021-04-08T15:39:34Z</time>
      </trkpt>
      <trkpt lat="46.72883" lon="5.96076">
        <ele>584.4</ele>
        <time>2021-04-08T15:39:38Z</time>
      </trkpt>
      <trkpt lat="46.72879" lon="5.9607">
        <ele>585.9</ele>
        <time>2021-04-08T15:39:44Z</time>
      </trkpt>
      <trkpt lat="46.72877" lon="5.96064">
        <ele>588.1</ele>
        <time>2021-04-08T15:39:48Z</time>
      </trkpt>
      <trkpt lat="46.72875" lon="5.96056">
        <ele>590.3</ele>
        <time>2021-04-08T15:39:53Z</time>
      </trkpt>
      <trkpt lat="46.72873" lon="5.96051">
        <ele>590.3</ele>
        <time>2021-04-08T15:39:58Z</time>
      </trkpt>
      <trkpt lat="46.72868" lon="5.96048">
        <ele>589.7</ele>
        <time>2021-04-08T15:40:03Z</time>
      </trkpt>
      <trkpt lat="46.72864" lon="5.96044">
        <ele>589.4</ele>
        <time>2021-04-08T15:40:07Z</time>
      </trkpt>
      <trkpt lat="46.72859" lon="5.96041">
        <ele>589.3</ele>
        <time>2021-04-08T15:40:11Z</time>
      </trkpt>
      <trkpt lat="46.72853" lon="5.96042">
        <ele>589.7</ele>
        <time>2021-04-08T15:40:15Z</time>
      </trkpt>
      <trkpt lat="46.72848" lon="5.96038">
        <ele>589.7</ele>
        <time>2021-04-08T15:40:19Z</time>
      </trkpt>
      <trkpt lat="46.72844" lon="5.96033">
        <ele>589.6</ele>
        <time>2021-04-08T15:40:23Z</time>
      </trkpt>
      <trkpt lat="46.72841" lon="5.96028">
        <ele>589.6</ele>
        <time>2021-04-08T15:40:27Z</time>
      </trkpt>
      <trkpt lat="46.72837" lon="5.96024">
        <ele>588.5</ele>
        <time>2021-04-08T15:40:35Z</time>
      </trkpt>
      <trkpt lat="46.72833" lon="5.9602">
        <ele>586.4</ele>
        <time>2021-04-08T15:40:40Z</time>
      </trkpt>
      <trkpt lat="46.72829" lon="5.96016">
        <ele>581.5</ele>
        <time>2021-04-08T15:40:46Z</time>
      </trkpt>
      <trkpt lat="46.72824" lon="5.96014">
        <ele>579</ele>
        <time>2021-04-08T15:40:52Z</time>
      </trkpt>
      <trkpt lat="46.72819" lon="5.96014">
        <ele>579.6</ele>
        <time>2021-04-08T15:40:58Z</time>
      </trkpt>
      <trkpt lat="46.72815" lon="5.96014">
        <ele>580.8</ele>
        <time>2021-04-08T15:41:28Z</time>
      </trkpt>
      <trkpt lat="46.7282" lon="5.96015">
        <ele>581.2</ele>
        <time>2021-04-08T15:43:08Z</time>
      </trkpt>
      <trkpt lat="46.7282" lon="5.96009">
        <ele>582.8</ele>
        <time>2021-04-08T15:44:55Z</time>
      </trkpt>
    </trkseg>
  </trk>
</gpx>